<?xml version='1.0' encoding='UTF-8'?><gpx version="1.1" creator="JPX - https://github.com/jenetics/jpx" xmlns="http://www.topografix.com/GPX/1/1"><trk><trkseg><trkpt lat="45.1511016" lon="10.7723018"><ele>24.0</ele><time>2026-04-05T16:11:31.731Z</time></trkpt><trkpt lat="45.1516388" lon="10.7722402"><ele>24.0</ele><time>2026-04-05T16:11:51.73Z</time></trkpt><trkpt lat="45.1517162" lon="10.7722487"><ele>24.0</ele><time>2026-04-05T16:11:54.731Z</time></trkpt><trkpt lat="45.1517902" lon="10.7722586"><ele>24.0</ele><time>2026-04-05T16:11:57.73Z</time></trkpt><trkpt lat="45.1518741" lon="10.7722424"><ele>24.0</ele><time>2026-04-05T16:12:00.731Z</time></trkpt><trkpt lat="45.1519527" lon="10.7722245"><ele>24.0</ele><time>2026-04-05T16:12:03.732Z</time></trkpt><trkpt lat="45.1520334" lon="10.7722159"><ele>24.0</ele><time>2026-04-05T16:12:06.732Z</time></trkpt><trkpt lat="45.152124" lon="10.7722119"><ele>24.0</ele><time>2026-04-05T16:12:09.73Z</time></trkpt><trkpt lat="45.1522112" lon="10.7722038"><ele>24.0</ele><time>2026-04-05T16:12:12.73Z</time></trkpt><trkpt lat="45.1523009" lon="10.7721993"><ele>24.0</ele><time>2026-04-05T16:12:15.73Z</time></trkpt><trkpt lat="45.152357" lon="10.7722523"><ele>24.0</ele><time>2026-04-05T16:12:17.732Z</time></trkpt><trkpt lat="45.1524314" lon="10.7723195"><ele>24.0</ele><time>2026-04-05T16:12:20.73Z</time></trkpt><trkpt lat="45.1525183" lon="10.7723115"><ele>24.0</ele><time>2026-04-05T16:12:23.73Z</time></trkpt><trkpt lat="45.1526042" lon="10.7723187"><ele>24.166666666666668</ele><time>2026-04-05T16:12:26.73Z</time></trkpt><trkpt lat="45.1526692" lon="10.7723214"><ele>24.333333333333336</ele><time>2026-04-05T16:12:28.73Z</time></trkpt><trkpt lat="45.152739" lon="10.772349"><ele>24.5</ele><time>2026-04-05T16:12:30.731Z</time></trkpt><trkpt lat="45.152819" lon="10.7723837"><ele>24.666666666666668</ele><time>2026-04-05T16:12:32.731Z</time></trkpt><trkpt lat="45.152906" lon="10.7724087"><ele>24.833333333333336</ele><time>2026-04-05T16:12:34.731Z</time></trkpt><trkpt lat="45.152974" lon="10.7724163"><ele>25.0</ele><time>2026-04-05T16:12:36.732Z</time></trkpt><trkpt lat="45.1530487" lon="10.7724444"><ele>25.000000000000004</ele><time>2026-04-05T16:12:38.732Z</time></trkpt><trkpt lat="45.1531188" lon="10.7724735"><ele>25.0</ele><time>2026-04-05T16:12:40.73Z</time></trkpt><trkpt lat="45.1531891" lon="10.7724934"><ele>25.0</ele><time>2026-04-05T16:12:42.73Z</time></trkpt><trkpt lat="45.1532546" lon="10.7725168"><ele>25.0</ele><time>2026-04-05T16:12:44.729Z</time></trkpt><trkpt lat="45.1533141" lon="10.7725462"><ele>25.0</ele><time>2026-04-05T16:12:46.732Z</time></trkpt><trkpt lat="45.1533775" lon="10.772569"><ele>25.000000000000004</ele><time>2026-04-05T16:12:48.73Z</time></trkpt><trkpt lat="45.1534477" lon="10.7725964"><ele>25.0</ele><time>2026-04-05T16:12:50.73Z</time></trkpt><trkpt lat="45.1535162" lon="10.7726316"><ele>24.833333333333336</ele><time>2026-04-05T16:12:52.731Z</time></trkpt><trkpt lat="45.1535856" lon="10.7726669"><ele>24.666666666666668</ele><time>2026-04-05T16:12:54.73Z</time></trkpt><trkpt lat="45.1536553" lon="10.7726991"><ele>24.5</ele><time>2026-04-05T16:12:56.731Z</time></trkpt><trkpt lat="45.1537334" lon="10.7727495"><ele>24.333333333333336</ele><time>2026-04-05T16:12:58.729Z</time></trkpt><trkpt lat="45.1538156" lon="10.7727969"><ele>24.166666666666668</ele><time>2026-04-05T16:13:00.731Z</time></trkpt><trkpt lat="45.1538913" lon="10.7728424"><ele>24.0</ele><time>2026-04-05T16:13:02.73Z</time></trkpt><trkpt lat="45.1539507" lon="10.7728988"><ele>24.0</ele><time>2026-04-05T16:13:04.73Z</time></trkpt><trkpt lat="45.154008" lon="10.7729377"><ele>24.0</ele><time>2026-04-05T16:13:06.73Z</time></trkpt><trkpt lat="45.154083" lon="10.7729426"><ele>24.0</ele><time>2026-04-05T16:13:09.731Z</time></trkpt><trkpt lat="45.1541209" lon="10.7728571"><ele>24.0</ele><time>2026-04-05T16:13:12.731Z</time></trkpt><trkpt lat="45.154139" lon="10.7727452"><ele>24.0</ele><time>2026-04-05T16:13:15.729Z</time></trkpt><trkpt lat="45.1541618" lon="10.7726316"><ele>24.0</ele><time>2026-04-05T16:13:18.73Z</time></trkpt><trkpt lat="45.1541695" lon="10.7725137"><ele>24.0</ele><time>2026-04-05T16:13:21.731Z</time></trkpt><trkpt lat="45.1541649" lon="10.7723933"><ele>24.0</ele><time>2026-04-05T16:13:24.73Z</time></trkpt><trkpt lat="45.1541481" lon="10.7722834"><ele>24.0</ele><time>2026-04-05T16:13:27.73Z</time></trkpt><trkpt lat="45.15413" lon="10.7721811"><ele>24.0</ele><time>2026-04-05T16:13:31.731Z</time></trkpt><trkpt lat="45.1541259" lon="10.7720809"><ele>24.0</ele><time>2026-04-05T16:13:34.731Z</time></trkpt><trkpt lat="45.1542081" lon="10.7720959"><ele>24.0</ele><time>2026-04-05T16:13:37.729Z</time></trkpt><trkpt lat="45.1542674" lon="10.7721556"><ele>24.0</ele><time>2026-04-05T16:13:40.731Z</time></trkpt><trkpt lat="45.1543176" lon="10.7722245"><ele>24.0</ele><time>2026-04-05T16:13:43.731Z</time></trkpt><trkpt lat="45.154379" lon="10.7721941"><ele>24.0</ele><time>2026-04-05T16:13:46.731Z</time></trkpt><trkpt lat="45.1544344" lon="10.7720946"><ele>24.0</ele><time>2026-04-05T16:13:49.731Z</time></trkpt><trkpt lat="45.154489" lon="10.7719903"><ele>24.0</ele><time>2026-04-05T16:13:52.73Z</time></trkpt><trkpt lat="45.1545318" lon="10.771918"><ele>24.0</ele><time>2026-04-05T16:13:54.731Z</time></trkpt><trkpt lat="45.1545791" lon="10.7718366"><ele>23.833333333333332</ele><time>2026-04-05T16:13:56.73Z</time></trkpt><trkpt lat="45.1546272" lon="10.7717475"><ele>23.666666666666668</ele><time>2026-04-05T16:13:58.73Z</time></trkpt><trkpt lat="45.15468" lon="10.7716503"><ele>23.5</ele><time>2026-04-05T16:14:00.732Z</time></trkpt><trkpt lat="45.1547331" lon="10.7715459"><ele>23.333333333333336</ele><time>2026-04-05T16:14:02.731Z</time></trkpt><trkpt lat="45.1547986" lon="10.7714444"><ele>23.166666666666668</ele><time>2026-04-05T16:14:04.73Z</time></trkpt><trkpt lat="45.1548599" lon="10.7713443"><ele>23.0</ele><time>2026-04-05T16:14:06.73Z</time></trkpt><trkpt lat="45.1549224" lon="10.7712334"><ele>23.4</ele><time>2026-04-05T16:14:08.73Z</time></trkpt><trkpt lat="45.1549843" lon="10.7711254"><ele>23.799999999999997</ele><time>2026-04-05T16:14:10.73Z</time></trkpt><trkpt lat="45.1550483" lon="10.7710059"><ele>24.2</ele><time>2026-04-05T16:14:12.731Z</time></trkpt><trkpt lat="45.1551147" lon="10.770887"><ele>24.6</ele><time>2026-04-05T16:14:14.729Z</time></trkpt><trkpt lat="45.1551841" lon="10.7707719"><ele>25.0</ele><time>2026-04-05T16:14:16.73Z</time></trkpt><trkpt lat="45.1552342" lon="10.7706611"><ele>25.166666666666668</ele><time>2026-04-05T16:14:18.73Z</time></trkpt><trkpt lat="45.1552777" lon="10.7705521"><ele>25.333333333333336</ele><time>2026-04-05T16:14:20.729Z</time></trkpt><trkpt lat="45.1553179" lon="10.77046"><ele>25.5</ele><time>2026-04-05T16:14:22.73Z</time></trkpt><trkpt lat="45.1553505" lon="10.7703476"><ele>25.666666666666664</ele><time>2026-04-05T16:14:25.732Z</time></trkpt><trkpt lat="45.1553824" lon="10.7702246"><ele>25.833333333333332</ele><time>2026-04-05T16:14:28.731Z</time></trkpt><trkpt lat="45.1554015" lon="10.7701311"><ele>26.0</ele><time>2026-04-05T16:14:30.731Z</time></trkpt><trkpt lat="45.1554138" lon="10.7700403"><ele>26.333333333333332</ele><time>2026-04-05T16:14:32.73Z</time></trkpt><trkpt lat="45.1554419" lon="10.7699166"><ele>26.666666666666664</ele><time>2026-04-05T16:14:35.73Z</time></trkpt><trkpt lat="45.1554646" lon="10.769792"><ele>27.0</ele><time>2026-04-05T16:14:38.729Z</time></trkpt><trkpt lat="45.1554805" lon="10.7696922"><ele>27.333333333333336</ele><time>2026-04-05T16:14:41.73Z</time></trkpt><trkpt lat="45.1555552" lon="10.7696211"><ele>27.666666666666668</ele><time>2026-04-05T16:15:09.729Z</time></trkpt><trkpt lat="45.1556091" lon="10.7695434"><ele>28.0</ele><time>2026-04-05T16:15:11.729Z</time></trkpt><trkpt lat="45.1556323" lon="10.7694242"><ele>28.0</ele><time>2026-04-05T16:15:13.731Z</time></trkpt><trkpt lat="45.1556621" lon="10.7692993"><ele>27.999999999999996</ele><time>2026-04-05T16:15:15.73Z</time></trkpt><trkpt lat="45.1557001" lon="10.769175"><ele>27.999999999999996</ele><time>2026-04-05T16:15:17.73Z</time></trkpt><trkpt lat="45.1557133" lon="10.7690459"><ele>28.0</ele><time>2026-04-05T16:15:19.73Z</time></trkpt><trkpt lat="45.155731" lon="10.7689193"><ele>28.0</ele><time>2026-04-05T16:15:21.731Z</time></trkpt><trkpt lat="45.1557439" lon="10.7687956"><ele>28.0</ele><time>2026-04-05T16:15:23.729Z</time></trkpt><trkpt lat="45.1557628" lon="10.7686714"><ele>28.0</ele><time>2026-04-05T16:15:25.729Z</time></trkpt><trkpt lat="45.1557861" lon="10.7685704"><ele>28.0</ele><time>2026-04-05T16:15:27.73Z</time></trkpt><trkpt lat="45.1558034" lon="10.7684774"><ele>28.0</ele><time>2026-04-05T16:15:30.731Z</time></trkpt><trkpt lat="45.1558196" lon="10.7683861"><ele>28.0</ele><time>2026-04-05T16:15:33.73Z</time></trkpt><trkpt lat="45.1558037" lon="10.7684773"><ele>28.0</ele><time>2026-04-05T16:15:40.73Z</time></trkpt><trkpt lat="45.1557981" lon="10.768571"><ele>28.0</ele><time>2026-04-05T16:15:42.728Z</time></trkpt><trkpt lat="45.155773" lon="10.7686633"><ele>28.000000000000004</ele><time>2026-04-05T16:15:44.731Z</time></trkpt><trkpt lat="45.1557467" lon="10.7687544"><ele>28.0</ele><time>2026-04-05T16:15:46.729Z</time></trkpt><trkpt lat="45.1557374" lon="10.7688721"><ele>28.0</ele><time>2026-04-05T16:15:49.729Z</time></trkpt><trkpt lat="45.1557147" lon="10.7689782"><ele>28.0</ele><time>2026-04-05T16:15:52.731Z</time></trkpt><trkpt lat="45.1556941" lon="10.7691099"><ele>28.000000000000004</ele><time>2026-04-05T16:15:55.73Z</time></trkpt><trkpt lat="45.1556808" lon="10.7692185"><ele>28.0</ele><time>2026-04-05T16:15:57.731Z</time></trkpt><trkpt lat="45.1556676" lon="10.7693318"><ele>28.000000000000004</ele><time>2026-04-05T16:15:59.729Z</time></trkpt><trkpt lat="45.1556519" lon="10.7694407"><ele>28.0</ele><time>2026-04-05T16:16:01.729Z</time></trkpt><trkpt lat="45.1556467" lon="10.7695555"><ele>28.0</ele><time>2026-04-05T16:16:03.731Z</time></trkpt><trkpt lat="45.1556549" lon="10.7696746"><ele>28.0</ele><time>2026-04-05T16:16:05.73Z</time></trkpt><trkpt lat="45.155676" lon="10.7697919"><ele>28.000000000000004</ele><time>2026-04-05T16:16:07.729Z</time></trkpt><trkpt lat="45.1556755" lon="10.7699143"><ele>28.0</ele><time>2026-04-05T16:16:09.729Z</time></trkpt><trkpt lat="45.1556596" lon="10.7700398"><ele>28.000000000000004</ele><time>2026-04-05T16:16:11.729Z</time></trkpt><trkpt lat="45.1557038" lon="10.7701545"><ele>28.0</ele><time>2026-04-05T16:16:13.731Z</time></trkpt><trkpt lat="45.1557512" lon="10.7702612"><ele>28.0</ele><time>2026-04-05T16:16:15.73Z</time></trkpt><trkpt lat="45.1558107" lon="10.7703479"><ele>28.0</ele><time>2026-04-05T16:16:17.73Z</time></trkpt><trkpt lat="45.1558892" lon="10.7704136"><ele>28.000000000000004</ele><time>2026-04-05T16:16:19.73Z</time></trkpt><trkpt lat="45.1559645" lon="10.7704847"><ele>28.0</ele><time>2026-04-05T16:16:21.731Z</time></trkpt><trkpt lat="45.1560363" lon="10.7705673"><ele>28.0</ele><time>2026-04-05T16:16:23.729Z</time></trkpt><trkpt lat="45.1561121" lon="10.7706451"><ele>27.999999999999996</ele><time>2026-04-05T16:16:25.729Z</time></trkpt><trkpt lat="45.1561709" lon="10.7707317"><ele>27.999999999999996</ele><time>2026-04-05T16:16:27.73Z</time></trkpt><trkpt lat="45.1561897" lon="10.7708682"><ele>28.0</ele><time>2026-04-05T16:16:29.729Z</time></trkpt><trkpt lat="45.1562056" lon="10.7709885"><ele>28.0</ele><time>2026-04-05T16:16:31.73Z</time></trkpt><trkpt lat="45.1563151" lon="10.7712456"><ele>27.500000000000004</ele><time>2026-04-05T16:16:35.73Z</time></trkpt><trkpt lat="45.1563228" lon="10.7714084"><ele>27.0</ele><time>2026-04-05T16:16:37.73Z</time></trkpt><trkpt lat="45.1563359" lon="10.771538"><ele>26.5</ele><time>2026-04-05T16:16:39.73Z</time></trkpt><trkpt lat="45.1563862" lon="10.7716167"><ele>26.0</ele><time>2026-04-05T16:16:42.731Z</time></trkpt><trkpt lat="45.1564294" lon="10.7717003"><ele>25.500000000000004</ele><time>2026-04-05T16:16:44.73Z</time></trkpt><trkpt lat="45.156431" lon="10.7718108"><ele>25.0</ele><time>2026-04-05T16:16:46.729Z</time></trkpt><trkpt lat="45.1564387" lon="10.7719312"><ele>24.8</ele><time>2026-04-05T16:16:48.73Z</time></trkpt><trkpt lat="45.1564497" lon="10.7720533"><ele>24.6</ele><time>2026-04-05T16:16:50.729Z</time></trkpt><trkpt lat="45.1564959" lon="10.7721657"><ele>24.4</ele><time>2026-04-05T16:16:52.73Z</time></trkpt><trkpt lat="45.1565799" lon="10.7722767"><ele>24.2</ele><time>2026-04-05T16:16:54.729Z</time></trkpt><trkpt lat="45.1566942" lon="10.7723486"><ele>24.0</ele><time>2026-04-05T16:16:56.73Z</time></trkpt><trkpt lat="45.1567658" lon="10.7723829"><ele>24.0</ele><time>2026-04-05T16:16:57.729Z</time></trkpt><trkpt lat="45.1568716" lon="10.7724674"><ele>24.0</ele><time>2026-04-05T16:16:59.728Z</time></trkpt><trkpt lat="45.1569399" lon="10.7726101"><ele>24.0</ele><time>2026-04-05T16:17:01.729Z</time></trkpt><trkpt lat="45.1569958" lon="10.7727445"><ele>24.0</ele><time>2026-04-05T16:17:03.729Z</time></trkpt><trkpt lat="45.1570469" lon="10.7728832"><ele>24.2</ele><time>2026-04-05T16:17:05.731Z</time></trkpt><trkpt lat="45.1571043" lon="10.7730037"><ele>24.4</ele><time>2026-04-05T16:17:07.73Z</time></trkpt><trkpt lat="45.1571851" lon="10.7730907"><ele>24.6</ele><time>2026-04-05T16:17:09.728Z</time></trkpt><trkpt lat="45.1572609" lon="10.7731828"><ele>24.8</ele><time>2026-04-05T16:17:11.73Z</time></trkpt><trkpt lat="45.1573265" lon="10.7733039"><ele>25.0</ele><time>2026-04-05T16:17:13.731Z</time></trkpt><trkpt lat="45.1573488" lon="10.7734344"><ele>25.166666666666668</ele><time>2026-04-05T16:17:15.731Z</time></trkpt><trkpt lat="45.1573238" lon="10.7735702"><ele>25.333333333333336</ele><time>2026-04-05T16:17:17.73Z</time></trkpt><trkpt lat="45.1573419" lon="10.7737019"><ele>25.5</ele><time>2026-04-05T16:17:19.73Z</time></trkpt><trkpt lat="45.1573939" lon="10.7738078"><ele>25.666666666666664</ele><time>2026-04-05T16:17:21.73Z</time></trkpt><trkpt lat="45.1574493" lon="10.7738909"><ele>25.833333333333332</ele><time>2026-04-05T16:17:23.728Z</time></trkpt><trkpt lat="45.1574668" lon="10.773978"><ele>26.0</ele><time>2026-04-05T16:17:25.729Z</time></trkpt><trkpt lat="45.157505" lon="10.7740729"><ele>26.0</ele><time>2026-04-05T16:17:27.729Z</time></trkpt><trkpt lat="45.1574992" lon="10.7741761"><ele>26.0</ele><time>2026-04-05T16:17:29.73Z</time></trkpt><trkpt lat="45.1574489" lon="10.7742787"><ele>26.0</ele><time>2026-04-05T16:17:31.73Z</time></trkpt><trkpt lat="45.1574041" lon="10.7743902"><ele>26.0</ele><time>2026-04-05T16:17:33.729Z</time></trkpt><trkpt lat="45.1573621" lon="10.7745072"><ele>26.0</ele><time>2026-04-05T16:17:35.729Z</time></trkpt><trkpt lat="45.1573128" lon="10.7746837"><ele>25.999999999999996</ele><time>2026-04-05T16:17:38.655Z</time></trkpt><trkpt lat="45.1572837" lon="10.7747679"><ele>26.0</ele><time>2026-04-05T16:17:39.782Z</time></trkpt><trkpt lat="45.1572354" lon="10.7748918"><ele>26.0</ele><time>2026-04-05T16:17:41.729Z</time></trkpt><trkpt lat="45.1572053" lon="10.7750009"><ele>26.0</ele><time>2026-04-05T16:17:43.729Z</time></trkpt><trkpt lat="45.1571786" lon="10.7751066"><ele>25.999999999999996</ele><time>2026-04-05T16:17:45.728Z</time></trkpt><trkpt lat="45.157144" lon="10.7751836"><ele>26.0</ele><time>2026-04-05T16:17:47.728Z</time></trkpt><trkpt lat="45.1571243" lon="10.7752701"><ele>25.833333333333332</ele><time>2026-04-05T16:17:49.728Z</time></trkpt><trkpt lat="45.1570892" lon="10.7753766"><ele>25.666666666666664</ele><time>2026-04-05T16:17:51.729Z</time></trkpt><trkpt lat="45.1570647" lon="10.7754909"><ele>25.5</ele><time>2026-04-05T16:17:53.729Z</time></trkpt><trkpt lat="45.157055" lon="10.7756037"><ele>25.333333333333336</ele><time>2026-04-05T16:17:55.728Z</time></trkpt><trkpt lat="45.157033" lon="10.7757274"><ele>25.166666666666668</ele><time>2026-04-05T16:17:57.729Z</time></trkpt><trkpt lat="45.1569967" lon="10.7758495"><ele>25.0</ele><time>2026-04-05T16:17:59.729Z</time></trkpt><trkpt lat="45.1569594" lon="10.775972"><ele>24.500000000000004</ele><time>2026-04-05T16:18:01.73Z</time></trkpt><trkpt lat="45.1569598" lon="10.7760933"><ele>24.0</ele><time>2026-04-05T16:18:03.729Z</time></trkpt><trkpt lat="45.15698" lon="10.7762119"><ele>23.5</ele><time>2026-04-05T16:18:05.73Z</time></trkpt><trkpt lat="45.1569965" lon="10.7763171"><ele>23.0</ele><time>2026-04-05T16:18:07.729Z</time></trkpt><trkpt lat="45.1570554" lon="10.7763833"><ele>22.5</ele><time>2026-04-05T16:18:09.73Z</time></trkpt><trkpt lat="45.1571048" lon="10.7764736"><ele>22.0</ele><time>2026-04-05T16:18:11.728Z</time></trkpt><trkpt lat="45.1571421" lon="10.776579"><ele>22.0</ele><time>2026-04-05T16:18:13.729Z</time></trkpt><trkpt lat="45.1571553" lon="10.7766991"><ele>22.0</ele><time>2026-04-05T16:18:15.731Z</time></trkpt><trkpt lat="45.1571516" lon="10.7768168"><ele>22.0</ele><time>2026-04-05T16:18:17.73Z</time></trkpt><trkpt lat="45.1571526" lon="10.7769299"><ele>22.0</ele><time>2026-04-05T16:18:19.73Z</time></trkpt><trkpt lat="45.1571447" lon="10.7770447"><ele>22.0</ele><time>2026-04-05T16:18:21.728Z</time></trkpt><trkpt lat="45.1571224" lon="10.7771578"><ele>22.0</ele><time>2026-04-05T16:18:23.73Z</time></trkpt><trkpt lat="45.1571525" lon="10.7772722"><ele>22.0</ele><time>2026-04-05T16:18:25.729Z</time></trkpt><trkpt lat="45.1571906" lon="10.7773787"><ele>22.0</ele><time>2026-04-05T16:18:27.729Z</time></trkpt><trkpt lat="45.1572397" lon="10.7774754"><ele>22.0</ele><time>2026-04-05T16:18:29.73Z</time></trkpt><trkpt lat="45.1572789" lon="10.7775782"><ele>22.0</ele><time>2026-04-05T16:18:31.729Z</time></trkpt><trkpt lat="45.1573245" lon="10.7776807"><ele>22.0</ele><time>2026-04-05T16:18:33.728Z</time></trkpt><trkpt lat="45.1573917" lon="10.7777661"><ele>22.0</ele><time>2026-04-05T16:18:35.729Z</time></trkpt><trkpt lat="45.1574508" lon="10.7778577"><ele>22.0</ele><time>2026-04-05T16:18:37.73Z</time></trkpt><trkpt lat="45.1574795" lon="10.7779745"><ele>22.0</ele><time>2026-04-05T16:18:39.728Z</time></trkpt><trkpt lat="45.1575188" lon="10.7780706"><ele>22.0</ele><time>2026-04-05T16:18:41.728Z</time></trkpt><trkpt lat="45.1575463" lon="10.7781817"><ele>22.0</ele><time>2026-04-05T16:18:43.728Z</time></trkpt><trkpt lat="45.157598" lon="10.7782809"><ele>22.0</ele><time>2026-04-05T16:18:45.728Z</time></trkpt><trkpt lat="45.1576499" lon="10.7783771"><ele>22.0</ele><time>2026-04-05T16:18:47.73Z</time></trkpt><trkpt lat="45.1576875" lon="10.7784805"><ele>21.666666666666664</ele><time>2026-04-05T16:18:49.73Z</time></trkpt><trkpt lat="45.1577235" lon="10.7785773"><ele>21.333333333333332</ele><time>2026-04-05T16:18:51.728Z</time></trkpt><trkpt lat="45.1577605" lon="10.7786793"><ele>21.0</ele><time>2026-04-05T16:18:53.728Z</time></trkpt><trkpt lat="45.1577868" lon="10.7787892"><ele>20.666666666666668</ele><time>2026-04-05T16:18:55.729Z</time></trkpt><trkpt lat="45.1577968" lon="10.7788957"><ele>20.333333333333336</ele><time>2026-04-05T16:18:57.728Z</time></trkpt><trkpt lat="45.1578206" lon="10.7789899"><ele>20.0</ele><time>2026-04-05T16:18:59.728Z</time></trkpt><trkpt lat="45.1578786" lon="10.7790664"><ele>20.0</ele><time>2026-04-05T16:19:01.729Z</time></trkpt><trkpt lat="45.157945" lon="10.7791431"><ele>20.0</ele><time>2026-04-05T16:19:03.73Z</time></trkpt><trkpt lat="45.1579968" lon="10.7792409"><ele>20.0</ele><time>2026-04-05T16:19:05.729Z</time></trkpt><trkpt lat="45.1580533" lon="10.7793354"><ele>20.0</ele><time>2026-04-05T16:19:07.729Z</time></trkpt><trkpt lat="45.1581123" lon="10.7794107"><ele>20.0</ele><time>2026-04-05T16:19:09.728Z</time></trkpt><trkpt lat="45.1581819" lon="10.7795847"><ele>20.0</ele><time>2026-04-05T16:19:13.655Z</time></trkpt><trkpt lat="45.1581955" lon="10.7796731"><ele>20.0</ele><time>2026-04-05T16:19:14.728Z</time></trkpt><trkpt lat="45.1582126" lon="10.7797821"><ele>20.0</ele><time>2026-04-05T16:19:16.73Z</time></trkpt><trkpt lat="45.158243" lon="10.7798825"><ele>20.0</ele><time>2026-04-05T16:19:18.729Z</time></trkpt><trkpt lat="45.1582866" lon="10.7799822"><ele>20.0</ele><time>2026-04-05T16:19:20.73Z</time></trkpt><trkpt lat="45.1583285" lon="10.7800875"><ele>20.0</ele><time>2026-04-05T16:19:22.729Z</time></trkpt><trkpt lat="45.1583521" lon="10.7802022"><ele>19.833333333333336</ele><time>2026-04-05T16:19:24.729Z</time></trkpt><trkpt lat="45.1583764" lon="10.7803181"><ele>19.666666666666668</ele><time>2026-04-05T16:19:26.729Z</time></trkpt><trkpt lat="45.1584058" lon="10.7804369"><ele>19.5</ele><time>2026-04-05T16:19:28.729Z</time></trkpt><trkpt lat="45.1584362" lon="10.7805539"><ele>19.333333333333332</ele><time>2026-04-05T16:19:30.729Z</time></trkpt><trkpt lat="45.1584621" lon="10.7806677"><ele>19.166666666666664</ele><time>2026-04-05T16:19:32.729Z</time></trkpt><trkpt lat="45.158488" lon="10.7807862"><ele>19.0</ele><time>2026-04-05T16:19:34.729Z</time></trkpt><trkpt lat="45.1585134" lon="10.7809017"><ele>19.5</ele><time>2026-04-05T16:19:36.728Z</time></trkpt><trkpt lat="45.1585298" lon="10.7810225"><ele>20.0</ele><time>2026-04-05T16:19:38.73Z</time></trkpt><trkpt lat="45.158563" lon="10.7811488"><ele>20.5</ele><time>2026-04-05T16:19:40.729Z</time></trkpt><trkpt lat="45.1586008" lon="10.7812224"><ele>21.0</ele><time>2026-04-05T16:19:42.73Z</time></trkpt><trkpt lat="45.1586316" lon="10.7813156"><ele>21.5</ele><time>2026-04-05T16:19:44.729Z</time></trkpt><trkpt lat="45.1586814" lon="10.7814015"><ele>22.0</ele><time>2026-04-05T16:19:46.728Z</time></trkpt><trkpt lat="45.1587246" lon="10.7814862"><ele>22.0</ele><time>2026-04-05T16:19:48.729Z</time></trkpt><trkpt lat="45.1587732" lon="10.781565"><ele>22.0</ele><time>2026-04-05T16:19:50.727Z</time></trkpt><trkpt lat="45.1588235" lon="10.7816527"><ele>22.0</ele><time>2026-04-05T16:19:52.729Z</time></trkpt><trkpt lat="45.1588681" lon="10.7817459"><ele>22.0</ele><time>2026-04-05T16:19:54.728Z</time></trkpt><trkpt lat="45.1589048" lon="10.7818375"><ele>22.0</ele><time>2026-04-05T16:19:56.729Z</time></trkpt><trkpt lat="45.1589485" lon="10.7819283"><ele>22.0</ele><time>2026-04-05T16:19:58.729Z</time></trkpt><trkpt lat="45.1589836" lon="10.7820211"><ele>22.166666666666664</ele><time>2026-04-05T16:20:00.729Z</time></trkpt><trkpt lat="45.1590299" lon="10.7821134"><ele>22.333333333333332</ele><time>2026-04-05T16:20:02.729Z</time></trkpt><trkpt lat="45.1590805" lon="10.7822138"><ele>22.5</ele><time>2026-04-05T16:20:04.729Z</time></trkpt><trkpt lat="45.1591203" lon="10.7823148"><ele>22.666666666666668</ele><time>2026-04-05T16:20:06.729Z</time></trkpt><trkpt lat="45.1591569" lon="10.782411"><ele>22.833333333333336</ele><time>2026-04-05T16:20:08.729Z</time></trkpt><trkpt lat="45.1592021" lon="10.782508"><ele>23.0</ele><time>2026-04-05T16:20:10.73Z</time></trkpt><trkpt lat="45.1592469" lon="10.7826041"><ele>22.666666666666668</ele><time>2026-04-05T16:20:12.728Z</time></trkpt><trkpt lat="45.1592948" lon="10.7826938"><ele>22.333333333333336</ele><time>2026-04-05T16:20:14.729Z</time></trkpt><trkpt lat="45.1593399" lon="10.7827813"><ele>22.0</ele><time>2026-04-05T16:20:16.73Z</time></trkpt><trkpt lat="45.1593804" lon="10.7828788"><ele>21.666666666666668</ele><time>2026-04-05T16:20:18.729Z</time></trkpt><trkpt lat="45.1594217" lon="10.7829703"><ele>21.333333333333332</ele><time>2026-04-05T16:20:20.729Z</time></trkpt><trkpt lat="45.1594697" lon="10.7830657"><ele>21.0</ele><time>2026-04-05T16:20:22.729Z</time></trkpt><trkpt lat="45.1595102" lon="10.7831652"><ele>21.0</ele><time>2026-04-05T16:20:24.729Z</time></trkpt><trkpt lat="45.1595643" lon="10.783273"><ele>21.0</ele><time>2026-04-05T16:20:26.73Z</time></trkpt><trkpt lat="45.1596123" lon="10.7833663"><ele>21.0</ele><time>2026-04-05T16:20:28.728Z</time></trkpt><trkpt lat="45.1596596" lon="10.7834677"><ele>21.0</ele><time>2026-04-05T16:20:30.729Z</time></trkpt><trkpt lat="45.1597061" lon="10.7835714"><ele>21.0</ele><time>2026-04-05T16:20:32.729Z</time></trkpt><trkpt lat="45.1597437" lon="10.7836789"><ele>21.0</ele><time>2026-04-05T16:20:34.727Z</time></trkpt><trkpt lat="45.1597802" lon="10.7837846"><ele>21.0</ele><time>2026-04-05T16:20:36.728Z</time></trkpt><trkpt lat="45.1598197" lon="10.7838908"><ele>21.0</ele><time>2026-04-05T16:20:38.727Z</time></trkpt><trkpt lat="45.1598596" lon="10.7839983"><ele>21.0</ele><time>2026-04-05T16:20:40.727Z</time></trkpt><trkpt lat="45.1598975" lon="10.7841076"><ele>21.0</ele><time>2026-04-05T16:20:42.728Z</time></trkpt><trkpt lat="45.1599325" lon="10.7842112"><ele>21.0</ele><time>2026-04-05T16:20:44.729Z</time></trkpt><trkpt lat="45.1599687" lon="10.7843114"><ele>21.0</ele><time>2026-04-05T16:20:46.729Z</time></trkpt><trkpt lat="45.1600101" lon="10.7844077"><ele>20.5</ele><time>2026-04-05T16:20:48.727Z</time></trkpt><trkpt lat="45.1600529" lon="10.7845048"><ele>20.0</ele><time>2026-04-05T16:20:50.728Z</time></trkpt><trkpt lat="45.1600995" lon="10.7846095"><ele>19.5</ele><time>2026-04-05T16:20:52.729Z</time></trkpt><trkpt lat="45.160147" lon="10.7847168"><ele>19.0</ele><time>2026-04-05T16:20:54.727Z</time></trkpt><trkpt lat="45.1601826" lon="10.7848205"><ele>18.5</ele><time>2026-04-05T16:20:56.729Z</time></trkpt><trkpt lat="45.1602188" lon="10.7849209"><ele>18.0</ele><time>2026-04-05T16:20:58.728Z</time></trkpt><trkpt lat="45.1602667" lon="10.7850213"><ele>18.0</ele><time>2026-04-05T16:21:00.728Z</time></trkpt><trkpt lat="45.1603109" lon="10.7851222"><ele>18.0</ele><time>2026-04-05T16:21:02.729Z</time></trkpt><trkpt lat="45.1603587" lon="10.7852175"><ele>18.0</ele><time>2026-04-05T16:21:04.729Z</time></trkpt><trkpt lat="45.1604026" lon="10.7853112"><ele>18.0</ele><time>2026-04-05T16:21:06.729Z</time></trkpt><trkpt lat="45.1604425" lon="10.7854013"><ele>18.0</ele><time>2026-04-05T16:21:08.729Z</time></trkpt><trkpt lat="45.1604847" lon="10.7854819"><ele>18.0</ele><time>2026-04-05T16:21:10.729Z</time></trkpt><trkpt lat="45.1605314" lon="10.7855538"><ele>18.142857142857146</ele><time>2026-04-05T16:21:12.728Z</time></trkpt><trkpt lat="45.1605653" lon="10.7856406"><ele>18.285714285714285</ele><time>2026-04-05T16:21:14.729Z</time></trkpt><trkpt lat="45.1605896" lon="10.7857367"><ele>18.42857142857143</ele><time>2026-04-05T16:21:16.729Z</time></trkpt><trkpt lat="45.1606348" lon="10.785818"><ele>18.571428571428573</ele><time>2026-04-05T16:21:18.728Z</time></trkpt><trkpt lat="45.1606968" lon="10.7858788"><ele>18.714285714285715</ele><time>2026-04-05T16:21:20.729Z</time></trkpt><trkpt lat="45.1607736" lon="10.7858934"><ele>18.857142857142858</ele><time>2026-04-05T16:21:22.727Z</time></trkpt><trkpt lat="45.1608422" lon="10.7858784"><ele>19.0</ele><time>2026-04-05T16:21:24.728Z</time></trkpt><trkpt lat="45.1609134" lon="10.7858908"><ele>19.142857142857142</ele><time>2026-04-05T16:21:26.729Z</time></trkpt><trkpt lat="45.1609873" lon="10.785921"><ele>19.28571428571429</ele><time>2026-04-05T16:21:28.728Z</time></trkpt><trkpt lat="45.1610515" lon="10.7859685"><ele>19.42857142857143</ele><time>2026-04-05T16:21:30.728Z</time></trkpt><trkpt lat="45.161119" lon="10.7860128"><ele>19.57142857142857</ele><time>2026-04-05T16:21:32.728Z</time></trkpt><trkpt lat="45.1611921" lon="10.7860345"><ele>19.714285714285715</ele><time>2026-04-05T16:21:34.729Z</time></trkpt><trkpt lat="45.1612661" lon="10.7860546"><ele>19.857142857142858</ele><time>2026-04-05T16:21:36.727Z</time></trkpt><trkpt lat="45.161332" lon="10.7860881"><ele>20.0</ele><time>2026-04-05T16:21:38.727Z</time></trkpt><trkpt lat="45.1613984" lon="10.7861297"><ele>20.0</ele><time>2026-04-05T16:21:40.727Z</time></trkpt><trkpt lat="45.1614708" lon="10.7861562"><ele>20.0</ele><time>2026-04-05T16:21:42.728Z</time></trkpt><trkpt lat="45.1615465" lon="10.7861834"><ele>20.0</ele><time>2026-04-05T16:21:44.727Z</time></trkpt><trkpt lat="45.1616257" lon="10.7862124"><ele>20.0</ele><time>2026-04-05T16:21:46.728Z</time></trkpt><trkpt lat="45.1617075" lon="10.7862483"><ele>20.0</ele><time>2026-04-05T16:21:48.728Z</time></trkpt><trkpt lat="45.16179" lon="10.7862932"><ele>20.0</ele><time>2026-04-05T16:21:50.729Z</time></trkpt><trkpt lat="45.1618612" lon="10.7863319"><ele>19.833333333333336</ele><time>2026-04-05T16:21:52.729Z</time></trkpt><trkpt lat="45.1619167" lon="10.7863771"><ele>19.666666666666668</ele><time>2026-04-05T16:21:54.729Z</time></trkpt><trkpt lat="45.1619777" lon="10.7864334"><ele>19.5</ele><time>2026-04-05T16:21:56.728Z</time></trkpt><trkpt lat="45.162042" lon="10.7865002"><ele>19.333333333333332</ele><time>2026-04-05T16:21:58.729Z</time></trkpt><trkpt lat="45.1621028" lon="10.7865747"><ele>19.166666666666664</ele><time>2026-04-05T16:22:00.727Z</time></trkpt><trkpt lat="45.162155" lon="10.7866536"><ele>19.0</ele><time>2026-04-05T16:22:02.729Z</time></trkpt><trkpt lat="45.1622016" lon="10.7867419"><ele>19.0</ele><time>2026-04-05T16:22:04.729Z</time></trkpt><trkpt lat="45.1622561" lon="10.7868292"><ele>19.0</ele><time>2026-04-05T16:22:06.729Z</time></trkpt><trkpt lat="45.1623092" lon="10.7869166"><ele>19.0</ele><time>2026-04-05T16:22:08.73Z</time></trkpt><trkpt lat="45.162357" lon="10.7870071"><ele>19.0</ele><time>2026-04-05T16:22:10.727Z</time></trkpt><trkpt lat="45.162408" lon="10.7870957"><ele>19.0</ele><time>2026-04-05T16:22:12.729Z</time></trkpt><trkpt lat="45.1624666" lon="10.7871743"><ele>19.0</ele><time>2026-04-05T16:22:14.727Z</time></trkpt><trkpt lat="45.1625244" lon="10.7872562"><ele>19.333333333333332</ele><time>2026-04-05T16:22:16.729Z</time></trkpt><trkpt lat="45.1625875" lon="10.7873433"><ele>19.666666666666664</ele><time>2026-04-05T16:22:18.727Z</time></trkpt><trkpt lat="45.1626411" lon="10.7874204"><ele>20.0</ele><time>2026-04-05T16:22:20.727Z</time></trkpt><trkpt lat="45.1627019" lon="10.7875002"><ele>20.333333333333332</ele><time>2026-04-05T16:22:22.728Z</time></trkpt><trkpt lat="45.16276" lon="10.7875806"><ele>20.666666666666668</ele><time>2026-04-05T16:22:24.727Z</time></trkpt><trkpt lat="45.1628262" lon="10.7876342"><ele>21.0</ele><time>2026-04-05T16:22:26.729Z</time></trkpt><trkpt lat="45.1629026" lon="10.7876659"><ele>21.0</ele><time>2026-04-05T16:22:28.728Z</time></trkpt><trkpt lat="45.1629803" lon="10.787685"><ele>21.0</ele><time>2026-04-05T16:22:30.728Z</time></trkpt><trkpt lat="45.1630589" lon="10.7877108"><ele>21.0</ele><time>2026-04-05T16:22:32.728Z</time></trkpt><trkpt lat="45.1631334" lon="10.7877353"><ele>21.0</ele><time>2026-04-05T16:22:34.729Z</time></trkpt><trkpt lat="45.1632119" lon="10.7877667"><ele>21.0</ele><time>2026-04-05T16:22:36.729Z</time></trkpt><trkpt lat="45.1632863" lon="10.7877996"><ele>21.0</ele><time>2026-04-05T16:22:38.728Z</time></trkpt><trkpt lat="45.1633591" lon="10.7878291"><ele>21.142857142857142</ele><time>2026-04-05T16:22:40.729Z</time></trkpt><trkpt lat="45.1634307" lon="10.7878595"><ele>21.285714285714285</ele><time>2026-04-05T16:22:42.727Z</time></trkpt><trkpt lat="45.1634968" lon="10.7878672"><ele>21.42857142857143</ele><time>2026-04-05T16:22:44.729Z</time></trkpt><trkpt lat="45.1635681" lon="10.7878496"><ele>21.57142857142857</ele><time>2026-04-05T16:22:46.729Z</time></trkpt><trkpt lat="45.1636417" lon="10.7878588"><ele>21.714285714285715</ele><time>2026-04-05T16:22:48.728Z</time></trkpt><trkpt lat="45.1637081" lon="10.7878672"><ele>21.857142857142858</ele><time>2026-04-05T16:22:50.728Z</time></trkpt><trkpt lat="45.1637751" lon="10.7878749"><ele>22.0</ele><time>2026-04-05T16:22:52.728Z</time></trkpt><trkpt lat="45.1638592" lon="10.7878734"><ele>22.0</ele><time>2026-04-05T16:22:55.728Z</time></trkpt><trkpt lat="45.1639282" lon="10.7878865"><ele>22.0</ele><time>2026-04-05T16:22:58.728Z</time></trkpt><trkpt lat="45.1640064" lon="10.7878712"><ele>22.0</ele><time>2026-04-05T16:23:01.729Z</time></trkpt><trkpt lat="45.1640824" lon="10.7878912"><ele>22.0</ele><time>2026-04-05T16:23:04.729Z</time></trkpt><trkpt lat="45.1641555" lon="10.7879258"><ele>22.0</ele><time>2026-04-05T16:23:07.728Z</time></trkpt><trkpt lat="45.1642187" lon="10.7879304"><ele>22.0</ele><time>2026-04-05T16:23:11.728Z</time></trkpt><trkpt lat="45.164287" lon="10.7879195"><ele>22.0</ele><time>2026-04-05T16:23:14.727Z</time></trkpt><trkpt lat="45.1643602" lon="10.7879198"><ele>21.5</ele><time>2026-04-05T16:23:16.729Z</time></trkpt><trkpt lat="45.164431" lon="10.7879613"><ele>21.0</ele><time>2026-04-05T16:23:18.728Z</time></trkpt><trkpt lat="45.1645103" lon="10.7879832"><ele>20.5</ele><time>2026-04-05T16:23:20.728Z</time></trkpt><trkpt lat="45.164591" lon="10.787983"><ele>20.0</ele><time>2026-04-05T16:23:22.729Z</time></trkpt><trkpt lat="45.1646667" lon="10.7879795"><ele>19.5</ele><time>2026-04-05T16:23:24.727Z</time></trkpt><trkpt lat="45.1647399" lon="10.7879686"><ele>19.0</ele><time>2026-04-05T16:23:26.729Z</time></trkpt><trkpt lat="45.1648189" lon="10.7879574"><ele>18.333333333333332</ele><time>2026-04-05T16:23:28.728Z</time></trkpt><trkpt lat="45.1648985" lon="10.7879468"><ele>17.666666666666664</ele><time>2026-04-05T16:23:30.727Z</time></trkpt><trkpt lat="45.1649683" lon="10.7879714"><ele>17.0</ele><time>2026-04-05T16:23:32.728Z</time></trkpt><trkpt lat="45.1650302" lon="10.7880002"><ele>16.333333333333332</ele><time>2026-04-05T16:23:34.728Z</time></trkpt><trkpt lat="45.1651117" lon="10.7880025"><ele>15.666666666666666</ele><time>2026-04-05T16:23:36.729Z</time></trkpt><trkpt lat="45.1651957" lon="10.7879946"><ele>15.0</ele><time>2026-04-05T16:23:38.727Z</time></trkpt><trkpt lat="45.1652809" lon="10.7879718"><ele>15.0</ele><time>2026-04-05T16:23:40.726Z</time></trkpt><trkpt lat="45.1653659" lon="10.7879744"><ele>15.0</ele><time>2026-04-05T16:23:42.728Z</time></trkpt><trkpt lat="45.1654494" lon="10.787982"><ele>15.0</ele><time>2026-04-05T16:23:44.728Z</time></trkpt><trkpt lat="45.1655416" lon="10.7879664"><ele>15.0</ele><time>2026-04-05T16:23:46.727Z</time></trkpt><trkpt lat="45.165632" lon="10.7879577"><ele>15.0</ele><time>2026-04-05T16:23:48.728Z</time></trkpt><trkpt lat="45.165715" lon="10.7879481"><ele>15.0</ele><time>2026-04-05T16:23:50.728Z</time></trkpt><trkpt lat="45.1657985" lon="10.7879296"><ele>15.0</ele><time>2026-04-05T16:23:52.727Z</time></trkpt><trkpt lat="45.1658839" lon="10.7879178"><ele>15.0</ele><time>2026-04-05T16:23:54.727Z</time></trkpt><trkpt lat="45.1659694" lon="10.7878986"><ele>15.0</ele><time>2026-04-05T16:23:56.727Z</time></trkpt><trkpt lat="45.1660541" lon="10.7878683"><ele>15.0</ele><time>2026-04-05T16:23:58.726Z</time></trkpt><trkpt lat="45.1661317" lon="10.7878202"><ele>15.0</ele><time>2026-04-05T16:24:00.728Z</time></trkpt><trkpt lat="45.1662061" lon="10.7877676"><ele>15.0</ele><time>2026-04-05T16:24:02.728Z</time></trkpt><trkpt lat="45.1662898" lon="10.787756"><ele>15.0</ele><time>2026-04-05T16:24:04.727Z</time></trkpt><trkpt lat="45.1663619" lon="10.7877358"><ele>15.0</ele><time>2026-04-05T16:24:08.729Z</time></trkpt><trkpt lat="45.1664308" lon="10.7877046"><ele>15.0</ele><time>2026-04-05T16:24:11.727Z</time></trkpt><trkpt lat="45.166508" lon="10.7876848"><ele>15.0</ele><time>2026-04-05T16:24:13.729Z</time></trkpt><trkpt lat="45.1665941" lon="10.7876644"><ele>15.0</ele><time>2026-04-05T16:24:15.728Z</time></trkpt><trkpt lat="45.1666884" lon="10.7876456"><ele>15.0</ele><time>2026-04-05T16:24:17.728Z</time></trkpt><trkpt lat="45.1667786" lon="10.7876256"><ele>15.0</ele><time>2026-04-05T16:24:19.727Z</time></trkpt><trkpt lat="45.1668704" lon="10.7875958"><ele>15.0</ele><time>2026-04-05T16:24:21.727Z</time></trkpt><trkpt lat="45.1669682" lon="10.7875745"><ele>15.0</ele><time>2026-04-05T16:24:23.727Z</time></trkpt><trkpt lat="45.1670675" lon="10.7875464"><ele>15.0</ele><time>2026-04-05T16:24:25.727Z</time></trkpt><trkpt lat="45.1671604" lon="10.7875154"><ele>15.0</ele><time>2026-04-05T16:24:27.727Z</time></trkpt><trkpt lat="45.1672592" lon="10.7874896"><ele>15.0</ele><time>2026-04-05T16:24:29.727Z</time></trkpt><trkpt lat="45.1673528" lon="10.787457"><ele>15.0</ele><time>2026-04-05T16:24:31.727Z</time></trkpt><trkpt lat="45.1674499" lon="10.7874338"><ele>15.0</ele><time>2026-04-05T16:24:33.726Z</time></trkpt><trkpt lat="45.1675471" lon="10.7874128"><ele>15.0</ele><time>2026-04-05T16:24:35.726Z</time></trkpt><trkpt lat="45.1676432" lon="10.7873907"><ele>15.0</ele><time>2026-04-05T16:24:37.727Z</time></trkpt><trkpt lat="45.1677354" lon="10.7873704"><ele>15.0</ele><time>2026-04-05T16:24:39.727Z</time></trkpt><trkpt lat="45.1678209" lon="10.7873703"><ele>15.0</ele><time>2026-04-05T16:24:41.727Z</time></trkpt><trkpt lat="45.1678954" lon="10.7873728"><ele>15.0</ele><time>2026-04-05T16:24:44.728Z</time></trkpt><trkpt lat="45.1679694" lon="10.7873666"><ele>15.0</ele><time>2026-04-05T16:24:49.728Z</time></trkpt><trkpt lat="45.1680367" lon="10.7873172"><ele>15.0</ele><time>2026-04-05T16:24:53.728Z</time></trkpt><trkpt lat="45.1681138" lon="10.7873375"><ele>15.0</ele><time>2026-04-05T16:24:55.727Z</time></trkpt><trkpt lat="45.1681974" lon="10.787345"><ele>15.0</ele><time>2026-04-05T16:24:57.726Z</time></trkpt><trkpt lat="45.168264" lon="10.7873274"><ele>15.0</ele><time>2026-04-05T16:24:59.728Z</time></trkpt><trkpt lat="45.1683563" lon="10.7873359"><ele>15.0</ele><time>2026-04-05T16:25:02.726Z</time></trkpt><trkpt lat="45.1684359" lon="10.7873205"><ele>15.0</ele><time>2026-04-05T16:25:04.728Z</time></trkpt><trkpt lat="45.1685172" lon="10.7872987"><ele>15.0</ele><time>2026-04-05T16:25:06.727Z</time></trkpt><trkpt lat="45.1685937" lon="10.7872725"><ele>15.0</ele><time>2026-04-05T16:25:08.726Z</time></trkpt><trkpt lat="45.1686577" lon="10.7872643"><ele>15.0</ele><time>2026-04-05T16:25:10.727Z</time></trkpt><trkpt lat="45.1687528" lon="10.7872486"><ele>15.0</ele><time>2026-04-05T16:25:13.728Z</time></trkpt><trkpt lat="45.1688275" lon="10.7872226"><ele>15.0</ele><time>2026-04-05T16:25:15.727Z</time></trkpt><trkpt lat="45.1689112" lon="10.7872267"><ele>15.0</ele><time>2026-04-05T16:25:17.727Z</time></trkpt><trkpt lat="45.168997" lon="10.7872094"><ele>15.0</ele><time>2026-04-05T16:25:19.729Z</time></trkpt><trkpt lat="45.1690786" lon="10.7871887"><ele>15.0</ele><time>2026-04-05T16:25:21.728Z</time></trkpt><trkpt lat="45.1691656" lon="10.7871667"><ele>15.0</ele><time>2026-04-05T16:25:23.726Z</time></trkpt><trkpt lat="45.1692529" lon="10.7871396"><ele>15.0</ele><time>2026-04-05T16:25:25.727Z</time></trkpt><trkpt lat="45.169342" lon="10.7871091"><ele>15.0</ele><time>2026-04-05T16:25:27.727Z</time></trkpt><trkpt lat="45.1694336" lon="10.787082"><ele>15.0</ele><time>2026-04-05T16:25:29.728Z</time></trkpt><trkpt lat="45.1695263" lon="10.787051"><ele>15.0</ele><time>2026-04-05T16:25:31.727Z</time></trkpt><trkpt lat="45.1696197" lon="10.7870226"><ele>15.0</ele><time>2026-04-05T16:25:33.728Z</time></trkpt><trkpt lat="45.1697066" lon="10.7869962"><ele>15.0</ele><time>2026-04-05T16:25:35.727Z</time></trkpt><trkpt lat="45.1698003" lon="10.7869666"><ele>15.0</ele><time>2026-04-05T16:25:37.727Z</time></trkpt><trkpt lat="45.1698918" lon="10.7869283"><ele>15.0</ele><time>2026-04-05T16:25:39.729Z</time></trkpt><trkpt lat="45.1699653" lon="10.7868994"><ele>15.0</ele><time>2026-04-05T16:25:41.726Z</time></trkpt><trkpt lat="45.1700446" lon="10.7868644"><ele>15.0</ele><time>2026-04-05T16:25:44.726Z</time></trkpt><trkpt lat="45.1701335" lon="10.7868259"><ele>15.166666666666666</ele><time>2026-04-05T16:25:47.729Z</time></trkpt><trkpt lat="45.1702167" lon="10.7867937"><ele>15.333333333333332</ele><time>2026-04-05T16:25:49.727Z</time></trkpt><trkpt lat="45.1702938" lon="10.7867687"><ele>15.5</ele><time>2026-04-05T16:25:51.728Z</time></trkpt><trkpt lat="45.1703663" lon="10.7867393"><ele>15.666666666666666</ele><time>2026-04-05T16:25:53.727Z</time></trkpt><trkpt lat="45.1704347" lon="10.7867123"><ele>15.833333333333332</ele><time>2026-04-05T16:25:55.728Z</time></trkpt><trkpt lat="45.1704992" lon="10.7866885"><ele>16.0</ele><time>2026-04-05T16:25:57.727Z</time></trkpt><trkpt lat="45.1705905" lon="10.7866533"><ele>16.0</ele><time>2026-04-05T16:26:00.726Z</time></trkpt><trkpt lat="45.1706711" lon="10.7866254"><ele>16.0</ele><time>2026-04-05T16:26:02.728Z</time></trkpt><trkpt lat="45.1707605" lon="10.7866269"><ele>16.0</ele><time>2026-04-05T16:26:04.726Z</time></trkpt><trkpt lat="45.170855" lon="10.7866658"><ele>16.0</ele><time>2026-04-05T16:26:06.727Z</time></trkpt><trkpt lat="45.1709582" lon="10.7866547"><ele>16.0</ele><time>2026-04-05T16:26:08.728Z</time></trkpt><trkpt lat="45.1710623" lon="10.7866351"><ele>16.6</ele><time>2026-04-05T16:26:10.726Z</time></trkpt><trkpt lat="45.1711528" lon="10.7865882"><ele>17.200000000000003</ele><time>2026-04-05T16:26:12.729Z</time></trkpt><trkpt lat="45.1712181" lon="10.7864825"><ele>17.799999999999997</ele><time>2026-04-05T16:26:14.73Z</time></trkpt><trkpt lat="45.1712288" lon="10.786359"><ele>18.4</ele><time>2026-04-05T16:26:16.728Z</time></trkpt><trkpt lat="45.1712179" lon="10.7862276"><ele>19.0</ele><time>2026-04-05T16:26:19.727Z</time></trkpt><trkpt lat="45.171223" lon="10.7861026"><ele>19.0</ele><time>2026-04-05T16:26:21.727Z</time></trkpt><trkpt lat="45.1712189" lon="10.7859725"><ele>19.0</ele><time>2026-04-05T16:26:23.727Z</time></trkpt><trkpt lat="45.1712197" lon="10.7858416"><ele>19.0</ele><time>2026-04-05T16:26:25.727Z</time></trkpt><trkpt lat="45.1712328" lon="10.7856864"><ele>19.0</ele><time>2026-04-05T16:26:27.727Z</time></trkpt><trkpt lat="45.1712317" lon="10.7855514"><ele>19.0</ele><time>2026-04-05T16:26:29.727Z</time></trkpt><trkpt lat="45.1712366" lon="10.7854161"><ele>19.0</ele><time>2026-04-05T16:26:31.727Z</time></trkpt><trkpt lat="45.1712359" lon="10.7852857"><ele>19.0</ele><time>2026-04-05T16:26:33.727Z</time></trkpt><trkpt lat="45.1712457" lon="10.785169"><ele>19.0</ele><time>2026-04-05T16:26:35.727Z</time></trkpt><trkpt lat="45.1712835" lon="10.7850947"><ele>19.0</ele><time>2026-04-05T16:26:37.728Z</time></trkpt><trkpt lat="45.1713539" lon="10.7850934"><ele>19.0</ele><time>2026-04-05T16:26:39.728Z</time></trkpt><trkpt lat="45.1714221" lon="10.7850843"><ele>19.0</ele><time>2026-04-05T16:26:41.726Z</time></trkpt><trkpt lat="45.1714982" lon="10.7850737"><ele>19.166666666666664</ele><time>2026-04-05T16:26:45.726Z</time></trkpt><trkpt lat="45.1715622" lon="10.7850611"><ele>19.333333333333332</ele><time>2026-04-05T16:26:49.727Z</time></trkpt><trkpt lat="45.1716251" lon="10.7850346"><ele>19.5</ele><time>2026-04-05T16:26:52.728Z</time></trkpt><trkpt lat="45.1716887" lon="10.7850072"><ele>19.666666666666668</ele><time>2026-04-05T16:26:54.727Z</time></trkpt><trkpt lat="45.1717635" lon="10.784976"><ele>19.833333333333336</ele><time>2026-04-05T16:26:56.728Z</time></trkpt><trkpt lat="45.1718566" lon="10.7849621"><ele>20.0</ele><time>2026-04-05T16:26:58.726Z</time></trkpt><trkpt lat="45.1719469" lon="10.7849567"><ele>20.0</ele><time>2026-04-05T16:27:00.727Z</time></trkpt><trkpt lat="45.1720417" lon="10.7849671"><ele>20.0</ele><time>2026-04-05T16:27:02.727Z</time></trkpt><trkpt lat="45.1721317" lon="10.7849591"><ele>20.0</ele><time>2026-04-05T16:27:04.727Z</time></trkpt><trkpt lat="45.1722288" lon="10.7849483"><ele>20.0</ele><time>2026-04-05T16:27:06.728Z</time></trkpt><trkpt lat="45.1723332" lon="10.7849339"><ele>20.0</ele><time>2026-04-05T16:27:08.727Z</time></trkpt><trkpt lat="45.1724336" lon="10.7849235"><ele>20.2</ele><time>2026-04-05T16:27:10.726Z</time></trkpt><trkpt lat="45.1725364" lon="10.7849107"><ele>20.4</ele><time>2026-04-05T16:27:12.727Z</time></trkpt><trkpt lat="45.1726363" lon="10.7849"><ele>20.6</ele><time>2026-04-05T16:27:14.728Z</time></trkpt><trkpt lat="45.1727279" lon="10.7848799"><ele>20.8</ele><time>2026-04-05T16:27:16.728Z</time></trkpt><trkpt lat="45.1728271" lon="10.7848649"><ele>21.0</ele><time>2026-04-05T16:27:18.727Z</time></trkpt><trkpt lat="45.1729276" lon="10.7848443"><ele>21.0</ele><time>2026-04-05T16:27:20.727Z</time></trkpt><trkpt lat="45.1730225" lon="10.7848411"><ele>21.0</ele><time>2026-04-05T16:27:22.726Z</time></trkpt><trkpt lat="45.1731184" lon="10.784819"><ele>21.0</ele><time>2026-04-05T16:27:24.727Z</time></trkpt><trkpt lat="45.1731826" lon="10.7847282"><ele>21.0</ele><time>2026-04-05T16:27:26.726Z</time></trkpt><trkpt lat="45.1731655" lon="10.7846118"><ele>21.0</ele><time>2026-04-05T16:27:28.728Z</time></trkpt><trkpt lat="45.173146" lon="10.7844874"><ele>21.0</ele><time>2026-04-05T16:27:30.727Z</time></trkpt><trkpt lat="45.1731185" lon="10.7843716"><ele>21.0</ele><time>2026-04-05T16:27:32.727Z</time></trkpt><trkpt lat="45.1730919" lon="10.7842519"><ele>21.0</ele><time>2026-04-05T16:27:34.727Z</time></trkpt><trkpt lat="45.1730559" lon="10.7841395"><ele>21.0</ele><time>2026-04-05T16:27:36.728Z</time></trkpt><trkpt lat="45.1730171" lon="10.7840308"><ele>21.0</ele><time>2026-04-05T16:27:38.727Z</time></trkpt><trkpt lat="45.1729745" lon="10.7839165"><ele>21.0</ele><time>2026-04-05T16:27:40.727Z</time></trkpt><trkpt lat="45.1729352" lon="10.7837964"><ele>20.8</ele><time>2026-04-05T16:27:42.725Z</time></trkpt><trkpt lat="45.172892" lon="10.7836765"><ele>20.6</ele><time>2026-04-05T16:27:44.727Z</time></trkpt><trkpt lat="45.1728525" lon="10.7835606"><ele>20.4</ele><time>2026-04-05T16:27:46.726Z</time></trkpt><trkpt lat="45.1728108" lon="10.7834398"><ele>20.2</ele><time>2026-04-05T16:27:48.727Z</time></trkpt><trkpt lat="45.1727648" lon="10.7833176"><ele>20.0</ele><time>2026-04-05T16:27:50.727Z</time></trkpt><trkpt lat="45.1727244" lon="10.7832068"><ele>19.833333333333336</ele><time>2026-04-05T16:27:52.726Z</time></trkpt><trkpt lat="45.1727034" lon="10.7830967"><ele>19.666666666666668</ele><time>2026-04-05T16:27:54.727Z</time></trkpt><trkpt lat="45.1726757" lon="10.7829827"><ele>19.5</ele><time>2026-04-05T16:27:57.726Z</time></trkpt><trkpt lat="45.1727023" lon="10.7828721"><ele>19.333333333333332</ele><time>2026-04-05T16:28:00.726Z</time></trkpt><trkpt lat="45.172793" lon="10.7828326"><ele>19.166666666666664</ele><time>2026-04-05T16:28:02.727Z</time></trkpt><trkpt lat="45.1728911" lon="10.7827939"><ele>19.0</ele><time>2026-04-05T16:28:04.726Z</time></trkpt><trkpt lat="45.1729818" lon="10.7827499"><ele>19.0</ele><time>2026-04-05T16:28:06.727Z</time></trkpt><trkpt lat="45.1730757" lon="10.7827013"><ele>19.0</ele><time>2026-04-05T16:28:08.727Z</time></trkpt><trkpt lat="45.173172" lon="10.7826572"><ele>19.0</ele><time>2026-04-05T16:28:10.728Z</time></trkpt><trkpt lat="45.1732664" lon="10.7826076"><ele>19.0</ele><time>2026-04-05T16:28:12.727Z</time></trkpt><trkpt lat="45.1733562" lon="10.7825563"><ele>19.0</ele><time>2026-04-05T16:28:14.727Z</time></trkpt><trkpt lat="45.1734422" lon="10.7825195"><ele>18.857142857142858</ele><time>2026-04-05T16:28:16.726Z</time></trkpt><trkpt lat="45.1735207" lon="10.7825049"><ele>18.714285714285715</ele><time>2026-04-05T16:28:18.726Z</time></trkpt><trkpt lat="45.173599" lon="10.7825277"><ele>18.571428571428573</ele><time>2026-04-05T16:28:20.725Z</time></trkpt><trkpt lat="45.1736653" lon="10.7825833"><ele>18.42857142857143</ele><time>2026-04-05T16:28:22.727Z</time></trkpt><trkpt lat="45.1737082" lon="10.7826518"><ele>18.285714285714285</ele><time>2026-04-05T16:28:24.728Z</time></trkpt><trkpt lat="45.1737592" lon="10.7827275"><ele>18.142857142857146</ele><time>2026-04-05T16:29:29.726Z</time></trkpt><trkpt lat="45.1737817" lon="10.7828149"><ele>18.0</ele><time>2026-04-05T16:29:31.727Z</time></trkpt><trkpt lat="45.1737976" lon="10.7829135"><ele>18.4</ele><time>2026-04-05T16:29:33.726Z</time></trkpt><trkpt lat="45.1738171" lon="10.7830259"><ele>18.8</ele><time>2026-04-05T16:29:35.727Z</time></trkpt><trkpt lat="45.1738367" lon="10.7831564"><ele>19.2</ele><time>2026-04-05T16:29:37.727Z</time></trkpt><trkpt lat="45.1738673" lon="10.7832789"><ele>19.6</ele><time>2026-04-05T16:29:39.725Z</time></trkpt><trkpt lat="45.1739057" lon="10.7833995"><ele>20.0</ele><time>2026-04-05T16:29:41.726Z</time></trkpt><trkpt lat="45.1739511" lon="10.7835163"><ele>20.0</ele><time>2026-04-05T16:29:43.726Z</time></trkpt><trkpt lat="45.1740195" lon="10.7836081"><ele>20.0</ele><time>2026-04-05T16:29:45.725Z</time></trkpt><trkpt lat="45.1740804" lon="10.7837028"><ele>20.0</ele><time>2026-04-05T16:29:47.728Z</time></trkpt><trkpt lat="45.1741076" lon="10.7838421"><ele>20.0</ele><time>2026-04-05T16:29:49.726Z</time></trkpt><trkpt lat="45.1741329" lon="10.7839866"><ele>20.0</ele><time>2026-04-05T16:29:51.727Z</time></trkpt><trkpt lat="45.1741648" lon="10.7841328"><ele>19.8</ele><time>2026-04-05T16:29:53.726Z</time></trkpt><trkpt lat="45.1741895" lon="10.7842809"><ele>19.6</ele><time>2026-04-05T16:29:55.726Z</time></trkpt><trkpt lat="45.1742208" lon="10.7844221"><ele>19.4</ele><time>2026-04-05T16:29:57.727Z</time></trkpt><trkpt lat="45.174266" lon="10.7845593"><ele>19.2</ele><time>2026-04-05T16:29:59.726Z</time></trkpt><trkpt lat="45.1743289" lon="10.784677"><ele>19.0</ele><time>2026-04-05T16:30:01.726Z</time></trkpt><trkpt lat="45.1743959" lon="10.7847944"><ele>19.0</ele><time>2026-04-05T16:30:03.726Z</time></trkpt><trkpt lat="45.1744651" lon="10.7848977"><ele>19.0</ele><time>2026-04-05T16:30:05.725Z</time></trkpt><trkpt lat="45.1745334" lon="10.7849981"><ele>19.0</ele><time>2026-04-05T16:30:07.728Z</time></trkpt><trkpt lat="45.1746079" lon="10.785098"><ele>19.0</ele><time>2026-04-05T16:30:09.726Z</time></trkpt><trkpt lat="45.1746858" lon="10.7851827"><ele>19.0</ele><time>2026-04-05T16:30:11.727Z</time></trkpt><trkpt lat="45.1747732" lon="10.7852446"><ele>18.8</ele><time>2026-04-05T16:30:13.727Z</time></trkpt><trkpt lat="45.1748629" lon="10.7852727"><ele>18.599999999999998</ele><time>2026-04-05T16:30:15.725Z</time></trkpt><trkpt lat="45.1749554" lon="10.7852779"><ele>18.4</ele><time>2026-04-05T16:30:17.725Z</time></trkpt><trkpt lat="45.1750399" lon="10.7852395"><ele>18.2</ele><time>2026-04-05T16:30:19.725Z</time></trkpt><trkpt lat="45.1751292" lon="10.7851934"><ele>18.0</ele><time>2026-04-05T16:30:21.726Z</time></trkpt><trkpt lat="45.1752267" lon="10.7851455"><ele>18.0</ele><time>2026-04-05T16:30:23.726Z</time></trkpt><trkpt lat="45.1753274" lon="10.785121"><ele>18.0</ele><time>2026-04-05T16:30:25.726Z</time></trkpt><trkpt lat="45.1754311" lon="10.7851033"><ele>18.0</ele><time>2026-04-05T16:30:27.726Z</time></trkpt><trkpt lat="45.1755297" lon="10.7850815"><ele>18.0</ele><time>2026-04-05T16:30:29.727Z</time></trkpt><trkpt lat="45.1756305" lon="10.7850462"><ele>18.0</ele><time>2026-04-05T16:30:31.726Z</time></trkpt><trkpt lat="45.1757259" lon="10.7850102"><ele>18.0</ele><time>2026-04-05T16:30:33.726Z</time></trkpt><trkpt lat="45.1758242" lon="10.7849727"><ele>18.0</ele><time>2026-04-05T16:30:35.726Z</time></trkpt><trkpt lat="45.17592" lon="10.7849281"><ele>18.0</ele><time>2026-04-05T16:30:37.726Z</time></trkpt><trkpt lat="45.1760235" lon="10.7848802"><ele>18.0</ele><time>2026-04-05T16:30:39.726Z</time></trkpt><trkpt lat="45.1761328" lon="10.7848416"><ele>18.0</ele><time>2026-04-05T16:30:41.725Z</time></trkpt><trkpt lat="45.1762413" lon="10.7848091"><ele>18.0</ele><time>2026-04-05T16:30:43.726Z</time></trkpt><trkpt lat="45.1763131" lon="10.7848008"><ele>18.0</ele><time>2026-04-05T16:30:44.725Z</time></trkpt><trkpt lat="45.1763866" lon="10.7847733"><ele>18.0</ele><time>2026-04-05T16:30:46.727Z</time></trkpt><trkpt lat="45.176447" lon="10.7847465"><ele>18.0</ele><time>2026-04-05T16:30:48.726Z</time></trkpt><trkpt lat="45.1765183" lon="10.7846808"><ele>18.0</ele><time>2026-04-05T16:30:50.726Z</time></trkpt><trkpt lat="45.1765812" lon="10.7846133"><ele>18.0</ele><time>2026-04-05T16:30:52.726Z</time></trkpt><trkpt lat="45.1766311" lon="10.784521"><ele>18.2</ele><time>2026-04-05T16:30:54.727Z</time></trkpt><trkpt lat="45.1766925" lon="10.7844476"><ele>18.4</ele><time>2026-04-05T16:30:56.727Z</time></trkpt><trkpt lat="45.1767774" lon="10.784392"><ele>18.599999999999998</ele><time>2026-04-05T16:30:58.726Z</time></trkpt><trkpt lat="45.1768615" lon="10.7843423"><ele>18.8</ele><time>2026-04-05T16:31:00.726Z</time></trkpt><trkpt lat="45.1769488" lon="10.7842877"><ele>19.0</ele><time>2026-04-05T16:31:02.725Z</time></trkpt><trkpt lat="45.1770382" lon="10.7842291"><ele>19.0</ele><time>2026-04-05T16:31:04.726Z</time></trkpt><trkpt lat="45.1771326" lon="10.7841845"><ele>19.0</ele><time>2026-04-05T16:31:06.726Z</time></trkpt><trkpt lat="45.1772196" lon="10.7841397"><ele>19.0</ele><time>2026-04-05T16:31:08.727Z</time></trkpt><trkpt lat="45.1772988" lon="10.7840691"><ele>19.0</ele><time>2026-04-05T16:31:10.725Z</time></trkpt><trkpt lat="45.1773495" lon="10.7839608"><ele>19.0</ele><time>2026-04-05T16:31:12.727Z</time></trkpt><trkpt lat="45.1774166" lon="10.7838473"><ele>19.0</ele><time>2026-04-05T16:31:14.726Z</time></trkpt><trkpt lat="45.1774964" lon="10.783755"><ele>19.0</ele><time>2026-04-05T16:31:16.725Z</time></trkpt><trkpt lat="45.1775823" lon="10.7836761"><ele>19.0</ele><time>2026-04-05T16:31:18.725Z</time></trkpt><trkpt lat="45.1776634" lon="10.7835768"><ele>19.0</ele><time>2026-04-05T16:31:20.726Z</time></trkpt><trkpt lat="45.1777349" lon="10.7834766"><ele>19.0</ele><time>2026-04-05T16:31:22.726Z</time></trkpt><trkpt lat="45.1777945" lon="10.7833665"><ele>19.0</ele><time>2026-04-05T16:31:24.725Z</time></trkpt><trkpt lat="45.177844" lon="10.7832469"><ele>19.0</ele><time>2026-04-05T16:31:26.727Z</time></trkpt><trkpt lat="45.1778592" lon="10.7831216"><ele>19.0</ele><time>2026-04-05T16:31:28.725Z</time></trkpt><trkpt lat="45.1779131" lon="10.7830335"><ele>19.0</ele><time>2026-04-05T16:31:31.727Z</time></trkpt><trkpt lat="45.1779321" lon="10.7829336"><ele>19.0</ele><time>2026-04-05T16:31:34.727Z</time></trkpt><trkpt lat="45.1778646" lon="10.7828545"><ele>19.0</ele><time>2026-04-05T16:31:36.726Z</time></trkpt><trkpt lat="45.1777965" lon="10.7827614"><ele>18.4</ele><time>2026-04-05T16:31:38.727Z</time></trkpt><trkpt lat="45.1777214" lon="10.7826633"><ele>17.799999999999997</ele><time>2026-04-05T16:31:40.725Z</time></trkpt><trkpt lat="45.1776515" lon="10.7825616"><ele>17.200000000000003</ele><time>2026-04-05T16:31:42.725Z</time></trkpt><trkpt lat="45.1775827" lon="10.7824494"><ele>16.6</ele><time>2026-04-05T16:31:44.725Z</time></trkpt><trkpt lat="45.1775157" lon="10.7823356"><ele>16.0</ele><time>2026-04-05T16:31:46.725Z</time></trkpt><trkpt lat="45.1774464" lon="10.7822176"><ele>16.0</ele><time>2026-04-05T16:31:48.727Z</time></trkpt><trkpt lat="45.1773882" lon="10.782085"><ele>16.0</ele><time>2026-04-05T16:31:50.727Z</time></trkpt><trkpt lat="45.1773389" lon="10.7819398"><ele>16.0</ele><time>2026-04-05T16:31:52.727Z</time></trkpt><trkpt lat="45.1772945" lon="10.7818019"><ele>16.0</ele><time>2026-04-05T16:31:54.726Z</time></trkpt><trkpt lat="45.177265" lon="10.7816498"><ele>16.0</ele><time>2026-04-05T16:31:56.727Z</time></trkpt><trkpt lat="45.1772413" lon="10.7814944"><ele>16.5</ele><time>2026-04-05T16:31:58.726Z</time></trkpt><trkpt lat="45.1772182" lon="10.7813304"><ele>17.0</ele><time>2026-04-05T16:32:00.726Z</time></trkpt><trkpt lat="45.1771972" lon="10.781185"><ele>17.5</ele><time>2026-04-05T16:32:02.727Z</time></trkpt><trkpt lat="45.177171" lon="10.7810295"><ele>18.0</ele><time>2026-04-05T16:32:04.727Z</time></trkpt><trkpt lat="45.1771486" lon="10.7808702"><ele>18.75</ele><time>2026-04-05T16:32:06.725Z</time></trkpt><trkpt lat="45.1771251" lon="10.7807113"><ele>19.5</ele><time>2026-04-05T16:32:08.726Z</time></trkpt><trkpt lat="45.1770881" lon="10.7805603"><ele>20.25</ele><time>2026-04-05T16:32:10.725Z</time></trkpt><trkpt lat="45.1770461" lon="10.7804039"><ele>21.0</ele><time>2026-04-05T16:32:12.725Z</time></trkpt><trkpt lat="45.1769998" lon="10.7802477"><ele>20.8</ele><time>2026-04-05T16:32:14.726Z</time></trkpt><trkpt lat="45.1769531" lon="10.7801127"><ele>20.6</ele><time>2026-04-05T16:32:16.725Z</time></trkpt><trkpt lat="45.1768968" lon="10.7800004"><ele>20.4</ele><time>2026-04-05T16:32:18.726Z</time></trkpt><trkpt lat="45.176852" lon="10.7798855"><ele>20.2</ele><time>2026-04-05T16:32:20.725Z</time></trkpt><trkpt lat="45.1768182" lon="10.7797599"><ele>20.0</ele><time>2026-04-05T16:32:22.726Z</time></trkpt><trkpt lat="45.1768593" lon="10.7796371"><ele>20.0</ele><time>2026-04-05T16:32:24.725Z</time></trkpt><trkpt lat="45.1769189" lon="10.779505"><ele>20.0</ele><time>2026-04-05T16:32:26.726Z</time></trkpt><trkpt lat="45.1769912" lon="10.7793733"><ele>20.0</ele><time>2026-04-05T16:32:28.727Z</time></trkpt><trkpt lat="45.177052" lon="10.7792438"><ele>20.0</ele><time>2026-04-05T16:32:30.727Z</time></trkpt><trkpt lat="45.1771165" lon="10.77911"><ele>19.75</ele><time>2026-04-05T16:32:32.726Z</time></trkpt><trkpt lat="45.1771812" lon="10.7789727"><ele>19.5</ele><time>2026-04-05T16:32:34.726Z</time></trkpt><trkpt lat="45.1772388" lon="10.7788414"><ele>19.25</ele><time>2026-04-05T16:32:36.727Z</time></trkpt><trkpt lat="45.1772972" lon="10.7787044"><ele>19.0</ele><time>2026-04-05T16:32:38.725Z</time></trkpt><trkpt lat="45.1773438" lon="10.7785603"><ele>18.75</ele><time>2026-04-05T16:32:40.724Z</time></trkpt><trkpt lat="45.1773847" lon="10.7784152"><ele>18.5</ele><time>2026-04-05T16:32:42.725Z</time></trkpt><trkpt lat="45.1774286" lon="10.7782675"><ele>18.25</ele><time>2026-04-05T16:32:44.724Z</time></trkpt><trkpt lat="45.1774699" lon="10.7781122"><ele>18.0</ele><time>2026-04-05T16:32:46.725Z</time></trkpt><trkpt lat="45.1775205" lon="10.7779697"><ele>18.0</ele><time>2026-04-05T16:32:48.726Z</time></trkpt><trkpt lat="45.1775664" lon="10.7778351"><ele>18.0</ele><time>2026-04-05T16:32:50.727Z</time></trkpt><trkpt lat="45.1776047" lon="10.7776947"><ele>18.0</ele><time>2026-04-05T16:32:52.725Z</time></trkpt><trkpt lat="45.1776331" lon="10.7775572"><ele>18.0</ele><time>2026-04-05T16:32:54.725Z</time></trkpt><trkpt lat="45.1776678" lon="10.7774179"><ele>18.0</ele><time>2026-04-05T16:32:56.726Z</time></trkpt><trkpt lat="45.1777049" lon="10.7772884"><ele>17.8</ele><time>2026-04-05T16:32:58.725Z</time></trkpt><trkpt lat="45.177748" lon="10.7771439"><ele>17.6</ele><time>2026-04-05T16:33:00.725Z</time></trkpt><trkpt lat="45.1777917" lon="10.7770043"><ele>17.4</ele><time>2026-04-05T16:33:02.727Z</time></trkpt><trkpt lat="45.1778405" lon="10.7768738"><ele>17.2</ele><time>2026-04-05T16:33:04.725Z</time></trkpt><trkpt lat="45.1778967" lon="10.7767357"><ele>17.0</ele><time>2026-04-05T16:33:06.724Z</time></trkpt><trkpt lat="45.1779591" lon="10.7765904"><ele>17.0</ele><time>2026-04-05T16:33:08.726Z</time></trkpt><trkpt lat="45.1780182" lon="10.7764477"><ele>17.0</ele><time>2026-04-05T16:33:10.725Z</time></trkpt><trkpt lat="45.1780808" lon="10.7763187"><ele>17.0</ele><time>2026-04-05T16:33:12.727Z</time></trkpt><trkpt lat="45.1781314" lon="10.776178"><ele>17.0</ele><time>2026-04-05T16:33:14.725Z</time></trkpt><trkpt lat="45.1781715" lon="10.7760399"><ele>17.0</ele><time>2026-04-05T16:33:16.725Z</time></trkpt><trkpt lat="45.1782271" lon="10.7759062"><ele>17.0</ele><time>2026-04-05T16:33:18.726Z</time></trkpt><trkpt lat="45.1782857" lon="10.7757671"><ele>17.0</ele><time>2026-04-05T16:33:20.725Z</time></trkpt><trkpt lat="45.1783359" lon="10.775638"><ele>17.0</ele><time>2026-04-05T16:33:22.726Z</time></trkpt><trkpt lat="45.1783723" lon="10.7754914"><ele>17.0</ele><time>2026-04-05T16:33:24.725Z</time></trkpt><trkpt lat="45.1784151" lon="10.7753412"><ele>17.0</ele><time>2026-04-05T16:33:26.726Z</time></trkpt><trkpt lat="45.1784536" lon="10.7751925"><ele>17.0</ele><time>2026-04-05T16:33:28.725Z</time></trkpt><trkpt lat="45.1784991" lon="10.775039"><ele>17.0</ele><time>2026-04-05T16:33:30.724Z</time></trkpt><trkpt lat="45.1785395" lon="10.7748903"><ele>17.0</ele><time>2026-04-05T16:33:32.725Z</time></trkpt><trkpt lat="45.1785732" lon="10.7747465"><ele>17.0</ele><time>2026-04-05T16:33:34.726Z</time></trkpt><trkpt lat="45.1786019" lon="10.7745969"><ele>17.0</ele><time>2026-04-05T16:33:36.726Z</time></trkpt><trkpt lat="45.1786018" lon="10.7744443"><ele>17.25</ele><time>2026-04-05T16:33:38.724Z</time></trkpt><trkpt lat="45.1785855" lon="10.7742809"><ele>17.5</ele><time>2026-04-05T16:33:40.724Z</time></trkpt><trkpt lat="45.1785549" lon="10.7741159"><ele>17.75</ele><time>2026-04-05T16:33:42.725Z</time></trkpt><trkpt lat="45.1785293" lon="10.773952"><ele>18.0</ele><time>2026-04-05T16:33:44.725Z</time></trkpt><trkpt lat="45.1785205" lon="10.773785"><ele>18.0</ele><time>2026-04-05T16:33:46.725Z</time></trkpt><trkpt lat="45.1785246" lon="10.7736209"><ele>18.0</ele><time>2026-04-05T16:33:48.724Z</time></trkpt><trkpt lat="45.1785408" lon="10.7734491"><ele>18.0</ele><time>2026-04-05T16:33:50.725Z</time></trkpt><trkpt lat="45.1785614" lon="10.7732893"><ele>18.0</ele><time>2026-04-05T16:33:52.725Z</time></trkpt><trkpt lat="45.1785914" lon="10.7731358"><ele>18.0</ele><time>2026-04-05T16:33:54.725Z</time></trkpt><trkpt lat="45.1786247" lon="10.7729782"><ele>18.0</ele><time>2026-04-05T16:33:56.726Z</time></trkpt><trkpt lat="45.178676" lon="10.7728286"><ele>18.0</ele><time>2026-04-05T16:33:58.725Z</time></trkpt><trkpt lat="45.1787351" lon="10.7726941"><ele>18.0</ele><time>2026-04-05T16:34:00.726Z</time></trkpt><trkpt lat="45.1787989" lon="10.7725579"><ele>18.0</ele><time>2026-04-05T16:34:02.725Z</time></trkpt><trkpt lat="45.1788712" lon="10.7724282"><ele>18.0</ele><time>2026-04-05T16:34:04.724Z</time></trkpt><trkpt lat="45.1789427" lon="10.7722976"><ele>18.0</ele><time>2026-04-05T16:34:06.726Z</time></trkpt><trkpt lat="45.179025" lon="10.7721976"><ele>18.0</ele><time>2026-04-05T16:34:08.725Z</time></trkpt><trkpt lat="45.1791174" lon="10.772093"><ele>18.6</ele><time>2026-04-05T16:34:10.725Z</time></trkpt><trkpt lat="45.179214" lon="10.7720333"><ele>19.200000000000003</ele><time>2026-04-05T16:34:12.726Z</time></trkpt><trkpt lat="45.1793075" lon="10.7719636"><ele>19.8</ele><time>2026-04-05T16:34:14.726Z</time></trkpt><trkpt lat="45.179371" lon="10.7718701"><ele>20.400000000000002</ele><time>2026-04-05T16:34:16.724Z</time></trkpt><trkpt lat="45.1793917" lon="10.7717472"><ele>21.0</ele><time>2026-04-05T16:34:18.726Z</time></trkpt><trkpt lat="45.1793754" lon="10.7716072"><ele>21.0</ele><time>2026-04-05T16:34:20.725Z</time></trkpt><trkpt lat="45.1793488" lon="10.7714562"><ele>21.0</ele><time>2026-04-05T16:34:22.725Z</time></trkpt><trkpt lat="45.1793253" lon="10.7713047"><ele>21.0</ele><time>2026-04-05T16:34:24.725Z</time></trkpt><trkpt lat="45.1793006" lon="10.77116"><ele>21.0</ele><time>2026-04-05T16:34:26.725Z</time></trkpt><trkpt lat="45.1792792" lon="10.7710215"><ele>21.0</ele><time>2026-04-05T16:34:28.725Z</time></trkpt><trkpt lat="45.1792472" lon="10.7708707"><ele>20.8</ele><time>2026-04-05T16:34:30.726Z</time></trkpt><trkpt lat="45.1792212" lon="10.7707315"><ele>20.6</ele><time>2026-04-05T16:34:32.726Z</time></trkpt><trkpt lat="45.1791956" lon="10.7705933"><ele>20.4</ele><time>2026-04-05T16:34:34.724Z</time></trkpt><trkpt lat="45.179155" lon="10.7704643"><ele>20.2</ele><time>2026-04-05T16:34:36.726Z</time></trkpt><trkpt lat="45.1790802" lon="10.7703726"><ele>20.0</ele><time>2026-04-05T16:34:38.726Z</time></trkpt><trkpt lat="45.1789901" lon="10.7703175"><ele>19.2</ele><time>2026-04-05T16:34:40.726Z</time></trkpt><trkpt lat="45.1789004" lon="10.770282"><ele>18.4</ele><time>2026-04-05T16:34:42.725Z</time></trkpt><trkpt lat="45.1788089" lon="10.7702354"><ele>17.6</ele><time>2026-04-05T16:34:44.726Z</time></trkpt><trkpt lat="45.1787129" lon="10.7701904"><ele>16.8</ele><time>2026-04-05T16:34:46.726Z</time></trkpt><trkpt lat="45.1786144" lon="10.7701408"><ele>16.0</ele><time>2026-04-05T16:34:48.726Z</time></trkpt><trkpt lat="45.1785183" lon="10.7700973"><ele>16.0</ele><time>2026-04-05T16:34:50.726Z</time></trkpt><trkpt lat="45.1784284" lon="10.770061"><ele>16.0</ele><time>2026-04-05T16:34:52.726Z</time></trkpt><trkpt lat="45.178338" lon="10.7700191"><ele>16.0</ele><time>2026-04-05T16:34:54.726Z</time></trkpt><trkpt lat="45.1782482" lon="10.7699837"><ele>16.0</ele><time>2026-04-05T16:34:56.726Z</time></trkpt><trkpt lat="45.1781594" lon="10.7699432"><ele>16.0</ele><time>2026-04-05T16:34:58.725Z</time></trkpt><trkpt lat="45.178069" lon="10.7699067"><ele>16.2</ele><time>2026-04-05T16:35:00.725Z</time></trkpt><trkpt lat="45.1779806" lon="10.7698693"><ele>16.400000000000002</ele><time>2026-04-05T16:35:02.724Z</time></trkpt><trkpt lat="45.1778927" lon="10.769824"><ele>16.6</ele><time>2026-04-05T16:35:04.725Z</time></trkpt><trkpt lat="45.177805" lon="10.769781"><ele>16.8</ele><time>2026-04-05T16:35:06.725Z</time></trkpt><trkpt lat="45.1777132" lon="10.7697355"><ele>17.0</ele><time>2026-04-05T16:35:08.725Z</time></trkpt><trkpt lat="45.1776228" lon="10.7696922"><ele>17.0</ele><time>2026-04-05T16:35:10.724Z</time></trkpt><trkpt lat="45.1775331" lon="10.7696509"><ele>17.0</ele><time>2026-04-05T16:35:12.725Z</time></trkpt><trkpt lat="45.1774378" lon="10.7696163"><ele>17.0</ele><time>2026-04-05T16:35:14.725Z</time></trkpt><trkpt lat="45.177352" lon="10.7695703"><ele>17.0</ele><time>2026-04-05T16:35:16.725Z</time></trkpt><trkpt lat="45.1772562" lon="10.7695267"><ele>17.0</ele><time>2026-04-05T16:35:18.725Z</time></trkpt><trkpt lat="45.1771664" lon="10.7694871"><ele>17.0</ele><time>2026-04-05T16:35:20.725Z</time></trkpt><trkpt lat="45.1770759" lon="10.7694442"><ele>17.0</ele><time>2026-04-05T16:35:22.724Z</time></trkpt><trkpt lat="45.1769907" lon="10.7694036"><ele>17.0</ele><time>2026-04-05T16:35:24.726Z</time></trkpt><trkpt lat="45.1769091" lon="10.7693799"><ele>17.0</ele><time>2026-04-05T16:35:26.724Z</time></trkpt><trkpt lat="45.1768452" lon="10.7693553"><ele>17.0</ele><time>2026-04-05T16:35:28.726Z</time></trkpt><trkpt lat="45.1767848" lon="10.7692941"><ele>17.0</ele><time>2026-04-05T16:36:44.725Z</time></trkpt><trkpt lat="45.1767186" lon="10.7692638"><ele>17.0</ele><time>2026-04-05T16:36:47.724Z</time></trkpt><trkpt lat="45.176632" lon="10.7692193"><ele>17.0</ele><time>2026-04-05T16:36:50.726Z</time></trkpt><trkpt lat="45.1765637" lon="10.7691954"><ele>17.0</ele><time>2026-04-05T16:36:52.726Z</time></trkpt><trkpt lat="45.176498" lon="10.7691591"><ele>17.0</ele><time>2026-04-05T16:36:54.725Z</time></trkpt><trkpt lat="45.17643" lon="10.7691314"><ele>17.0</ele><time>2026-04-05T16:36:56.725Z</time></trkpt><trkpt lat="45.1763596" lon="10.7690946"><ele>17.0</ele><time>2026-04-05T16:36:58.725Z</time></trkpt><trkpt lat="45.1762733" lon="10.769046"><ele>17.0</ele><time>2026-04-05T16:37:00.724Z</time></trkpt><trkpt lat="45.1761859" lon="10.7690023"><ele>17.0</ele><time>2026-04-05T16:37:02.725Z</time></trkpt><trkpt lat="45.1760945" lon="10.7689671"><ele>17.0</ele><time>2026-04-05T16:37:04.725Z</time></trkpt><trkpt lat="45.1760096" lon="10.7689153"><ele>17.0</ele><time>2026-04-05T16:37:06.725Z</time></trkpt><trkpt lat="45.1759239" lon="10.7688741"><ele>17.0</ele><time>2026-04-05T16:37:08.723Z</time></trkpt><trkpt lat="45.1758356" lon="10.7688342"><ele>17.0</ele><time>2026-04-05T16:37:10.725Z</time></trkpt><trkpt lat="45.1757422" lon="10.7687917"><ele>17.0</ele><time>2026-04-05T16:37:12.723Z</time></trkpt><trkpt lat="45.1756503" lon="10.7687497"><ele>17.0</ele><time>2026-04-05T16:37:14.725Z</time></trkpt><trkpt lat="45.1755643" lon="10.7687103"><ele>17.0</ele><time>2026-04-05T16:37:16.725Z</time></trkpt><trkpt lat="45.1754764" lon="10.7686716"><ele>17.0</ele><time>2026-04-05T16:37:18.726Z</time></trkpt><trkpt lat="45.1753973" lon="10.7686346"><ele>17.0</ele><time>2026-04-05T16:37:20.723Z</time></trkpt><trkpt lat="45.1753176" lon="10.768598"><ele>17.0</ele><time>2026-04-05T16:37:22.724Z</time></trkpt><trkpt lat="45.1752358" lon="10.768558"><ele>17.0</ele><time>2026-04-05T16:37:24.726Z</time></trkpt><trkpt lat="45.1751561" lon="10.7685393"><ele>17.0</ele><time>2026-04-05T16:37:26.724Z</time></trkpt><trkpt lat="45.1750812" lon="10.7684915"><ele>17.0</ele><time>2026-04-05T16:37:28.724Z</time></trkpt><trkpt lat="45.1749879" lon="10.7684479"><ele>17.0</ele><time>2026-04-05T16:37:30.725Z</time></trkpt><trkpt lat="45.1748994" lon="10.7684127"><ele>17.2</ele><time>2026-04-05T16:37:32.725Z</time></trkpt><trkpt lat="45.1748102" lon="10.7683688"><ele>17.4</ele><time>2026-04-05T16:37:34.724Z</time></trkpt><trkpt lat="45.1747285" lon="10.7683214"><ele>17.6</ele><time>2026-04-05T16:37:36.724Z</time></trkpt><trkpt lat="45.1746359" lon="10.7682844"><ele>17.8</ele><time>2026-04-05T16:37:38.725Z</time></trkpt><trkpt lat="45.1745397" lon="10.7682464"><ele>18.0</ele><time>2026-04-05T16:37:40.723Z</time></trkpt><trkpt lat="45.1744544" lon="10.7682038"><ele>18.0</ele><time>2026-04-05T16:37:42.724Z</time></trkpt><trkpt lat="45.1743705" lon="10.7681612"><ele>18.0</ele><time>2026-04-05T16:37:44.724Z</time></trkpt><trkpt lat="45.1742858" lon="10.7681261"><ele>18.0</ele><time>2026-04-05T16:37:46.724Z</time></trkpt><trkpt lat="45.174196" lon="10.7680892"><ele>18.0</ele><time>2026-04-05T16:37:48.724Z</time></trkpt><trkpt lat="45.1741141" lon="10.7680435"><ele>18.0</ele><time>2026-04-05T16:37:50.725Z</time></trkpt><trkpt lat="45.1740235" lon="10.767997"><ele>18.0</ele><time>2026-04-05T16:37:52.724Z</time></trkpt><trkpt lat="45.1739354" lon="10.7679582"><ele>18.0</ele><time>2026-04-05T16:37:54.723Z</time></trkpt><trkpt lat="45.1738468" lon="10.7679115"><ele>18.0</ele><time>2026-04-05T16:37:56.725Z</time></trkpt><trkpt lat="45.1737576" lon="10.7678771"><ele>18.0</ele><time>2026-04-05T16:37:58.724Z</time></trkpt><trkpt lat="45.1736677" lon="10.7678398"><ele>18.0</ele><time>2026-04-05T16:38:00.725Z</time></trkpt><trkpt lat="45.1735688" lon="10.7678043"><ele>18.0</ele><time>2026-04-05T16:38:02.723Z</time></trkpt><trkpt lat="45.1734717" lon="10.7677602"><ele>18.0</ele><time>2026-04-05T16:38:04.725Z</time></trkpt><trkpt lat="45.1733783" lon="10.7677183"><ele>18.0</ele><time>2026-04-05T16:38:06.724Z</time></trkpt><trkpt lat="45.1732839" lon="10.7676721"><ele>18.0</ele><time>2026-04-05T16:38:08.726Z</time></trkpt><trkpt lat="45.1731921" lon="10.7676289"><ele>18.0</ele><time>2026-04-05T16:38:10.724Z</time></trkpt><trkpt lat="45.1730969" lon="10.7675892"><ele>17.8</ele><time>2026-04-05T16:38:12.726Z</time></trkpt><trkpt lat="45.1730094" lon="10.767547"><ele>17.6</ele><time>2026-04-05T16:38:14.725Z</time></trkpt><trkpt lat="45.1729233" lon="10.7675053"><ele>17.4</ele><time>2026-04-05T16:38:16.725Z</time></trkpt><trkpt lat="45.1728343" lon="10.7674665"><ele>17.2</ele><time>2026-04-05T16:38:18.725Z</time></trkpt><trkpt lat="45.1727517" lon="10.7674162"><ele>17.0</ele><time>2026-04-05T16:38:20.723Z</time></trkpt><trkpt lat="45.1726634" lon="10.7673821"><ele>17.0</ele><time>2026-04-05T16:38:22.724Z</time></trkpt><trkpt lat="45.1725757" lon="10.7673453"><ele>17.0</ele><time>2026-04-05T16:38:24.725Z</time></trkpt><trkpt lat="45.17249" lon="10.7673018"><ele>17.0</ele><time>2026-04-05T16:38:26.725Z</time></trkpt><trkpt lat="45.1724024" lon="10.7672569"><ele>17.0</ele><time>2026-04-05T16:38:28.723Z</time></trkpt><trkpt lat="45.1723181" lon="10.7672144"><ele>17.0</ele><time>2026-04-05T16:38:30.725Z</time></trkpt><trkpt lat="45.1722355" lon="10.7671722"><ele>17.0</ele><time>2026-04-05T16:38:32.725Z</time></trkpt><trkpt lat="45.1721542" lon="10.7671386"><ele>17.0</ele><time>2026-04-05T16:38:34.723Z</time></trkpt><trkpt lat="45.1720768" lon="10.7671086"><ele>17.0</ele><time>2026-04-05T16:38:36.725Z</time></trkpt><trkpt lat="45.1720137" lon="10.7670867"><ele>17.0</ele><time>2026-04-05T16:38:38.724Z</time></trkpt><trkpt lat="45.1719456" lon="10.7671251"><ele>17.0</ele><time>2026-04-05T16:38:41.724Z</time></trkpt><trkpt lat="45.1719032" lon="10.7672188"><ele>17.0</ele><time>2026-04-05T16:38:43.726Z</time></trkpt><trkpt lat="45.1718818" lon="10.7673443"><ele>17.0</ele><time>2026-04-05T16:38:45.725Z</time></trkpt><trkpt lat="45.1718524" lon="10.7674757"><ele>17.0</ele><time>2026-04-05T16:38:47.724Z</time></trkpt><trkpt lat="45.1718251" lon="10.7676087"><ele>17.0</ele><time>2026-04-05T16:38:49.724Z</time></trkpt><trkpt lat="45.1717983" lon="10.767732"><ele>17.0</ele><time>2026-04-05T16:38:51.723Z</time></trkpt><trkpt lat="45.1717727" lon="10.7678663"><ele>17.0</ele><time>2026-04-05T16:38:53.724Z</time></trkpt><trkpt lat="45.1717484" lon="10.7679907"><ele>16.8</ele><time>2026-04-05T16:38:55.724Z</time></trkpt><trkpt lat="45.1717297" lon="10.768098"><ele>16.6</ele><time>2026-04-05T16:38:57.724Z</time></trkpt><trkpt lat="45.1717023" lon="10.7682245"><ele>16.400000000000002</ele><time>2026-04-05T16:38:59.724Z</time></trkpt><trkpt lat="45.1716799" lon="10.768351"><ele>16.2</ele><time>2026-04-05T16:39:01.724Z</time></trkpt><trkpt lat="45.171654" lon="10.7684794"><ele>16.0</ele><time>2026-04-05T16:39:03.725Z</time></trkpt><trkpt lat="45.1716302" lon="10.7686145"><ele>16.0</ele><time>2026-04-05T16:39:05.724Z</time></trkpt><trkpt lat="45.1716008" lon="10.7687472"><ele>16.0</ele><time>2026-04-05T16:39:07.723Z</time></trkpt><trkpt lat="45.1715797" lon="10.7688683"><ele>16.0</ele><time>2026-04-05T16:39:09.724Z</time></trkpt><trkpt lat="45.1715571" lon="10.7689895"><ele>16.0</ele><time>2026-04-05T16:39:11.723Z</time></trkpt><trkpt lat="45.1715313" lon="10.7691139"><ele>16.0</ele><time>2026-04-05T16:39:13.724Z</time></trkpt><trkpt lat="45.1715033" lon="10.7692428"><ele>16.166666666666664</ele><time>2026-04-05T16:39:15.725Z</time></trkpt><trkpt lat="45.1714773" lon="10.7693578"><ele>16.333333333333332</ele><time>2026-04-05T16:39:17.723Z</time></trkpt><trkpt lat="45.1714524" lon="10.7694815"><ele>16.5</ele><time>2026-04-05T16:39:19.724Z</time></trkpt><trkpt lat="45.1714316" lon="10.7695973"><ele>16.666666666666668</ele><time>2026-04-05T16:39:21.723Z</time></trkpt><trkpt lat="45.1714163" lon="10.7696995"><ele>16.833333333333336</ele><time>2026-04-05T16:39:23.723Z</time></trkpt><trkpt lat="45.1714365" lon="10.7698081"><ele>17.0</ele><time>2026-04-05T16:39:26.723Z</time></trkpt><trkpt lat="45.1714691" lon="10.7697306"><ele>16.999999999999996</ele><time>2026-04-05T16:39:28.725Z</time></trkpt><trkpt lat="45.1714647" lon="10.769628"><ele>17.0</ele><time>2026-04-05T16:39:30.724Z</time></trkpt><trkpt lat="45.1714584" lon="10.7695236"><ele>17.0</ele><time>2026-04-05T16:39:32.724Z</time></trkpt><trkpt lat="45.1714736" lon="10.7694239"><ele>17.0</ele><time>2026-04-05T16:39:34.724Z</time></trkpt><trkpt lat="45.1714897" lon="10.7693272"><ele>17.0</ele><time>2026-04-05T16:39:36.724Z</time></trkpt><trkpt lat="45.1714901" lon="10.7692318"><ele>16.999999999999996</ele><time>2026-04-05T16:39:40.725Z</time></trkpt><trkpt lat="45.1714176" lon="10.7692177"><ele>17.0</ele><time>2026-04-05T16:39:45.723Z</time></trkpt><trkpt lat="45.171347" lon="10.7691964"><ele>17.0</ele><time>2026-04-05T16:39:53.724Z</time></trkpt><trkpt lat="45.1712689" lon="10.769141"><ele>17.0</ele><time>2026-04-05T16:39:56.723Z</time></trkpt><trkpt lat="45.1712086" lon="10.7691033"><ele>17.0</ele><time>2026-04-05T16:39:58.724Z</time></trkpt><trkpt lat="45.1711433" lon="10.7690631"><ele>17.0</ele><time>2026-04-05T16:40:00.724Z</time></trkpt><trkpt lat="45.1710706" lon="10.7690316"><ele>17.0</ele><time>2026-04-05T16:40:02.723Z</time></trkpt><trkpt lat="45.1709982" lon="10.7690164"><ele>17.0</ele><time>2026-04-05T16:40:04.724Z</time></trkpt><trkpt lat="45.1709231" lon="10.7689794"><ele>17.0</ele><time>2026-04-05T16:40:06.725Z</time></trkpt><trkpt lat="45.1708473" lon="10.7689247"><ele>17.0</ele><time>2026-04-05T16:40:08.724Z</time></trkpt><trkpt lat="45.1707728" lon="10.7688638"><ele>17.0</ele><time>2026-04-05T16:40:10.724Z</time></trkpt><trkpt lat="45.1706959" lon="10.7688103"><ele>17.0</ele><time>2026-04-05T16:40:12.724Z</time></trkpt><trkpt lat="45.1706153" lon="10.7687505"><ele>17.0</ele><time>2026-04-05T16:40:14.724Z</time></trkpt><trkpt lat="45.1705407" lon="10.7686928"><ele>17.0</ele><time>2026-04-05T16:40:16.723Z</time></trkpt><trkpt lat="45.1704652" lon="10.7686381"><ele>16.833333333333336</ele><time>2026-04-05T16:40:18.723Z</time></trkpt><trkpt lat="45.17039" lon="10.7685787"><ele>16.666666666666668</ele><time>2026-04-05T16:40:20.725Z</time></trkpt><trkpt lat="45.1703145" lon="10.7685226"><ele>16.5</ele><time>2026-04-05T16:40:22.725Z</time></trkpt><trkpt lat="45.1702398" lon="10.7684637"><ele>16.333333333333332</ele><time>2026-04-05T16:40:24.724Z</time></trkpt><trkpt lat="45.1701638" lon="10.7684062"><ele>16.166666666666664</ele><time>2026-04-05T16:40:26.724Z</time></trkpt><trkpt lat="45.1700836" lon="10.7683507"><ele>16.0</ele><time>2026-04-05T16:40:28.724Z</time></trkpt><trkpt lat="45.1700035" lon="10.7682936"><ele>15.999999999999998</ele><time>2026-04-05T16:40:30.725Z</time></trkpt><trkpt lat="45.1699252" lon="10.7682354"><ele>16.0</ele><time>2026-04-05T16:40:32.723Z</time></trkpt><trkpt lat="45.1698468" lon="10.768176"><ele>16.0</ele><time>2026-04-05T16:40:34.722Z</time></trkpt><trkpt lat="45.1697669" lon="10.7681164"><ele>16.0</ele><time>2026-04-05T16:40:36.723Z</time></trkpt><trkpt lat="45.1696901" lon="10.7680573"><ele>15.999999999999998</ele><time>2026-04-05T16:40:38.725Z</time></trkpt><trkpt lat="45.1696188" lon="10.7679967"><ele>16.0</ele><time>2026-04-05T16:40:40.725Z</time></trkpt><trkpt lat="45.1695399" lon="10.7679443"><ele>15.833333333333332</ele><time>2026-04-05T16:40:42.723Z</time></trkpt><trkpt lat="45.169461" lon="10.7679075"><ele>15.666666666666666</ele><time>2026-04-05T16:40:44.723Z</time></trkpt><trkpt lat="45.1693987" lon="10.7678484"><ele>15.5</ele><time>2026-04-05T16:40:46.724Z</time></trkpt><trkpt lat="45.1693596" lon="10.767745"><ele>15.333333333333332</ele><time>2026-04-05T16:40:48.723Z</time></trkpt><trkpt lat="45.1693163" lon="10.7676084"><ele>15.166666666666666</ele><time>2026-04-05T16:40:51.645Z</time></trkpt><trkpt lat="45.1692927" lon="10.7675165"><ele>15.0</ele><time>2026-04-05T16:40:52.724Z</time></trkpt><trkpt lat="45.1692542" lon="10.7674037"><ele>15.166666666666666</ele><time>2026-04-05T16:40:54.724Z</time></trkpt><trkpt lat="45.1692184" lon="10.7672906"><ele>15.333333333333332</ele><time>2026-04-05T16:40:56.724Z</time></trkpt><trkpt lat="45.1691837" lon="10.7671816"><ele>15.5</ele><time>2026-04-05T16:40:58.724Z</time></trkpt><trkpt lat="45.1691482" lon="10.7670746"><ele>15.666666666666666</ele><time>2026-04-05T16:41:00.724Z</time></trkpt><trkpt lat="45.1691109" lon="10.7669732"><ele>15.833333333333332</ele><time>2026-04-05T16:41:02.724Z</time></trkpt><trkpt lat="45.16909" lon="10.7668621"><ele>16.0</ele><time>2026-04-05T16:41:04.724Z</time></trkpt><trkpt lat="45.1691187" lon="10.7667464"><ele>15.999999999999998</ele><time>2026-04-05T16:41:06.723Z</time></trkpt><trkpt lat="45.1691423" lon="10.7666258"><ele>16.0</ele><time>2026-04-05T16:41:08.724Z</time></trkpt><trkpt lat="45.1691678" lon="10.7665036"><ele>16.0</ele><time>2026-04-05T16:41:10.724Z</time></trkpt><trkpt lat="45.1691905" lon="10.7663868"><ele>16.0</ele><time>2026-04-05T16:41:12.723Z</time></trkpt><trkpt lat="45.1692146" lon="10.7662681"><ele>15.999999999999998</ele><time>2026-04-05T16:41:14.725Z</time></trkpt><trkpt lat="45.1692358" lon="10.7661498"><ele>16.0</ele><time>2026-04-05T16:41:16.724Z</time></trkpt><trkpt lat="45.169261" lon="10.7660297"><ele>15.833333333333332</ele><time>2026-04-05T16:41:18.725Z</time></trkpt><trkpt lat="45.1692846" lon="10.7659095"><ele>15.666666666666666</ele><time>2026-04-05T16:41:20.724Z</time></trkpt><trkpt lat="45.1693064" lon="10.7657962"><ele>15.5</ele><time>2026-04-05T16:41:22.724Z</time></trkpt><trkpt lat="45.1693293" lon="10.7656768"><ele>15.333333333333332</ele><time>2026-04-05T16:41:24.723Z</time></trkpt><trkpt lat="45.1693584" lon="10.7655613"><ele>15.166666666666666</ele><time>2026-04-05T16:41:26.725Z</time></trkpt><trkpt lat="45.1693821" lon="10.7654342"><ele>15.0</ele><time>2026-04-05T16:41:28.723Z</time></trkpt><trkpt lat="45.1693976" lon="10.7653185"><ele>15.0</ele><time>2026-04-05T16:41:30.723Z</time></trkpt><trkpt lat="45.1694201" lon="10.7651976"><ele>15.0</ele><time>2026-04-05T16:41:32.723Z</time></trkpt><trkpt lat="45.1694385" lon="10.7650735"><ele>15.0</ele><time>2026-04-05T16:41:34.723Z</time></trkpt><trkpt lat="45.1694636" lon="10.7649516"><ele>15.0</ele><time>2026-04-05T16:41:36.724Z</time></trkpt><trkpt lat="45.1694906" lon="10.7648338"><ele>15.0</ele><time>2026-04-05T16:41:38.724Z</time></trkpt><trkpt lat="45.1695096" lon="10.7647214"><ele>15.0</ele><time>2026-04-05T16:41:40.723Z</time></trkpt><trkpt lat="45.169534" lon="10.7646078"><ele>15.166666666666666</ele><time>2026-04-05T16:41:42.724Z</time></trkpt><trkpt lat="45.1695594" lon="10.7644907"><ele>15.333333333333332</ele><time>2026-04-05T16:41:44.724Z</time></trkpt><trkpt lat="45.1695849" lon="10.7643776"><ele>15.5</ele><time>2026-04-05T16:41:46.723Z</time></trkpt><trkpt lat="45.1696122" lon="10.7642591"><ele>15.666666666666666</ele><time>2026-04-05T16:41:48.724Z</time></trkpt><trkpt lat="45.1696383" lon="10.7641452"><ele>15.833333333333332</ele><time>2026-04-05T16:41:50.723Z</time></trkpt><trkpt lat="45.1696625" lon="10.7640269"><ele>16.0</ele><time>2026-04-05T16:41:52.723Z</time></trkpt><trkpt lat="45.1696811" lon="10.7638965"><ele>15.999999999999998</ele><time>2026-04-05T16:41:54.723Z</time></trkpt><trkpt lat="45.1697037" lon="10.7637882"><ele>16.0</ele><time>2026-04-05T16:41:56.724Z</time></trkpt><trkpt lat="45.1697241" lon="10.7636687"><ele>16.0</ele><time>2026-04-05T16:41:58.723Z</time></trkpt><trkpt lat="45.1697495" lon="10.763556"><ele>16.0</ele><time>2026-04-05T16:42:00.723Z</time></trkpt><trkpt lat="45.1697746" lon="10.7634404"><ele>15.999999999999998</ele><time>2026-04-05T16:42:02.724Z</time></trkpt><trkpt lat="45.169799" lon="10.7633238"><ele>16.0</ele><time>2026-04-05T16:42:04.723Z</time></trkpt><trkpt lat="45.1698264" lon="10.7632073"><ele>15.999999999999998</ele><time>2026-04-05T16:42:06.722Z</time></trkpt><trkpt lat="45.1698542" lon="10.7630885"><ele>16.0</ele><time>2026-04-05T16:42:08.724Z</time></trkpt><trkpt lat="45.1698824" lon="10.7629731"><ele>16.0</ele><time>2026-04-05T16:42:10.723Z</time></trkpt><trkpt lat="45.1699035" lon="10.7628463"><ele>16.0</ele><time>2026-04-05T16:42:12.723Z</time></trkpt><trkpt lat="45.1699289" lon="10.7627266"><ele>15.999999999999998</ele><time>2026-04-05T16:42:14.723Z</time></trkpt><trkpt lat="45.1699504" lon="10.7626033"><ele>16.0</ele><time>2026-04-05T16:42:16.724Z</time></trkpt><trkpt lat="45.1699825" lon="10.7624875"><ele>15.999999999999998</ele><time>2026-04-05T16:42:18.723Z</time></trkpt><trkpt lat="45.1700178" lon="10.7623762"><ele>16.0</ele><time>2026-04-05T16:42:20.724Z</time></trkpt><trkpt lat="45.170052" lon="10.7622671"><ele>16.0</ele><time>2026-04-05T16:42:22.725Z</time></trkpt><trkpt lat="45.170078" lon="10.7621539"><ele>16.0</ele><time>2026-04-05T16:42:24.723Z</time></trkpt><trkpt lat="45.1701009" lon="10.7620382"><ele>15.999999999999998</ele><time>2026-04-05T16:42:26.724Z</time></trkpt><trkpt lat="45.1700818" lon="10.7619512"><ele>16.0</ele><time>2026-04-05T16:42:27.725Z</time></trkpt><trkpt lat="45.1701059" lon="10.7618276"><ele>15.999999999999998</ele><time>2026-04-05T16:42:29.722Z</time></trkpt><trkpt lat="45.1701314" lon="10.7617137"><ele>16.0</ele><time>2026-04-05T16:42:31.724Z</time></trkpt><trkpt lat="45.170144" lon="10.7616154"><ele>16.0</ele><time>2026-04-05T16:42:33.724Z</time></trkpt><trkpt lat="45.170165" lon="10.7614926"><ele>16.0</ele><time>2026-04-05T16:42:36.723Z</time></trkpt><trkpt lat="45.1701834" lon="10.7613882"><ele>15.999999999999998</ele><time>2026-04-05T16:42:38.722Z</time></trkpt><trkpt lat="45.1702087" lon="10.7612844"><ele>16.0</ele><time>2026-04-05T16:42:40.724Z</time></trkpt><trkpt lat="45.1702324" lon="10.7611885"><ele>15.999999999999998</ele><time>2026-04-05T16:42:42.724Z</time></trkpt><trkpt lat="45.1702693" lon="10.7610992"><ele>16.0</ele><time>2026-04-05T16:42:44.724Z</time></trkpt><trkpt lat="45.1702953" lon="10.7609913"><ele>16.0</ele><time>2026-04-05T16:42:46.723Z</time></trkpt><trkpt lat="45.1703135" lon="10.7608791"><ele>16.0</ele><time>2026-04-05T16:42:48.723Z</time></trkpt><trkpt lat="45.17033" lon="10.7607771"><ele>15.999999999999998</ele><time>2026-04-05T16:42:50.724Z</time></trkpt><trkpt lat="45.1703507" lon="10.7606727"><ele>16.0</ele><time>2026-04-05T16:42:52.723Z</time></trkpt><trkpt lat="45.1703715" lon="10.7605598"><ele>15.999999999999998</ele><time>2026-04-05T16:42:54.724Z</time></trkpt><trkpt lat="45.1703951" lon="10.7604499"><ele>16.0</ele><time>2026-04-05T16:42:56.723Z</time></trkpt><trkpt lat="45.1704094" lon="10.760339"><ele>16.0</ele><time>2026-04-05T16:42:58.723Z</time></trkpt><trkpt lat="45.1704299" lon="10.7602238"><ele>16.0</ele><time>2026-04-05T16:43:00.723Z</time></trkpt><trkpt lat="45.1704506" lon="10.7601109"><ele>15.999999999999998</ele><time>2026-04-05T16:43:02.724Z</time></trkpt><trkpt lat="45.1704684" lon="10.7600202"><ele>16.0</ele><time>2026-04-05T16:43:04.722Z</time></trkpt><trkpt lat="45.1704882" lon="10.7599292"><ele>16.0</ele><time>2026-04-05T16:43:06.723Z</time></trkpt><trkpt lat="45.1705117" lon="10.7598356"><ele>15.999999999999998</ele><time>2026-04-05T16:43:08.725Z</time></trkpt><trkpt lat="45.1705286" lon="10.7597372"><ele>16.0</ele><time>2026-04-05T16:43:10.724Z</time></trkpt><trkpt lat="45.1705477" lon="10.7596465"><ele>16.0</ele><time>2026-04-05T16:43:12.723Z</time></trkpt><trkpt lat="45.1705717" lon="10.7595489"><ele>15.999999999999998</ele><time>2026-04-05T16:43:14.724Z</time></trkpt><trkpt lat="45.1706166" lon="10.7594753"><ele>16.0</ele><time>2026-04-05T16:43:16.722Z</time></trkpt><trkpt lat="45.1706772" lon="10.7594448"><ele>16.0</ele><time>2026-04-05T16:43:18.724Z</time></trkpt><trkpt lat="45.1707663" lon="10.7594824"><ele>16.333333333333332</ele><time>2026-04-05T16:43:21.724Z</time></trkpt><trkpt lat="45.1708304" lon="10.7595016"><ele>16.666666666666664</ele><time>2026-04-05T16:43:23.723Z</time></trkpt><trkpt lat="45.1709127" lon="10.7595576"><ele>17.0</ele><time>2026-04-05T16:43:26.723Z</time></trkpt><trkpt lat="45.1709897" lon="10.7595873"><ele>17.333333333333332</ele><time>2026-04-05T16:43:29.723Z</time></trkpt><trkpt lat="45.17105" lon="10.759613"><ele>17.666666666666668</ele><time>2026-04-05T16:43:31.722Z</time></trkpt><trkpt lat="45.1711366" lon="10.7596331"><ele>18.0</ele><time>2026-04-05T16:43:34.723Z</time></trkpt><trkpt lat="45.1712255" lon="10.7596527"><ele>18.000000000000004</ele><time>2026-04-05T16:43:37.723Z</time></trkpt><trkpt lat="45.1712698" lon="10.7595613"><ele>18.0</ele><time>2026-04-05T16:43:41.722Z</time></trkpt><trkpt lat="45.1712219" lon="10.7594631"><ele>18.0</ele><time>2026-04-05T16:43:44.723Z</time></trkpt><trkpt lat="45.1711732" lon="10.7594016"><ele>18.0</ele><time>2026-04-05T16:43:46.722Z</time></trkpt><trkpt lat="45.1711433" lon="10.7593217"><ele>18.0</ele><time>2026-04-05T16:43:48.724Z</time></trkpt><trkpt lat="45.1711372" lon="10.7592328"><ele>18.000000000000004</ele><time>2026-04-05T16:43:50.723Z</time></trkpt><trkpt lat="45.1711317" lon="10.7591001"><ele>18.0</ele><time>2026-04-05T16:43:53.723Z</time></trkpt><trkpt lat="45.1711195" lon="10.7590081"><ele>17.833333333333332</ele><time>2026-04-05T16:43:55.723Z</time></trkpt><trkpt lat="45.1710617" lon="10.7589349"><ele>17.666666666666668</ele><time>2026-04-05T16:43:57.723Z</time></trkpt><trkpt lat="45.170983" lon="10.758895"><ele>17.5</ele><time>2026-04-05T16:43:59.724Z</time></trkpt><trkpt lat="45.170895" lon="10.7588779"><ele>17.333333333333336</ele><time>2026-04-05T16:44:01.723Z</time></trkpt><trkpt lat="45.1708086" lon="10.7588657"><ele>17.166666666666668</ele><time>2026-04-05T16:44:03.722Z</time></trkpt><trkpt lat="45.1707246" lon="10.7588594"><ele>17.0</ele><time>2026-04-05T16:44:05.723Z</time></trkpt><trkpt lat="45.1706429" lon="10.7588548"><ele>17.0</ele><time>2026-04-05T16:44:07.724Z</time></trkpt><trkpt lat="45.1705558" lon="10.7588519"><ele>17.0</ele><time>2026-04-05T16:44:09.722Z</time></trkpt><trkpt lat="45.1704716" lon="10.7588489"><ele>17.0</ele><time>2026-04-05T16:44:11.724Z</time></trkpt><trkpt lat="45.1703839" lon="10.7588477"><ele>17.0</ele><time>2026-04-05T16:44:13.723Z</time></trkpt><trkpt lat="45.1702987" lon="10.7588458"><ele>17.0</ele><time>2026-04-05T16:44:15.723Z</time></trkpt><trkpt lat="45.1702116" lon="10.7588415"><ele>17.0</ele><time>2026-04-05T16:44:17.723Z</time></trkpt><trkpt lat="45.1701286" lon="10.7588355"><ele>17.0</ele><time>2026-04-05T16:44:19.723Z</time></trkpt><trkpt lat="45.170046" lon="10.7588303"><ele>17.0</ele><time>2026-04-05T16:44:21.723Z</time></trkpt><trkpt lat="45.1699568" lon="10.7588248"><ele>17.0</ele><time>2026-04-05T16:44:23.724Z</time></trkpt><trkpt lat="45.1698632" lon="10.7588118"><ele>17.0</ele><time>2026-04-05T16:44:25.723Z</time></trkpt><trkpt lat="45.1697688" lon="10.7588118"><ele>17.0</ele><time>2026-04-05T16:44:27.722Z</time></trkpt><trkpt lat="45.169682" lon="10.7588121"><ele>17.0</ele><time>2026-04-05T16:44:29.723Z</time></trkpt><trkpt lat="45.1695929" lon="10.7588161"><ele>17.0</ele><time>2026-04-05T16:44:31.723Z</time></trkpt><trkpt lat="45.1695013" lon="10.7588088"><ele>17.0</ele><time>2026-04-05T16:44:33.722Z</time></trkpt><trkpt lat="45.1694141" lon="10.7587958"><ele>17.0</ele><time>2026-04-05T16:44:35.722Z</time></trkpt><trkpt lat="45.1693248" lon="10.7587961"><ele>17.0</ele><time>2026-04-05T16:44:37.723Z</time></trkpt><trkpt lat="45.1692382" lon="10.7587909"><ele>17.0</ele><time>2026-04-05T16:44:39.722Z</time></trkpt><trkpt lat="45.1691541" lon="10.7587875"><ele>17.0</ele><time>2026-04-05T16:44:41.722Z</time></trkpt><trkpt lat="45.1690685" lon="10.7587787"><ele>17.0</ele><time>2026-04-05T16:44:43.722Z</time></trkpt><trkpt lat="45.1689809" lon="10.758774"><ele>17.0</ele><time>2026-04-05T16:44:45.723Z</time></trkpt><trkpt lat="45.1688943" lon="10.7587701"><ele>17.0</ele><time>2026-04-05T16:44:47.724Z</time></trkpt><trkpt lat="45.1688099" lon="10.7587659"><ele>17.0</ele><time>2026-04-05T16:44:49.722Z</time></trkpt><trkpt lat="45.1687288" lon="10.7587677"><ele>17.0</ele><time>2026-04-05T16:44:51.723Z</time></trkpt><trkpt lat="45.1686458" lon="10.7587614"><ele>17.0</ele><time>2026-04-05T16:44:53.724Z</time></trkpt><trkpt lat="45.1685636" lon="10.7587553"><ele>17.0</ele><time>2026-04-05T16:44:55.723Z</time></trkpt><trkpt lat="45.1684823" lon="10.7587544"><ele>17.0</ele><time>2026-04-05T16:44:57.722Z</time></trkpt><trkpt lat="45.168404" lon="10.7587536"><ele>17.0</ele><time>2026-04-05T16:44:59.721Z</time></trkpt><trkpt lat="45.1683281" lon="10.7587497"><ele>17.0</ele><time>2026-04-05T16:45:01.723Z</time></trkpt><trkpt lat="45.1682538" lon="10.7587513"><ele>17.0</ele><time>2026-04-05T16:45:03.723Z</time></trkpt><trkpt lat="45.1681837" lon="10.758757"><ele>17.0</ele><time>2026-04-05T16:45:05.721Z</time></trkpt><trkpt lat="45.1681107" lon="10.7587566"><ele>16.857142857142854</ele><time>2026-04-05T16:45:07.723Z</time></trkpt><trkpt lat="45.1680567" lon="10.7587029"><ele>16.714285714285715</ele><time>2026-04-05T16:45:09.723Z</time></trkpt><trkpt lat="45.1680558" lon="10.7586132"><ele>16.57142857142857</ele><time>2026-04-05T16:45:11.722Z</time></trkpt><trkpt lat="45.1680555" lon="10.7584793"><ele>16.428571428571427</ele><time>2026-04-05T16:45:14.723Z</time></trkpt><trkpt lat="45.1680694" lon="10.7583878"><ele>16.285714285714285</ele><time>2026-04-05T16:45:16.722Z</time></trkpt><trkpt lat="45.1680837" lon="10.7582924"><ele>16.142857142857142</ele><time>2026-04-05T16:45:18.723Z</time></trkpt><trkpt lat="45.1680986" lon="10.7581953"><ele>16.0</ele><time>2026-04-05T16:45:20.721Z</time></trkpt><trkpt lat="45.1681188" lon="10.7581008"><ele>16.285714285714285</ele><time>2026-04-05T16:45:22.723Z</time></trkpt><trkpt lat="45.1681383" lon="10.7580036"><ele>16.57142857142857</ele><time>2026-04-05T16:45:24.723Z</time></trkpt><trkpt lat="45.1681602" lon="10.7579035"><ele>16.857142857142858</ele><time>2026-04-05T16:45:26.722Z</time></trkpt><trkpt lat="45.1681815" lon="10.757803"><ele>17.142857142857142</ele><time>2026-04-05T16:45:28.723Z</time></trkpt><trkpt lat="45.1682039" lon="10.7577065"><ele>17.42857142857143</ele><time>2026-04-05T16:45:30.723Z</time></trkpt><trkpt lat="45.1682309" lon="10.7576104"><ele>17.714285714285715</ele><time>2026-04-05T16:45:32.723Z</time></trkpt><trkpt lat="45.168255" lon="10.757513"><ele>18.0</ele><time>2026-04-05T16:45:34.722Z</time></trkpt><trkpt lat="45.1682673" lon="10.7574176"><ele>18.000000000000004</ele><time>2026-04-05T16:45:36.722Z</time></trkpt><trkpt lat="45.1682782" lon="10.7573215"><ele>18.0</ele><time>2026-04-05T16:45:38.723Z</time></trkpt><trkpt lat="45.1682829" lon="10.7572201"><ele>18.0</ele><time>2026-04-05T16:45:40.723Z</time></trkpt><trkpt lat="45.1682775" lon="10.7571183"><ele>18.0</ele><time>2026-04-05T16:45:42.723Z</time></trkpt><trkpt lat="45.1682714" lon="10.7570153"><ele>18.0</ele><time>2026-04-05T16:45:44.723Z</time></trkpt><trkpt lat="45.1682691" lon="10.7569097"><ele>18.000000000000004</ele><time>2026-04-05T16:45:46.722Z</time></trkpt><trkpt lat="45.1682646" lon="10.7568043"><ele>18.0</ele><time>2026-04-05T16:45:48.724Z</time></trkpt><trkpt lat="45.1682589" lon="10.7566996"><ele>17.714285714285715</ele><time>2026-04-05T16:45:50.722Z</time></trkpt><trkpt lat="45.1682593" lon="10.7565949"><ele>17.42857142857143</ele><time>2026-04-05T16:45:52.722Z</time></trkpt><trkpt lat="45.1682576" lon="10.7564894"><ele>17.142857142857142</ele><time>2026-04-05T16:45:54.723Z</time></trkpt><trkpt lat="45.1682595" lon="10.7563839"><ele>16.857142857142858</ele><time>2026-04-05T16:45:56.722Z</time></trkpt><trkpt lat="45.1682606" lon="10.7562795"><ele>16.57142857142857</ele><time>2026-04-05T16:45:58.723Z</time></trkpt><trkpt lat="45.1682563" lon="10.7561785"><ele>16.285714285714285</ele><time>2026-04-05T16:46:00.724Z</time></trkpt><trkpt lat="45.1682585" lon="10.7560806"><ele>16.0</ele><time>2026-04-05T16:46:02.724Z</time></trkpt><trkpt lat="45.1682579" lon="10.7559868"><ele>16.0</ele><time>2026-04-05T16:46:04.724Z</time></trkpt><trkpt lat="45.1682561" lon="10.7558934"><ele>15.999999999999998</ele><time>2026-04-05T16:46:06.723Z</time></trkpt><trkpt lat="45.1682506" lon="10.7557904"><ele>16.0</ele><time>2026-04-05T16:46:08.723Z</time></trkpt><trkpt lat="45.1682461" lon="10.7556872"><ele>16.0</ele><time>2026-04-05T16:46:10.722Z</time></trkpt><trkpt lat="45.1682435" lon="10.7555848"><ele>15.999999999999998</ele><time>2026-04-05T16:46:12.723Z</time></trkpt><trkpt lat="45.1682376" lon="10.7554786"><ele>16.0</ele><time>2026-04-05T16:46:14.722Z</time></trkpt><trkpt lat="45.1682333" lon="10.7553711"><ele>16.0</ele><time>2026-04-05T16:46:16.722Z</time></trkpt><trkpt lat="45.168228" lon="10.7552665"><ele>15.999999999999998</ele><time>2026-04-05T16:46:18.721Z</time></trkpt><trkpt lat="45.168222" lon="10.7551597"><ele>16.0</ele><time>2026-04-05T16:46:20.723Z</time></trkpt><trkpt lat="45.1682183" lon="10.7550543"><ele>16.0</ele><time>2026-04-05T16:46:22.723Z</time></trkpt><trkpt lat="45.168214" lon="10.754947"><ele>16.0</ele><time>2026-04-05T16:46:24.721Z</time></trkpt><trkpt lat="45.1682096" lon="10.754839"><ele>15.999999999999998</ele><time>2026-04-05T16:46:26.722Z</time></trkpt><trkpt lat="45.1682031" lon="10.7547299"><ele>16.0</ele><time>2026-04-05T16:46:28.724Z</time></trkpt><trkpt lat="45.168197" lon="10.7546218"><ele>16.0</ele><time>2026-04-05T16:46:30.722Z</time></trkpt><trkpt lat="45.16819" lon="10.7545147"><ele>15.999999999999998</ele><time>2026-04-05T16:46:32.722Z</time></trkpt><trkpt lat="45.1681831" lon="10.7544081"><ele>16.0</ele><time>2026-04-05T16:46:34.722Z</time></trkpt><trkpt lat="45.1681796" lon="10.7543042"><ele>16.0</ele><time>2026-04-05T16:46:36.722Z</time></trkpt><trkpt lat="45.1681794" lon="10.7541998"><ele>15.999999999999998</ele><time>2026-04-05T16:46:38.721Z</time></trkpt><trkpt lat="45.1681754" lon="10.7540972"><ele>16.0</ele><time>2026-04-05T16:46:40.722Z</time></trkpt><trkpt lat="45.1681776" lon="10.7539987"><ele>16.0</ele><time>2026-04-05T16:46:42.722Z</time></trkpt><trkpt lat="45.1681817" lon="10.7538993"><ele>16.142857142857142</ele><time>2026-04-05T16:46:44.721Z</time></trkpt><trkpt lat="45.1681895" lon="10.7537979"><ele>16.285714285714285</ele><time>2026-04-05T16:46:46.723Z</time></trkpt><trkpt lat="45.1681921" lon="10.7536995"><ele>16.428571428571427</ele><time>2026-04-05T16:46:48.721Z</time></trkpt><trkpt lat="45.168199" lon="10.7536083"><ele>16.57142857142857</ele><time>2026-04-05T16:46:50.721Z</time></trkpt><trkpt lat="45.1682106" lon="10.7534712"><ele>16.714285714285715</ele><time>2026-04-05T16:46:53.723Z</time></trkpt><trkpt lat="45.1682217" lon="10.75337"><ele>16.857142857142854</ele><time>2026-04-05T16:46:55.723Z</time></trkpt><trkpt lat="45.1682379" lon="10.7532744"><ele>17.0</ele><time>2026-04-05T16:46:57.722Z</time></trkpt><trkpt lat="45.168261" lon="10.7531821"><ele>17.285714285714285</ele><time>2026-04-05T16:46:59.722Z</time></trkpt><trkpt lat="45.1682802" lon="10.7530915"><ele>17.57142857142857</ele><time>2026-04-05T16:47:01.721Z</time></trkpt><trkpt lat="45.1683068" lon="10.7529986"><ele>17.857142857142854</ele><time>2026-04-05T16:47:03.722Z</time></trkpt><trkpt lat="45.1683222" lon="10.752903"><ele>18.142857142857142</ele><time>2026-04-05T16:47:05.724Z</time></trkpt><trkpt lat="45.168345" lon="10.7528124"><ele>18.42857142857143</ele><time>2026-04-05T16:47:07.721Z</time></trkpt><trkpt lat="45.1683613" lon="10.7527178"><ele>18.71428571428571</ele><time>2026-04-05T16:47:09.722Z</time></trkpt><trkpt lat="45.1683815" lon="10.7526252"><ele>19.0</ele><time>2026-04-05T16:47:11.722Z</time></trkpt><trkpt lat="45.1684019" lon="10.7525262"><ele>19.0</ele><time>2026-04-05T16:47:13.723Z</time></trkpt><trkpt lat="45.1684256" lon="10.7524274"><ele>19.0</ele><time>2026-04-05T16:47:15.723Z</time></trkpt><trkpt lat="45.1684435" lon="10.7523251"><ele>19.0</ele><time>2026-04-05T16:47:17.722Z</time></trkpt><trkpt lat="45.168469" lon="10.7522295"><ele>19.0</ele><time>2026-04-05T16:47:19.723Z</time></trkpt><trkpt lat="45.1685065" lon="10.7521366"><ele>19.0</ele><time>2026-04-05T16:47:21.722Z</time></trkpt><trkpt lat="45.168558" lon="10.7520605"><ele>19.0</ele><time>2026-04-05T16:47:23.722Z</time></trkpt><trkpt lat="45.1686135" lon="10.7519907"><ele>19.0</ele><time>2026-04-05T16:47:25.722Z</time></trkpt><trkpt lat="45.1686624" lon="10.7519082"><ele>18.833333333333332</ele><time>2026-04-05T16:47:27.723Z</time></trkpt><trkpt lat="45.1687054" lon="10.7518193"><ele>18.666666666666664</ele><time>2026-04-05T16:47:29.722Z</time></trkpt><trkpt lat="45.1687538" lon="10.7517356"><ele>18.5</ele><time>2026-04-05T16:47:31.721Z</time></trkpt><trkpt lat="45.168798" lon="10.7516422"><ele>18.333333333333332</ele><time>2026-04-05T16:47:33.721Z</time></trkpt><trkpt lat="45.168835" lon="10.7515412"><ele>18.166666666666668</ele><time>2026-04-05T16:47:35.722Z</time></trkpt><trkpt lat="45.1688757" lon="10.7514438"><ele>18.0</ele><time>2026-04-05T16:47:37.722Z</time></trkpt><trkpt lat="45.1689237" lon="10.7513605"><ele>18.000000000000004</ele><time>2026-04-05T16:47:39.721Z</time></trkpt><trkpt lat="45.1689635" lon="10.7512644"><ele>18.0</ele><time>2026-04-05T16:47:41.721Z</time></trkpt><trkpt lat="45.1690041" lon="10.7511763"><ele>18.0</ele><time>2026-04-05T16:47:43.722Z</time></trkpt><trkpt lat="45.1690399" lon="10.7510881"><ele>18.0</ele><time>2026-04-05T16:47:45.722Z</time></trkpt><trkpt lat="45.1690792" lon="10.7510029"><ele>18.0</ele><time>2026-04-05T16:47:47.722Z</time></trkpt><trkpt lat="45.1691225" lon="10.7509251"><ele>18.000000000000004</ele><time>2026-04-05T16:47:49.723Z</time></trkpt><trkpt lat="45.1691597" lon="10.750843"><ele>18.0</ele><time>2026-04-05T16:47:51.723Z</time></trkpt><trkpt lat="45.1691913" lon="10.7507524"><ele>18.000000000000004</ele><time>2026-04-05T16:47:53.723Z</time></trkpt><trkpt lat="45.1692283" lon="10.7506663"><ele>18.0</ele><time>2026-04-05T16:47:55.722Z</time></trkpt><trkpt lat="45.1692621" lon="10.7505794"><ele>18.0</ele><time>2026-04-05T16:47:57.722Z</time></trkpt><trkpt lat="45.1692973" lon="10.7504974"><ele>18.0</ele><time>2026-04-05T16:47:59.722Z</time></trkpt><trkpt lat="45.1693334" lon="10.7504143"><ele>18.0</ele><time>2026-04-05T16:48:01.721Z</time></trkpt><trkpt lat="45.1693608" lon="10.7503192"><ele>18.000000000000004</ele><time>2026-04-05T16:48:03.722Z</time></trkpt><trkpt lat="45.1693953" lon="10.7502309"><ele>18.0</ele><time>2026-04-05T16:48:05.723Z</time></trkpt><trkpt lat="45.1694246" lon="10.750138"><ele>18.0</ele><time>2026-04-05T16:48:07.722Z</time></trkpt><trkpt lat="45.1694646" lon="10.7500508"><ele>18.0</ele><time>2026-04-05T16:48:09.721Z</time></trkpt><trkpt lat="45.169507" lon="10.7499614"><ele>18.0</ele><time>2026-04-05T16:48:11.722Z</time></trkpt><trkpt lat="45.1695516" lon="10.7498734"><ele>18.0</ele><time>2026-04-05T16:48:13.723Z</time></trkpt><trkpt lat="45.1695941" lon="10.7497801"><ele>18.0</ele><time>2026-04-05T16:48:15.722Z</time></trkpt><trkpt lat="45.1696322" lon="10.7496842"><ele>18.0</ele><time>2026-04-05T16:48:17.721Z</time></trkpt><trkpt lat="45.1696694" lon="10.7495924"><ele>18.0</ele><time>2026-04-05T16:48:19.722Z</time></trkpt><trkpt lat="45.1697093" lon="10.7495004"><ele>18.0</ele><time>2026-04-05T16:48:21.721Z</time></trkpt><trkpt lat="45.1697498" lon="10.7494094"><ele>18.0</ele><time>2026-04-05T16:48:23.721Z</time></trkpt><trkpt lat="45.1697862" lon="10.7493122"><ele>18.0</ele><time>2026-04-05T16:48:25.721Z</time></trkpt><trkpt lat="45.1698246" lon="10.7492194"><ele>18.0</ele><time>2026-04-05T16:48:27.721Z</time></trkpt><trkpt lat="45.1698649" lon="10.749131"><ele>18.0</ele><time>2026-04-05T16:48:29.722Z</time></trkpt><trkpt lat="45.1699029" lon="10.7490415"><ele>18.333333333333332</ele><time>2026-04-05T16:48:31.722Z</time></trkpt><trkpt lat="45.169951" lon="10.7489455"><ele>18.666666666666668</ele><time>2026-04-05T16:48:33.723Z</time></trkpt><trkpt lat="45.1699931" lon="10.7488417"><ele>19.0</ele><time>2026-04-05T16:48:35.721Z</time></trkpt><trkpt lat="45.1700357" lon="10.7487422"><ele>19.333333333333336</ele><time>2026-04-05T16:48:37.722Z</time></trkpt><trkpt lat="45.1700691" lon="10.7486515"><ele>19.666666666666668</ele><time>2026-04-05T16:48:39.722Z</time></trkpt><trkpt lat="45.1700716" lon="10.7485291"><ele>20.0</ele><time>2026-04-05T16:48:42.722Z</time></trkpt><trkpt lat="45.170085" lon="10.7484054"><ele>20.0</ele><time>2026-04-05T16:48:45.723Z</time></trkpt><trkpt lat="45.1701066" lon="10.7482774"><ele>20.0</ele><time>2026-04-05T16:48:48.723Z</time></trkpt><trkpt lat="45.1701227" lon="10.7481867"><ele>20.0</ele><time>2026-04-05T16:48:50.723Z</time></trkpt><trkpt lat="45.1701367" lon="10.7480954"><ele>20.0</ele><time>2026-04-05T16:48:52.721Z</time></trkpt><trkpt lat="45.1701476" lon="10.7479838"><ele>20.0</ele><time>2026-04-05T16:48:55.723Z</time></trkpt><trkpt lat="45.1701646" lon="10.7478748"><ele>20.0</ele><time>2026-04-05T16:49:06.722Z</time></trkpt><trkpt lat="45.1701783" lon="10.7477538"><ele>19.666666666666668</ele><time>2026-04-05T16:49:09.721Z</time></trkpt><trkpt lat="45.1701919" lon="10.7476601"><ele>19.333333333333336</ele><time>2026-04-05T16:49:11.721Z</time></trkpt><trkpt lat="45.1702041" lon="10.7475604"><ele>19.0</ele><time>2026-04-05T16:49:13.72Z</time></trkpt><trkpt lat="45.1702224" lon="10.7474591"><ele>18.666666666666668</ele><time>2026-04-05T16:49:15.721Z</time></trkpt><trkpt lat="45.1702372" lon="10.7473521"><ele>18.333333333333332</ele><time>2026-04-05T16:49:17.723Z</time></trkpt><trkpt lat="45.1702509" lon="10.747242"><ele>18.0</ele><time>2026-04-05T16:49:19.722Z</time></trkpt><trkpt lat="45.1702679" lon="10.7471266"><ele>18.0</ele><time>2026-04-05T16:49:21.721Z</time></trkpt><trkpt lat="45.1702872" lon="10.7470119"><ele>18.0</ele><time>2026-04-05T16:49:23.723Z</time></trkpt><trkpt lat="45.1703107" lon="10.7468972"><ele>18.0</ele><time>2026-04-05T16:49:25.72Z</time></trkpt><trkpt lat="45.1703302" lon="10.7467793"><ele>18.0</ele><time>2026-04-05T16:49:27.723Z</time></trkpt><trkpt lat="45.1703448" lon="10.7466643"><ele>18.0</ele><time>2026-04-05T16:49:29.722Z</time></trkpt><trkpt lat="45.1703543" lon="10.7465567"><ele>18.0</ele><time>2026-04-05T16:49:31.722Z</time></trkpt><trkpt lat="45.1703646" lon="10.7464543"><ele>17.833333333333332</ele><time>2026-04-05T16:49:33.722Z</time></trkpt><trkpt lat="45.1703526" lon="10.7463275"><ele>17.666666666666668</ele><time>2026-04-05T16:49:36.721Z</time></trkpt><trkpt lat="45.1702893" lon="10.7462328"><ele>17.5</ele><time>2026-04-05T16:49:39.723Z</time></trkpt><trkpt lat="45.1702361" lon="10.7461683"><ele>17.333333333333336</ele><time>2026-04-05T16:49:41.721Z</time></trkpt><trkpt lat="45.1701792" lon="10.7461022"><ele>17.166666666666668</ele><time>2026-04-05T16:49:43.723Z</time></trkpt><trkpt lat="45.1701145" lon="10.7460389"><ele>17.0</ele><time>2026-04-05T16:49:45.723Z</time></trkpt><trkpt lat="45.1700529" lon="10.7459663"><ele>17.0</ele><time>2026-04-05T16:49:47.723Z</time></trkpt><trkpt lat="45.1699877" lon="10.7458956"><ele>17.0</ele><time>2026-04-05T16:49:49.721Z</time></trkpt><trkpt lat="45.1699276" lon="10.7458201"><ele>17.0</ele><time>2026-04-05T16:49:51.722Z</time></trkpt><trkpt lat="45.1698632" lon="10.7457532"><ele>17.0</ele><time>2026-04-05T16:49:53.722Z</time></trkpt><trkpt lat="45.1698028" lon="10.7456808"><ele>17.0</ele><time>2026-04-05T16:49:55.721Z</time></trkpt><trkpt lat="45.1697416" lon="10.7456113"><ele>17.0</ele><time>2026-04-05T16:49:57.722Z</time></trkpt><trkpt lat="45.1696814" lon="10.7455405"><ele>17.0</ele><time>2026-04-05T16:49:59.722Z</time></trkpt><trkpt lat="45.1696186" lon="10.7454741"><ele>17.0</ele><time>2026-04-05T16:50:01.723Z</time></trkpt><trkpt lat="45.1695585" lon="10.7454046"><ele>17.0</ele><time>2026-04-05T16:50:03.722Z</time></trkpt><trkpt lat="45.1695017" lon="10.7453326"><ele>17.0</ele><time>2026-04-05T16:50:05.721Z</time></trkpt><trkpt lat="45.1694412" lon="10.7452637"><ele>17.0</ele><time>2026-04-05T16:50:07.722Z</time></trkpt><trkpt lat="45.1693812" lon="10.7451962"><ele>17.0</ele><time>2026-04-05T16:50:09.722Z</time></trkpt><trkpt lat="45.1693192" lon="10.7451282"><ele>17.0</ele><time>2026-04-05T16:50:11.721Z</time></trkpt><trkpt lat="45.1692561" lon="10.7450565"><ele>17.0</ele><time>2026-04-05T16:50:13.721Z</time></trkpt><trkpt lat="45.1691936" lon="10.7449823"><ele>17.0</ele><time>2026-04-05T16:50:15.722Z</time></trkpt><trkpt lat="45.1691303" lon="10.7449062"><ele>17.0</ele><time>2026-04-05T16:50:17.721Z</time></trkpt><trkpt lat="45.1690625" lon="10.7448391"><ele>17.0</ele><time>2026-04-05T16:50:19.72Z</time></trkpt><trkpt lat="45.1689999" lon="10.7447649"><ele>17.0</ele><time>2026-04-05T16:50:21.721Z</time></trkpt><trkpt lat="45.1689355" lon="10.7446927"><ele>16.999999999999996</ele><time>2026-04-05T16:50:23.723Z</time></trkpt><trkpt lat="45.1688698" lon="10.7446228"><ele>17.0</ele><time>2026-04-05T16:50:25.721Z</time></trkpt><trkpt lat="45.1688085" lon="10.7445639"><ele>17.0</ele><time>2026-04-05T16:50:27.723Z</time></trkpt><trkpt lat="45.1687588" lon="10.7445012"><ele>17.0</ele><time>2026-04-05T16:50:29.722Z</time></trkpt><trkpt lat="45.1687101" lon="10.7444406"><ele>17.0</ele><time>2026-04-05T16:50:31.721Z</time></trkpt><trkpt lat="45.1686577" lon="10.7443782"><ele>16.999999999999996</ele><time>2026-04-05T16:50:33.721Z</time></trkpt><trkpt lat="45.1686035" lon="10.7443219"><ele>17.0</ele><time>2026-04-05T16:50:35.722Z</time></trkpt><trkpt lat="45.1685533" lon="10.7442619"><ele>16.857142857142854</ele><time>2026-04-05T16:50:37.722Z</time></trkpt><trkpt lat="45.1684863" lon="10.7441784"><ele>16.714285714285715</ele><time>2026-04-05T16:50:40.722Z</time></trkpt><trkpt lat="45.1684329" lon="10.7441201"><ele>16.57142857142857</ele><time>2026-04-05T16:50:42.723Z</time></trkpt><trkpt lat="45.1683774" lon="10.7440585"><ele>16.428571428571427</ele><time>2026-04-05T16:50:44.722Z</time></trkpt><trkpt lat="45.1683274" lon="10.7439935"><ele>16.285714285714285</ele><time>2026-04-05T16:50:46.723Z</time></trkpt><trkpt lat="45.1682696" lon="10.7439338"><ele>16.142857142857142</ele><time>2026-04-05T16:50:48.721Z</time></trkpt><trkpt lat="45.1682176" lon="10.7438685"><ele>16.0</ele><time>2026-04-05T16:50:50.72Z</time></trkpt><trkpt lat="45.1681602" lon="10.7437982"><ele>16.0</ele><time>2026-04-05T16:50:52.721Z</time></trkpt><trkpt lat="45.1681035" lon="10.7437295"><ele>15.999999999999998</ele><time>2026-04-05T16:50:54.721Z</time></trkpt><trkpt lat="45.1680431" lon="10.7436667"><ele>16.0</ele><time>2026-04-05T16:50:56.722Z</time></trkpt><trkpt lat="45.1679794" lon="10.7436093"><ele>16.0</ele><time>2026-04-05T16:50:58.72Z</time></trkpt><trkpt lat="45.1679228" lon="10.7435448"><ele>15.999999999999998</ele><time>2026-04-05T16:51:00.722Z</time></trkpt><trkpt lat="45.1678687" lon="10.7434789"><ele>16.0</ele><time>2026-04-05T16:51:02.721Z</time></trkpt><trkpt lat="45.167815" lon="10.7434121"><ele>16.0</ele><time>2026-04-05T16:51:04.721Z</time></trkpt><trkpt lat="45.1677594" lon="10.7433498"><ele>15.999999999999998</ele><time>2026-04-05T16:51:06.721Z</time></trkpt><trkpt lat="45.1676964" lon="10.7433019"><ele>16.0</ele><time>2026-04-05T16:51:08.721Z</time></trkpt><trkpt lat="45.16762" lon="10.7432576"><ele>16.0</ele><time>2026-04-05T16:51:11.721Z</time></trkpt><trkpt lat="45.1676989" lon="10.7433123"><ele>16.0</ele><time>2026-04-05T16:51:19.72Z</time></trkpt><trkpt lat="45.1677687" lon="10.7433636"><ele>15.999999999999998</ele><time>2026-04-05T16:51:21.721Z</time></trkpt><trkpt lat="45.1678309" lon="10.7434271"><ele>16.0</ele><time>2026-04-05T16:51:23.723Z</time></trkpt><trkpt lat="45.167892" lon="10.7434986"><ele>15.999999999999998</ele><time>2026-04-05T16:51:25.722Z</time></trkpt><trkpt lat="45.1679552" lon="10.7435673"><ele>16.0</ele><time>2026-04-05T16:51:27.721Z</time></trkpt><trkpt lat="45.16802" lon="10.7436397"><ele>16.0</ele><time>2026-04-05T16:51:29.722Z</time></trkpt><trkpt lat="45.1680851" lon="10.7437091"><ele>16.0</ele><time>2026-04-05T16:51:31.721Z</time></trkpt><trkpt lat="45.1681447" lon="10.7437791"><ele>15.999999999999998</ele><time>2026-04-05T16:51:33.72Z</time></trkpt><trkpt lat="45.1682031" lon="10.7438495"><ele>16.0</ele><time>2026-04-05T16:51:35.721Z</time></trkpt><trkpt lat="45.1682608" lon="10.7439159"><ele>15.999999999999998</ele><time>2026-04-05T16:51:37.722Z</time></trkpt><trkpt lat="45.1683168" lon="10.7439782"><ele>16.0</ele><time>2026-04-05T16:51:39.721Z</time></trkpt><trkpt lat="45.1683744" lon="10.7440379"><ele>16.0</ele><time>2026-04-05T16:51:41.72Z</time></trkpt><trkpt lat="45.1684298" lon="10.7441039"><ele>16.0</ele><time>2026-04-05T16:51:43.722Z</time></trkpt><trkpt lat="45.1684879" lon="10.744175"><ele>15.999999999999998</ele><time>2026-04-05T16:51:45.72Z</time></trkpt><trkpt lat="45.1685493" lon="10.7442452"><ele>16.0</ele><time>2026-04-05T16:51:47.721Z</time></trkpt><trkpt lat="45.1686149" lon="10.7443105"><ele>16.166666666666664</ele><time>2026-04-05T16:51:49.723Z</time></trkpt><trkpt lat="45.1686766" lon="10.7443824"><ele>16.333333333333332</ele><time>2026-04-05T16:51:51.722Z</time></trkpt><trkpt lat="45.1687403" lon="10.7444533"><ele>16.5</ele><time>2026-04-05T16:51:53.721Z</time></trkpt><trkpt lat="45.1687991" lon="10.7445263"><ele>16.666666666666668</ele><time>2026-04-05T16:51:55.721Z</time></trkpt><trkpt lat="45.1688585" lon="10.7446045"><ele>16.833333333333336</ele><time>2026-04-05T16:51:57.721Z</time></trkpt><trkpt lat="45.1689251" lon="10.7446791"><ele>17.0</ele><time>2026-04-05T16:51:59.721Z</time></trkpt><trkpt lat="45.1689966" lon="10.7447549"><ele>17.0</ele><time>2026-04-05T16:52:01.72Z</time></trkpt><trkpt lat="45.1690629" lon="10.7448314"><ele>17.0</ele><time>2026-04-05T16:52:03.722Z</time></trkpt><trkpt lat="45.1691307" lon="10.7449055"><ele>17.0</ele><time>2026-04-05T16:52:05.721Z</time></trkpt><trkpt lat="45.1691991" lon="10.7449769"><ele>17.0</ele><time>2026-04-05T16:52:07.721Z</time></trkpt><trkpt lat="45.1692628" lon="10.7450539"><ele>17.0</ele><time>2026-04-05T16:52:09.723Z</time></trkpt><trkpt lat="45.1693254" lon="10.7451248"><ele>17.0</ele><time>2026-04-05T16:52:11.721Z</time></trkpt><trkpt lat="45.1693886" lon="10.7451941"><ele>17.166666666666668</ele><time>2026-04-05T16:52:13.723Z</time></trkpt><trkpt lat="45.1694487" lon="10.7452627"><ele>17.333333333333336</ele><time>2026-04-05T16:52:15.721Z</time></trkpt><trkpt lat="45.1695102" lon="10.7453288"><ele>17.5</ele><time>2026-04-05T16:52:17.721Z</time></trkpt><trkpt lat="45.1695714" lon="10.7453968"><ele>17.666666666666668</ele><time>2026-04-05T16:52:19.72Z</time></trkpt><trkpt lat="45.1696318" lon="10.7454656"><ele>17.833333333333332</ele><time>2026-04-05T16:52:21.72Z</time></trkpt><trkpt lat="45.1696916" lon="10.7455347"><ele>18.0</ele><time>2026-04-05T16:52:23.72Z</time></trkpt><trkpt lat="45.1697512" lon="10.7456069"><ele>18.0</ele><time>2026-04-05T16:52:25.721Z</time></trkpt><trkpt lat="45.1698113" lon="10.7456819"><ele>18.0</ele><time>2026-04-05T16:52:27.721Z</time></trkpt><trkpt lat="45.1698706" lon="10.7457567"><ele>18.0</ele><time>2026-04-05T16:52:29.722Z</time></trkpt><trkpt lat="45.1699325" lon="10.7458272"><ele>18.0</ele><time>2026-04-05T16:52:31.721Z</time></trkpt><trkpt lat="45.1699955" lon="10.7458987"><ele>18.0</ele><time>2026-04-05T16:52:33.721Z</time></trkpt><trkpt lat="45.1700561" lon="10.7459758"><ele>18.0</ele><time>2026-04-05T16:52:35.722Z</time></trkpt><trkpt lat="45.1701228" lon="10.7460464"><ele>17.833333333333332</ele><time>2026-04-05T16:52:37.721Z</time></trkpt><trkpt lat="45.1701918" lon="10.7461163"><ele>17.666666666666668</ele><time>2026-04-05T16:52:39.722Z</time></trkpt><trkpt lat="45.1702588" lon="10.7461895"><ele>17.5</ele><time>2026-04-05T16:52:41.721Z</time></trkpt><trkpt lat="45.1703147" lon="10.7462624"><ele>17.333333333333336</ele><time>2026-04-05T16:52:43.721Z</time></trkpt><trkpt lat="45.1703887" lon="10.7462672"><ele>17.166666666666668</ele><time>2026-04-05T16:52:46.722Z</time></trkpt><trkpt lat="45.1704225" lon="10.7461718"><ele>17.0</ele><time>2026-04-05T16:52:48.72Z</time></trkpt><trkpt lat="45.1704662" lon="10.7460699"><ele>17.0</ele><time>2026-04-05T16:52:50.722Z</time></trkpt><trkpt lat="45.17051" lon="10.745964"><ele>17.0</ele><time>2026-04-05T16:52:52.72Z</time></trkpt><trkpt lat="45.1705606" lon="10.7458566"><ele>17.0</ele><time>2026-04-05T16:52:54.722Z</time></trkpt><trkpt lat="45.1706196" lon="10.7457552"><ele>17.0</ele><time>2026-04-05T16:52:56.72Z</time></trkpt><trkpt lat="45.1706742" lon="10.7456475"><ele>17.0</ele><time>2026-04-05T16:52:58.72Z</time></trkpt><trkpt lat="45.1707175" lon="10.7455426"><ele>17.166666666666668</ele><time>2026-04-05T16:53:00.721Z</time></trkpt><trkpt lat="45.1707742" lon="10.7454512"><ele>17.333333333333336</ele><time>2026-04-05T16:53:02.721Z</time></trkpt><trkpt lat="45.1708255" lon="10.7453553"><ele>17.5</ele><time>2026-04-05T16:53:04.721Z</time></trkpt><trkpt lat="45.1708776" lon="10.7452669"><ele>17.666666666666668</ele><time>2026-04-05T16:53:06.722Z</time></trkpt><trkpt lat="45.1709229" lon="10.7451758"><ele>17.833333333333332</ele><time>2026-04-05T16:53:08.721Z</time></trkpt><trkpt lat="45.1709682" lon="10.7450881"><ele>18.0</ele><time>2026-04-05T16:53:10.72Z</time></trkpt><trkpt lat="45.1710101" lon="10.7449976"><ele>18.166666666666668</ele><time>2026-04-05T16:53:12.721Z</time></trkpt><trkpt lat="45.1710527" lon="10.7449015"><ele>18.333333333333332</ele><time>2026-04-05T16:53:14.721Z</time></trkpt><trkpt lat="45.1711039" lon="10.7448146"><ele>18.5</ele><time>2026-04-05T16:53:16.72Z</time></trkpt><trkpt lat="45.1711487" lon="10.744728"><ele>18.666666666666664</ele><time>2026-04-05T16:53:18.72Z</time></trkpt><trkpt lat="45.1711912" lon="10.7446372"><ele>18.833333333333332</ele><time>2026-04-05T16:53:20.722Z</time></trkpt><trkpt lat="45.1712361" lon="10.7445429"><ele>19.0</ele><time>2026-04-05T16:53:22.721Z</time></trkpt><trkpt lat="45.1712832" lon="10.7444583"><ele>19.0</ele><time>2026-04-05T16:53:24.721Z</time></trkpt><trkpt lat="45.1713271" lon="10.7443721"><ele>19.0</ele><time>2026-04-05T16:53:26.722Z</time></trkpt><trkpt lat="45.1713716" lon="10.7442832"><ele>19.0</ele><time>2026-04-05T16:53:28.72Z</time></trkpt><trkpt lat="45.1714197" lon="10.7441917"><ele>19.0</ele><time>2026-04-05T16:53:30.721Z</time></trkpt><trkpt lat="45.1714696" lon="10.7440953"><ele>19.0</ele><time>2026-04-05T16:53:32.719Z</time></trkpt><trkpt lat="45.1715198" lon="10.7439985"><ele>19.0</ele><time>2026-04-05T16:53:34.721Z</time></trkpt><trkpt lat="45.1715726" lon="10.7438984"><ele>19.0</ele><time>2026-04-05T16:53:36.721Z</time></trkpt><trkpt lat="45.1716221" lon="10.7437961"><ele>19.0</ele><time>2026-04-05T16:53:38.721Z</time></trkpt><trkpt lat="45.1716616" lon="10.7436918"><ele>19.0</ele><time>2026-04-05T16:53:40.721Z</time></trkpt><trkpt lat="45.1717013" lon="10.7435758"><ele>19.0</ele><time>2026-04-05T16:53:42.722Z</time></trkpt><trkpt lat="45.1717349" lon="10.7434585"><ele>19.0</ele><time>2026-04-05T16:53:44.72Z</time></trkpt><trkpt lat="45.1717666" lon="10.7433404"><ele>19.0</ele><time>2026-04-05T16:53:46.72Z</time></trkpt><trkpt lat="45.1717958" lon="10.7432201"><ele>18.833333333333332</ele><time>2026-04-05T16:53:48.721Z</time></trkpt><trkpt lat="45.1718176" lon="10.7430992"><ele>18.666666666666664</ele><time>2026-04-05T16:53:50.722Z</time></trkpt><trkpt lat="45.1718418" lon="10.7429886"><ele>18.5</ele><time>2026-04-05T16:53:52.72Z</time></trkpt><trkpt lat="45.1718634" lon="10.7428833"><ele>18.333333333333332</ele><time>2026-04-05T16:53:54.72Z</time></trkpt><trkpt lat="45.1718876" lon="10.7427793"><ele>18.166666666666668</ele><time>2026-04-05T16:53:56.72Z</time></trkpt><trkpt lat="45.1719145" lon="10.7426806"><ele>18.0</ele><time>2026-04-05T16:53:58.721Z</time></trkpt><trkpt lat="45.1719361" lon="10.742584"><ele>18.0</ele><time>2026-04-05T16:54:00.719Z</time></trkpt><trkpt lat="45.1719649" lon="10.7424861"><ele>18.0</ele><time>2026-04-05T16:54:02.72Z</time></trkpt><trkpt lat="45.1719923" lon="10.7423844"><ele>18.0</ele><time>2026-04-05T16:54:04.722Z</time></trkpt><trkpt lat="45.1720243" lon="10.7422844"><ele>18.0</ele><time>2026-04-05T16:54:06.721Z</time></trkpt><trkpt lat="45.1720566" lon="10.7421763"><ele>18.0</ele><time>2026-04-05T16:54:09.722Z</time></trkpt><trkpt lat="45.1720808" lon="10.7420771"><ele>18.0</ele><time>2026-04-05T16:55:12.721Z</time></trkpt><trkpt lat="45.1721136" lon="10.7419656"><ele>18.0</ele><time>2026-04-05T16:55:15.721Z</time></trkpt><trkpt lat="45.172151" lon="10.741853"><ele>18.0</ele><time>2026-04-05T16:55:18.719Z</time></trkpt><trkpt lat="45.1721917" lon="10.7417396"><ele>18.0</ele><time>2026-04-05T16:55:21.719Z</time></trkpt><trkpt lat="45.1722353" lon="10.7416247"><ele>18.0</ele><time>2026-04-05T16:55:24.722Z</time></trkpt><trkpt lat="45.1722803" lon="10.74152"><ele>18.0</ele><time>2026-04-05T16:55:27.72Z</time></trkpt><trkpt lat="45.1723182" lon="10.7414172"><ele>18.0</ele><time>2026-04-05T16:55:30.721Z</time></trkpt><trkpt lat="45.1723474" lon="10.7413213"><ele>18.0</ele><time>2026-04-05T16:55:33.72Z</time></trkpt><trkpt lat="45.172377" lon="10.7412127"><ele>18.0</ele><time>2026-04-05T16:55:36.72Z</time></trkpt><trkpt lat="45.1724156" lon="10.7410992"><ele>18.0</ele><time>2026-04-05T16:55:39.72Z</time></trkpt><trkpt lat="45.1724603" lon="10.740988"><ele>18.0</ele><time>2026-04-05T16:55:42.719Z</time></trkpt><trkpt lat="45.1725038" lon="10.7408786"><ele>18.0</ele><time>2026-04-05T16:55:45.721Z</time></trkpt><trkpt lat="45.1725412" lon="10.7407626"><ele>18.0</ele><time>2026-04-05T16:55:48.72Z</time></trkpt><trkpt lat="45.1725855" lon="10.7406495"><ele>18.0</ele><time>2026-04-05T16:55:51.721Z</time></trkpt><trkpt lat="45.1726352" lon="10.7405377"><ele>18.0</ele><time>2026-04-05T16:55:54.719Z</time></trkpt><trkpt lat="45.1726677" lon="10.7404598"><ele>18.0</ele><time>2026-04-05T16:55:56.722Z</time></trkpt><trkpt lat="45.1727194" lon="10.7403504"><ele>18.0</ele><time>2026-04-05T16:55:59.719Z</time></trkpt><trkpt lat="45.1727748" lon="10.7402442"><ele>18.0</ele><time>2026-04-05T16:56:02.719Z</time></trkpt><trkpt lat="45.1728264" lon="10.7401406"><ele>18.0</ele><time>2026-04-05T16:56:05.719Z</time></trkpt><trkpt lat="45.1728817" lon="10.7400366"><ele>18.0</ele><time>2026-04-05T16:56:08.72Z</time></trkpt><trkpt lat="45.1729218" lon="10.7399603"><ele>18.0</ele><time>2026-04-05T16:56:10.72Z</time></trkpt><trkpt lat="45.1729597" lon="10.7398887"><ele>18.0</ele><time>2026-04-05T16:56:12.72Z</time></trkpt><trkpt lat="45.1730224" lon="10.7397923"><ele>18.0</ele><time>2026-04-05T16:56:15.721Z</time></trkpt><trkpt lat="45.1730767" lon="10.739692"><ele>18.0</ele><time>2026-04-05T16:56:18.72Z</time></trkpt><trkpt lat="45.1731356" lon="10.7396037"><ele>18.0</ele><time>2026-04-05T16:56:21.721Z</time></trkpt><trkpt lat="45.1731924" lon="10.7395236"><ele>18.0</ele><time>2026-04-05T16:56:24.721Z</time></trkpt><trkpt lat="45.1732555" lon="10.7394364"><ele>18.0</ele><time>2026-04-05T16:56:27.72Z</time></trkpt><trkpt lat="45.1733188" lon="10.7393417"><ele>18.0</ele><time>2026-04-05T16:56:30.72Z</time></trkpt><trkpt lat="45.1733771" lon="10.7392405"><ele>18.0</ele><time>2026-04-05T16:56:33.721Z</time></trkpt><trkpt lat="45.1734366" lon="10.7391387"><ele>18.0</ele><time>2026-04-05T16:56:36.72Z</time></trkpt><trkpt lat="45.1734763" lon="10.7390638"><ele>18.0</ele><time>2026-04-05T16:56:38.72Z</time></trkpt><trkpt lat="45.1735282" lon="10.7389661"><ele>18.166666666666668</ele><time>2026-04-05T16:56:41.72Z</time></trkpt><trkpt lat="45.1735777" lon="10.7388637"><ele>18.333333333333332</ele><time>2026-04-05T16:56:44.721Z</time></trkpt><trkpt lat="45.1736314" lon="10.7387699"><ele>18.5</ele><time>2026-04-05T16:56:47.719Z</time></trkpt><trkpt lat="45.1736842" lon="10.7386629"><ele>18.666666666666664</ele><time>2026-04-05T16:56:50.721Z</time></trkpt><trkpt lat="45.1737164" lon="10.7385822"><ele>18.833333333333332</ele><time>2026-04-05T16:56:52.719Z</time></trkpt><trkpt lat="45.1737425" lon="10.7384909"><ele>19.0</ele><time>2026-04-05T16:56:54.72Z</time></trkpt><trkpt lat="45.1737777" lon="10.7383701"><ele>19.0</ele><time>2026-04-05T16:56:57.72Z</time></trkpt><trkpt lat="45.1738053" lon="10.7382837"><ele>19.0</ele><time>2026-04-05T16:56:59.72Z</time></trkpt><trkpt lat="45.1738276" lon="10.7381943"><ele>19.0</ele><time>2026-04-05T16:57:01.72Z</time></trkpt><trkpt lat="45.1738528" lon="10.7381004"><ele>19.0</ele><time>2026-04-05T16:57:03.721Z</time></trkpt><trkpt lat="45.1738736" lon="10.7379897"><ele>19.0</ele><time>2026-04-05T16:57:05.719Z</time></trkpt><trkpt lat="45.1738899" lon="10.7378764"><ele>19.0</ele><time>2026-04-05T16:57:07.719Z</time></trkpt><trkpt lat="45.1739034" lon="10.7377743"><ele>19.0</ele><time>2026-04-05T16:57:09.721Z</time></trkpt><trkpt lat="45.1739234" lon="10.737689"><ele>18.833333333333332</ele><time>2026-04-05T16:57:11.72Z</time></trkpt><trkpt lat="45.1739422" lon="10.7375628"><ele>18.666666666666664</ele><time>2026-04-05T16:57:14.72Z</time></trkpt><trkpt lat="45.1739632" lon="10.7374305"><ele>18.5</ele><time>2026-04-05T16:57:17.72Z</time></trkpt><trkpt lat="45.1739727" lon="10.7373386"><ele>18.333333333333332</ele><time>2026-04-05T16:57:19.721Z</time></trkpt><trkpt lat="45.1739794" lon="10.7372439"><ele>18.166666666666668</ele><time>2026-04-05T16:57:21.719Z</time></trkpt><trkpt lat="45.1739857" lon="10.7371471"><ele>18.0</ele><time>2026-04-05T16:57:23.72Z</time></trkpt><trkpt lat="45.1739858" lon="10.7370503"><ele>18.000000000000004</ele><time>2026-04-05T16:57:25.719Z</time></trkpt><trkpt lat="45.1739817" lon="10.7369564"><ele>18.0</ele><time>2026-04-05T16:57:27.721Z</time></trkpt><trkpt lat="45.1739777" lon="10.7368548"><ele>18.0</ele><time>2026-04-05T16:57:29.721Z</time></trkpt><trkpt lat="45.1739777" lon="10.7367624"><ele>18.0</ele><time>2026-04-05T16:57:31.72Z</time></trkpt><trkpt lat="45.1739803" lon="10.7366708"><ele>18.0</ele><time>2026-04-05T16:57:33.72Z</time></trkpt><trkpt lat="45.1739865" lon="10.736579"><ele>18.000000000000004</ele><time>2026-04-05T16:57:35.72Z</time></trkpt><trkpt lat="45.174002" lon="10.7364843"><ele>18.0</ele><time>2026-04-05T16:57:37.719Z</time></trkpt><trkpt lat="45.1740164" lon="10.7363888"><ele>18.142857142857146</ele><time>2026-04-05T16:57:39.721Z</time></trkpt><trkpt lat="45.174031" lon="10.7362927"><ele>18.285714285714285</ele><time>2026-04-05T16:57:41.719Z</time></trkpt><trkpt lat="45.1740515" lon="10.7361938"><ele>18.42857142857143</ele><time>2026-04-05T16:57:43.719Z</time></trkpt><trkpt lat="45.1740663" lon="10.7360926"><ele>18.571428571428573</ele><time>2026-04-05T16:57:45.72Z</time></trkpt><trkpt lat="45.1740871" lon="10.7360004"><ele>18.714285714285715</ele><time>2026-04-05T16:57:47.719Z</time></trkpt><trkpt lat="45.174106" lon="10.7359088"><ele>18.857142857142858</ele><time>2026-04-05T16:57:49.719Z</time></trkpt><trkpt lat="45.1741238" lon="10.7358174"><ele>19.0</ele><time>2026-04-05T16:57:51.718Z</time></trkpt><trkpt lat="45.1741411" lon="10.7357281"><ele>19.142857142857142</ele><time>2026-04-05T16:57:53.719Z</time></trkpt><trkpt lat="45.1741548" lon="10.7356368"><ele>19.28571428571429</ele><time>2026-04-05T16:57:55.72Z</time></trkpt><trkpt lat="45.1741732" lon="10.735547"><ele>19.42857142857143</ele><time>2026-04-05T16:57:57.719Z</time></trkpt><trkpt lat="45.174197" lon="10.7354562"><ele>19.57142857142857</ele><time>2026-04-05T16:57:59.72Z</time></trkpt><trkpt lat="45.1742143" lon="10.7353603"><ele>19.714285714285715</ele><time>2026-04-05T16:58:01.719Z</time></trkpt><trkpt lat="45.1742375" lon="10.7352623"><ele>19.857142857142858</ele><time>2026-04-05T16:58:03.719Z</time></trkpt><trkpt lat="45.1742619" lon="10.7351592"><ele>20.0</ele><time>2026-04-05T16:58:05.72Z</time></trkpt><trkpt lat="45.1742886" lon="10.7350551"><ele>20.0</ele><time>2026-04-05T16:58:07.719Z</time></trkpt><trkpt lat="45.1743196" lon="10.7349498"><ele>20.0</ele><time>2026-04-05T16:58:09.72Z</time></trkpt><trkpt lat="45.1743478" lon="10.7348435"><ele>20.0</ele><time>2026-04-05T16:58:11.72Z</time></trkpt><trkpt lat="45.1743759" lon="10.7347354"><ele>20.0</ele><time>2026-04-05T16:58:13.72Z</time></trkpt><trkpt lat="45.1744026" lon="10.7346266"><ele>20.0</ele><time>2026-04-05T16:58:15.72Z</time></trkpt><trkpt lat="45.1744333" lon="10.7345203"><ele>20.0</ele><time>2026-04-05T16:58:17.721Z</time></trkpt><trkpt lat="45.1744567" lon="10.7344087"><ele>19.833333333333336</ele><time>2026-04-05T16:58:19.72Z</time></trkpt><trkpt lat="45.1744716" lon="10.7342948"><ele>19.666666666666668</ele><time>2026-04-05T16:58:21.721Z</time></trkpt><trkpt lat="45.1744801" lon="10.7341837"><ele>19.5</ele><time>2026-04-05T16:58:23.72Z</time></trkpt><trkpt lat="45.1744929" lon="10.7340786"><ele>19.333333333333332</ele><time>2026-04-05T16:58:25.72Z</time></trkpt><trkpt lat="45.1745002" lon="10.7339724"><ele>19.166666666666664</ele><time>2026-04-05T16:58:27.718Z</time></trkpt><trkpt lat="45.1745099" lon="10.7338643"><ele>19.0</ele><time>2026-04-05T16:58:29.719Z</time></trkpt><trkpt lat="45.1745205" lon="10.7337584"><ele>19.0</ele><time>2026-04-05T16:58:31.721Z</time></trkpt><trkpt lat="45.1745281" lon="10.7336506"><ele>19.0</ele><time>2026-04-05T16:58:33.719Z</time></trkpt><trkpt lat="45.1745392" lon="10.7335432"><ele>19.0</ele><time>2026-04-05T16:58:35.721Z</time></trkpt><trkpt lat="45.1745462" lon="10.7334357"><ele>19.0</ele><time>2026-04-05T16:58:37.721Z</time></trkpt><trkpt lat="45.1745538" lon="10.7333263"><ele>19.0</ele><time>2026-04-05T16:58:39.719Z</time></trkpt><trkpt lat="45.1745619" lon="10.7332176"><ele>19.0</ele><time>2026-04-05T16:58:41.72Z</time></trkpt><trkpt lat="45.1745677" lon="10.7331153"><ele>19.0</ele><time>2026-04-05T16:58:43.719Z</time></trkpt><trkpt lat="45.1745743" lon="10.733012"><ele>19.0</ele><time>2026-04-05T16:58:45.72Z</time></trkpt><trkpt lat="45.1745834" lon="10.7329191"><ele>19.0</ele><time>2026-04-05T16:58:47.719Z</time></trkpt><trkpt lat="45.1745906" lon="10.7328274"><ele>19.0</ele><time>2026-04-05T16:58:49.72Z</time></trkpt><trkpt lat="45.1746026" lon="10.7327378"><ele>19.0</ele><time>2026-04-05T16:58:51.72Z</time></trkpt><trkpt lat="45.1746132" lon="10.732643"><ele>19.0</ele><time>2026-04-05T16:58:53.72Z</time></trkpt><trkpt lat="45.1746247" lon="10.7325462"><ele>19.0</ele><time>2026-04-05T16:58:55.72Z</time></trkpt><trkpt lat="45.1746346" lon="10.73245"><ele>19.142857142857142</ele><time>2026-04-05T16:58:57.719Z</time></trkpt><trkpt lat="45.1746427" lon="10.7323522"><ele>19.28571428571429</ele><time>2026-04-05T16:58:59.721Z</time></trkpt><trkpt lat="45.1746511" lon="10.7322541"><ele>19.42857142857143</ele><time>2026-04-05T16:59:01.719Z</time></trkpt><trkpt lat="45.1746654" lon="10.7321555"><ele>19.57142857142857</ele><time>2026-04-05T16:59:03.721Z</time></trkpt><trkpt lat="45.174675" lon="10.7320556"><ele>19.714285714285715</ele><time>2026-04-05T16:59:05.72Z</time></trkpt><trkpt lat="45.1746859" lon="10.7319604"><ele>19.857142857142858</ele><time>2026-04-05T16:59:07.72Z</time></trkpt><trkpt lat="45.174697" lon="10.7318657"><ele>20.0</ele><time>2026-04-05T16:59:09.718Z</time></trkpt><trkpt lat="45.1747106" lon="10.7317671"><ele>20.0</ele><time>2026-04-05T16:59:11.719Z</time></trkpt><trkpt lat="45.1747198" lon="10.7316691"><ele>20.0</ele><time>2026-04-05T16:59:13.721Z</time></trkpt><trkpt lat="45.1747277" lon="10.7315662"><ele>20.0</ele><time>2026-04-05T16:59:15.72Z</time></trkpt><trkpt lat="45.1747403" lon="10.731461"><ele>20.0</ele><time>2026-04-05T16:59:17.72Z</time></trkpt><trkpt lat="45.1747502" lon="10.7313512"><ele>20.0</ele><time>2026-04-05T16:59:19.718Z</time></trkpt><trkpt lat="45.1747609" lon="10.7312421"><ele>20.0</ele><time>2026-04-05T16:59:21.721Z</time></trkpt><trkpt lat="45.1747711" lon="10.7311341"><ele>20.0</ele><time>2026-04-05T16:59:23.72Z</time></trkpt><trkpt lat="45.1747791" lon="10.7310374"><ele>20.0</ele><time>2026-04-05T16:59:25.719Z</time></trkpt><trkpt lat="45.1747928" lon="10.7309355"><ele>20.0</ele><time>2026-04-05T16:59:28.72Z</time></trkpt><trkpt lat="45.1747993" lon="10.7308227"><ele>20.0</ele><time>2026-04-05T17:00:39.718Z</time></trkpt><trkpt lat="45.1748087" lon="10.730726"><ele>20.0</ele><time>2026-04-05T17:00:42.72Z</time></trkpt><trkpt lat="45.1748275" lon="10.7306235"><ele>20.0</ele><time>2026-04-05T17:00:45.718Z</time></trkpt><trkpt lat="45.1748541" lon="10.7305126"><ele>20.0</ele><time>2026-04-05T17:00:48.719Z</time></trkpt><trkpt lat="45.174878" lon="10.7303853"><ele>20.0</ele><time>2026-04-05T17:00:51.719Z</time></trkpt><trkpt lat="45.1748867" lon="10.7302956"><ele>20.0</ele><time>2026-04-05T17:00:53.719Z</time></trkpt><trkpt lat="45.1748976" lon="10.7302058"><ele>20.0</ele><time>2026-04-05T17:00:55.718Z</time></trkpt><trkpt lat="45.1749158" lon="10.7301181"><ele>20.0</ele><time>2026-04-05T17:00:57.72Z</time></trkpt><trkpt lat="45.1749358" lon="10.730033"><ele>20.0</ele><time>2026-04-05T17:00:59.719Z</time></trkpt><trkpt lat="45.1749567" lon="10.7299466"><ele>20.0</ele><time>2026-04-05T17:01:01.718Z</time></trkpt><trkpt lat="45.1749728" lon="10.7298594"><ele>20.0</ele><time>2026-04-05T17:01:03.72Z</time></trkpt><trkpt lat="45.1749918" lon="10.7297737"><ele>20.0</ele><time>2026-04-05T17:01:05.719Z</time></trkpt><trkpt lat="45.1750104" lon="10.7296849"><ele>19.857142857142858</ele><time>2026-04-05T17:01:07.718Z</time></trkpt><trkpt lat="45.1750288" lon="10.7295924"><ele>19.714285714285715</ele><time>2026-04-05T17:01:09.719Z</time></trkpt><trkpt lat="45.1750487" lon="10.7295036"><ele>19.57142857142857</ele><time>2026-04-05T17:01:11.719Z</time></trkpt><trkpt lat="45.1750682" lon="10.729417"><ele>19.42857142857143</ele><time>2026-04-05T17:01:13.719Z</time></trkpt><trkpt lat="45.1750852" lon="10.7293283"><ele>19.28571428571429</ele><time>2026-04-05T17:01:15.72Z</time></trkpt><trkpt lat="45.1751025" lon="10.7292414"><ele>19.142857142857142</ele><time>2026-04-05T17:01:17.72Z</time></trkpt><trkpt lat="45.1751157" lon="10.7291516"><ele>19.0</ele><time>2026-04-05T17:01:19.718Z</time></trkpt><trkpt lat="45.1751271" lon="10.7290582"><ele>19.0</ele><time>2026-04-05T17:01:21.719Z</time></trkpt><trkpt lat="45.175133" lon="10.7289615"><ele>19.0</ele><time>2026-04-05T17:01:23.72Z</time></trkpt><trkpt lat="45.1751396" lon="10.7288614"><ele>19.0</ele><time>2026-04-05T17:01:25.72Z</time></trkpt><trkpt lat="45.1751486" lon="10.7287631"><ele>19.0</ele><time>2026-04-05T17:01:27.718Z</time></trkpt><trkpt lat="45.1751566" lon="10.7286622"><ele>19.0</ele><time>2026-04-05T17:01:29.719Z</time></trkpt><trkpt lat="45.1751675" lon="10.7285604"><ele>19.0</ele><time>2026-04-05T17:01:31.719Z</time></trkpt><trkpt lat="45.1751799" lon="10.72846"><ele>19.0</ele><time>2026-04-05T17:01:33.72Z</time></trkpt><trkpt lat="45.1751916" lon="10.7283561"><ele>18.857142857142858</ele><time>2026-04-05T17:01:35.719Z</time></trkpt><trkpt lat="45.1752006" lon="10.7282539"><ele>18.714285714285715</ele><time>2026-04-05T17:01:37.719Z</time></trkpt><trkpt lat="45.1752091" lon="10.7281551"><ele>18.571428571428573</ele><time>2026-04-05T17:01:39.72Z</time></trkpt><trkpt lat="45.1752183" lon="10.728058"><ele>18.42857142857143</ele><time>2026-04-05T17:01:41.72Z</time></trkpt><trkpt lat="45.1752273" lon="10.7279659"><ele>18.285714285714285</ele><time>2026-04-05T17:01:43.719Z</time></trkpt><trkpt lat="45.1752396" lon="10.7278732"><ele>18.142857142857146</ele><time>2026-04-05T17:01:45.718Z</time></trkpt><trkpt lat="45.1752481" lon="10.7277759"><ele>18.0</ele><time>2026-04-05T17:01:47.719Z</time></trkpt><trkpt lat="45.1752593" lon="10.7276788"><ele>18.000000000000004</ele><time>2026-04-05T17:01:49.718Z</time></trkpt><trkpt lat="45.1752686" lon="10.7275784"><ele>18.0</ele><time>2026-04-05T17:01:51.719Z</time></trkpt><trkpt lat="45.175274" lon="10.7274694"><ele>18.0</ele><time>2026-04-05T17:01:53.718Z</time></trkpt><trkpt lat="45.1752801" lon="10.7273605"><ele>18.0</ele><time>2026-04-05T17:01:55.719Z</time></trkpt><trkpt lat="45.1752856" lon="10.7272547"><ele>18.0</ele><time>2026-04-05T17:01:57.719Z</time></trkpt><trkpt lat="45.1752946" lon="10.727151"><ele>18.000000000000004</ele><time>2026-04-05T17:01:59.719Z</time></trkpt><trkpt lat="45.1753237" lon="10.7270577"><ele>18.0</ele><time>2026-04-05T17:02:01.719Z</time></trkpt><trkpt lat="45.1753545" lon="10.7269637"><ele>17.833333333333332</ele><time>2026-04-05T17:02:03.718Z</time></trkpt><trkpt lat="45.1753821" lon="10.7268665"><ele>17.666666666666668</ele><time>2026-04-05T17:02:05.719Z</time></trkpt><trkpt lat="45.1754256" lon="10.72678"><ele>17.5</ele><time>2026-04-05T17:02:07.718Z</time></trkpt><trkpt lat="45.175478" lon="10.7267055"><ele>17.333333333333336</ele><time>2026-04-05T17:02:09.719Z</time></trkpt><trkpt lat="45.175531" lon="10.7266237"><ele>17.166666666666668</ele><time>2026-04-05T17:02:11.72Z</time></trkpt><trkpt lat="45.175595" lon="10.7265545"><ele>17.0</ele><time>2026-04-05T17:02:13.72Z</time></trkpt><trkpt lat="45.1756666" lon="10.7264934"><ele>17.333333333333336</ele><time>2026-04-05T17:02:15.718Z</time></trkpt><trkpt lat="45.1757448" lon="10.7264405"><ele>17.666666666666668</ele><time>2026-04-05T17:02:17.717Z</time></trkpt><trkpt lat="45.1758226" lon="10.7263982"><ele>18.0</ele><time>2026-04-05T17:02:19.72Z</time></trkpt><trkpt lat="45.175902" lon="10.7263469"><ele>18.333333333333332</ele><time>2026-04-05T17:02:21.719Z</time></trkpt><trkpt lat="45.1759777" lon="10.7262889"><ele>18.666666666666664</ele><time>2026-04-05T17:02:23.718Z</time></trkpt><trkpt lat="45.1760589" lon="10.7262315"><ele>19.0</ele><time>2026-04-05T17:02:26.387Z</time></trkpt><trkpt lat="45.1761286" lon="10.72619"><ele>19.0</ele><time>2026-04-05T17:02:27.719Z</time></trkpt><trkpt lat="45.1762053" lon="10.7261416"><ele>19.0</ele><time>2026-04-05T17:02:29.719Z</time></trkpt><trkpt lat="45.176282" lon="10.7260909"><ele>19.0</ele><time>2026-04-05T17:02:31.719Z</time></trkpt><trkpt lat="45.1763618" lon="10.7260419"><ele>19.0</ele><time>2026-04-05T17:02:33.719Z</time></trkpt><trkpt lat="45.1764381" lon="10.725985"><ele>19.0</ele><time>2026-04-05T17:02:35.719Z</time></trkpt><trkpt lat="45.1765135" lon="10.725929"><ele>19.0</ele><time>2026-04-05T17:02:37.719Z</time></trkpt><trkpt lat="45.1765909" lon="10.7258769"><ele>19.0</ele><time>2026-04-05T17:02:39.72Z</time></trkpt><trkpt lat="45.1766694" lon="10.7258235"><ele>19.0</ele><time>2026-04-05T17:02:41.72Z</time></trkpt><trkpt lat="45.1767482" lon="10.7257728"><ele>19.0</ele><time>2026-04-05T17:02:43.72Z</time></trkpt><trkpt lat="45.1768269" lon="10.7257273"><ele>19.0</ele><time>2026-04-05T17:02:45.719Z</time></trkpt><trkpt lat="45.1769042" lon="10.7256778"><ele>19.0</ele><time>2026-04-05T17:02:47.72Z</time></trkpt><trkpt lat="45.1769814" lon="10.7256258"><ele>19.0</ele><time>2026-04-05T17:02:49.719Z</time></trkpt><trkpt lat="45.1770607" lon="10.7255791"><ele>19.0</ele><time>2026-04-05T17:02:51.719Z</time></trkpt><trkpt lat="45.1771376" lon="10.7255242"><ele>19.0</ele><time>2026-04-05T17:02:53.718Z</time></trkpt><trkpt lat="45.1772165" lon="10.7254781"><ele>19.0</ele><time>2026-04-05T17:02:55.719Z</time></trkpt><trkpt lat="45.1772967" lon="10.7254417"><ele>19.0</ele><time>2026-04-05T17:02:57.719Z</time></trkpt><trkpt lat="45.1773732" lon="10.7253967"><ele>19.0</ele><time>2026-04-05T17:02:59.717Z</time></trkpt><trkpt lat="45.1774499" lon="10.72535"><ele>19.0</ele><time>2026-04-05T17:03:01.718Z</time></trkpt><trkpt lat="45.1775223" lon="10.7253162"><ele>19.0</ele><time>2026-04-05T17:03:03.719Z</time></trkpt><trkpt lat="45.1775847" lon="10.7252785"><ele>19.0</ele><time>2026-04-05T17:03:05.718Z</time></trkpt><trkpt lat="45.1776439" lon="10.7252442"><ele>19.0</ele><time>2026-04-05T17:03:07.719Z</time></trkpt><trkpt lat="45.1777123" lon="10.7252005"><ele>19.0</ele><time>2026-04-05T17:03:10.718Z</time></trkpt><trkpt lat="45.1777849" lon="10.7251543"><ele>19.0</ele><time>2026-04-05T17:03:13.718Z</time></trkpt><trkpt lat="45.1778613" lon="10.7251171"><ele>19.0</ele><time>2026-04-05T17:03:16.717Z</time></trkpt><trkpt lat="45.1779311" lon="10.7250695"><ele>19.0</ele><time>2026-04-05T17:03:19.719Z</time></trkpt><trkpt lat="45.17801" lon="10.7250188"><ele>19.0</ele><time>2026-04-05T17:03:22.719Z</time></trkpt><trkpt lat="45.1780816" lon="10.7249814"><ele>19.0</ele><time>2026-04-05T17:03:25.718Z</time></trkpt><trkpt lat="45.1781527" lon="10.724925"><ele>19.0</ele><time>2026-04-05T17:03:28.718Z</time></trkpt><trkpt lat="45.1782321" lon="10.7249108"><ele>19.0</ele><time>2026-04-05T17:03:31.718Z</time></trkpt><trkpt lat="45.1783114" lon="10.7248795"><ele>19.0</ele><time>2026-04-05T17:03:34.718Z</time></trkpt><trkpt lat="45.178387" lon="10.7248335"><ele>19.0</ele><time>2026-04-05T17:03:37.719Z</time></trkpt><trkpt lat="45.178465" lon="10.724802"><ele>19.166666666666664</ele><time>2026-04-05T17:03:40.719Z</time></trkpt><trkpt lat="45.1785388" lon="10.7247702"><ele>19.333333333333332</ele><time>2026-04-05T17:03:43.719Z</time></trkpt><trkpt lat="45.1786169" lon="10.7247531"><ele>19.5</ele><time>2026-04-05T17:03:46.718Z</time></trkpt><trkpt lat="45.1786897" lon="10.7247228"><ele>19.666666666666668</ele><time>2026-04-05T17:03:49.72Z</time></trkpt><trkpt lat="45.1787656" lon="10.7246889"><ele>19.833333333333336</ele><time>2026-04-05T17:03:52.719Z</time></trkpt><trkpt lat="45.1788437" lon="10.7246582"><ele>20.0</ele><time>2026-04-05T17:03:55.72Z</time></trkpt><trkpt lat="45.1789213" lon="10.7246252"><ele>20.0</ele><time>2026-04-05T17:03:58.72Z</time></trkpt><trkpt lat="45.1790027" lon="10.7245938"><ele>20.0</ele><time>2026-04-05T17:04:01.717Z</time></trkpt><trkpt lat="45.1790798" lon="10.7245646"><ele>20.0</ele><time>2026-04-05T17:04:04.718Z</time></trkpt><trkpt lat="45.1791616" lon="10.7245655"><ele>20.0</ele><time>2026-04-05T17:04:07.718Z</time></trkpt><trkpt lat="45.1792471" lon="10.7245484"><ele>20.0</ele><time>2026-04-05T17:04:10.719Z</time></trkpt><trkpt lat="45.1793169" lon="10.7245354"><ele>20.0</ele><time>2026-04-05T17:04:13.719Z</time></trkpt><trkpt lat="45.1792549" lon="10.7245178"><ele>20.166666666666668</ele><time>2026-04-05T17:04:19.719Z</time></trkpt><trkpt lat="45.1791832" lon="10.72451"><ele>20.333333333333336</ele><time>2026-04-05T17:04:22.718Z</time></trkpt><trkpt lat="45.1791369" lon="10.72443"><ele>20.5</ele><time>2026-04-05T17:04:25.719Z</time></trkpt><trkpt lat="45.1791956" lon="10.7245038"><ele>20.666666666666668</ele><time>2026-04-05T17:10:24.717Z</time></trkpt><trkpt lat="45.1792764" lon="10.724511"><ele>20.833333333333332</ele><time>2026-04-05T17:10:27.716Z</time></trkpt><trkpt lat="45.1793556" lon="10.7245031"><ele>21.0</ele><time>2026-04-05T17:10:30.716Z</time></trkpt><trkpt lat="45.1794252" lon="10.7244852"><ele>21.0</ele><time>2026-04-05T17:10:33.715Z</time></trkpt><trkpt lat="45.1795123" lon="10.724456"><ele>21.0</ele><time>2026-04-05T17:10:36.715Z</time></trkpt><trkpt lat="45.1795761" lon="10.7244383"><ele>21.0</ele><time>2026-04-05T17:10:38.715Z</time></trkpt><trkpt lat="45.1796441" lon="10.7244264"><ele>21.0</ele><time>2026-04-05T17:10:40.716Z</time></trkpt><trkpt lat="45.1797155" lon="10.7244099"><ele>21.0</ele><time>2026-04-05T17:10:42.716Z</time></trkpt><trkpt lat="45.1797899" lon="10.7243933"><ele>21.0</ele><time>2026-04-05T17:10:44.717Z</time></trkpt><trkpt lat="45.1798679" lon="10.724377"><ele>20.833333333333332</ele><time>2026-04-05T17:10:46.717Z</time></trkpt><trkpt lat="45.1799514" lon="10.7243605"><ele>20.666666666666668</ele><time>2026-04-05T17:10:48.717Z</time></trkpt><trkpt lat="45.1800345" lon="10.7243503"><ele>20.5</ele><time>2026-04-05T17:10:50.718Z</time></trkpt><trkpt lat="45.1801192" lon="10.7243389"><ele>20.333333333333336</ele><time>2026-04-05T17:10:52.716Z</time></trkpt><trkpt lat="45.1802053" lon="10.7243303"><ele>20.166666666666668</ele><time>2026-04-05T17:10:54.717Z</time></trkpt><trkpt lat="45.1802907" lon="10.724327"><ele>20.0</ele><time>2026-04-05T17:10:56.716Z</time></trkpt><trkpt lat="45.1803735" lon="10.7243284"><ele>20.0</ele><time>2026-04-05T17:10:58.715Z</time></trkpt><trkpt lat="45.1804519" lon="10.7243208"><ele>20.0</ele><time>2026-04-05T17:11:00.715Z</time></trkpt><trkpt lat="45.1805278" lon="10.7243146"><ele>20.0</ele><time>2026-04-05T17:11:02.717Z</time></trkpt><trkpt lat="45.1806004" lon="10.7243111"><ele>20.0</ele><time>2026-04-05T17:11:04.716Z</time></trkpt><trkpt lat="45.1806653" lon="10.7243132"><ele>20.0</ele><time>2026-04-05T17:11:06.716Z</time></trkpt><trkpt lat="45.1807543" lon="10.7242962"><ele>20.0</ele><time>2026-04-05T17:11:09.717Z</time></trkpt><trkpt lat="45.1808392" lon="10.7242868"><ele>19.833333333333336</ele><time>2026-04-05T17:11:12.715Z</time></trkpt><trkpt lat="45.1809224" lon="10.7242747"><ele>19.666666666666668</ele><time>2026-04-05T17:11:15.715Z</time></trkpt><trkpt lat="45.1810048" lon="10.7242716"><ele>19.5</ele><time>2026-04-05T17:11:18.715Z</time></trkpt><trkpt lat="45.1810944" lon="10.7242571"><ele>19.333333333333332</ele><time>2026-04-05T17:11:21.717Z</time></trkpt><trkpt lat="45.1811741" lon="10.7242558"><ele>19.166666666666664</ele><time>2026-04-05T17:11:24.717Z</time></trkpt><trkpt lat="45.1812631" lon="10.7242655"><ele>19.0</ele><time>2026-04-05T17:11:27.715Z</time></trkpt><trkpt lat="45.1813297" lon="10.724276"><ele>19.0</ele><time>2026-04-05T17:11:29.716Z</time></trkpt><trkpt lat="45.1813961" lon="10.724293"><ele>19.0</ele><time>2026-04-05T17:11:31.716Z</time></trkpt><trkpt lat="45.1814613" lon="10.7242932"><ele>19.0</ele><time>2026-04-05T17:11:33.715Z</time></trkpt><trkpt lat="45.1815241" lon="10.7243129"><ele>19.0</ele><time>2026-04-05T17:11:35.715Z</time></trkpt><trkpt lat="45.1815937" lon="10.7243247"><ele>19.0</ele><time>2026-04-05T17:11:37.717Z</time></trkpt><trkpt lat="45.1816657" lon="10.7243229"><ele>19.0</ele><time>2026-04-05T17:11:39.716Z</time></trkpt><trkpt lat="45.1817322" lon="10.7243266"><ele>19.0</ele><time>2026-04-05T17:11:41.716Z</time></trkpt><trkpt lat="45.1817953" lon="10.7243449"><ele>19.0</ele><time>2026-04-05T17:11:43.717Z</time></trkpt><trkpt lat="45.1818888" lon="10.7243637"><ele>19.0</ele><time>2026-04-05T17:11:46.717Z</time></trkpt><trkpt lat="45.1819587" lon="10.7243767"><ele>19.0</ele><time>2026-04-05T17:11:48.716Z</time></trkpt><trkpt lat="45.1820334" lon="10.7243966"><ele>19.0</ele><time>2026-04-05T17:11:50.715Z</time></trkpt><trkpt lat="45.1821104" lon="10.7244174"><ele>19.0</ele><time>2026-04-05T17:11:52.716Z</time></trkpt><trkpt lat="45.1821863" lon="10.7244261"><ele>19.0</ele><time>2026-04-05T17:11:54.715Z</time></trkpt><trkpt lat="45.1822676" lon="10.7244458"><ele>18.833333333333332</ele><time>2026-04-05T17:11:56.716Z</time></trkpt><trkpt lat="45.1823462" lon="10.7244581"><ele>18.666666666666664</ele><time>2026-04-05T17:11:58.717Z</time></trkpt><trkpt lat="45.1824315" lon="10.7244702"><ele>18.5</ele><time>2026-04-05T17:12:00.716Z</time></trkpt><trkpt lat="45.1825222" lon="10.7244819"><ele>18.333333333333332</ele><time>2026-04-05T17:12:02.716Z</time></trkpt><trkpt lat="45.1826053" lon="10.7244923"><ele>18.166666666666668</ele><time>2026-04-05T17:12:04.716Z</time></trkpt><trkpt lat="45.1826886" lon="10.7244967"><ele>18.0</ele><time>2026-04-05T17:12:06.716Z</time></trkpt><trkpt lat="45.1827713" lon="10.7245009"><ele>18.166666666666668</ele><time>2026-04-05T17:12:08.715Z</time></trkpt><trkpt lat="45.1828477" lon="10.7245"><ele>18.333333333333332</ele><time>2026-04-05T17:12:10.716Z</time></trkpt><trkpt lat="45.1829223" lon="10.7244937"><ele>18.5</ele><time>2026-04-05T17:12:12.717Z</time></trkpt><trkpt lat="45.1830001" lon="10.7244874"><ele>18.666666666666664</ele><time>2026-04-05T17:12:14.717Z</time></trkpt><trkpt lat="45.1830822" lon="10.7244686"><ele>18.833333333333332</ele><time>2026-04-05T17:12:16.715Z</time></trkpt><trkpt lat="45.1831645" lon="10.7244476"><ele>19.0</ele><time>2026-04-05T17:12:18.716Z</time></trkpt><trkpt lat="45.1832425" lon="10.7244288"><ele>19.0</ele><time>2026-04-05T17:12:20.717Z</time></trkpt><trkpt lat="45.1833131" lon="10.724407"><ele>19.0</ele><time>2026-04-05T17:12:22.717Z</time></trkpt><trkpt lat="45.1833893" lon="10.7243859"><ele>19.0</ele><time>2026-04-05T17:12:24.716Z</time></trkpt><trkpt lat="45.1834686" lon="10.7243703"><ele>19.0</ele><time>2026-04-05T17:12:26.715Z</time></trkpt><trkpt lat="45.1835452" lon="10.72435"><ele>19.0</ele><time>2026-04-05T17:12:28.716Z</time></trkpt><trkpt lat="45.1836249" lon="10.7243368"><ele>19.0</ele><time>2026-04-05T17:12:30.715Z</time></trkpt><trkpt lat="45.1837034" lon="10.724319"><ele>19.0</ele><time>2026-04-05T17:12:32.716Z</time></trkpt><trkpt lat="45.1837791" lon="10.7243024"><ele>19.0</ele><time>2026-04-05T17:12:34.715Z</time></trkpt><trkpt lat="45.1838531" lon="10.7242926"><ele>19.0</ele><time>2026-04-05T17:12:36.714Z</time></trkpt><trkpt lat="45.1839294" lon="10.7242827"><ele>19.0</ele><time>2026-04-05T17:12:38.715Z</time></trkpt><trkpt lat="45.1840055" lon="10.7242777"><ele>19.0</ele><time>2026-04-05T17:12:40.717Z</time></trkpt><trkpt lat="45.1840833" lon="10.724282"><ele>19.0</ele><time>2026-04-05T17:12:42.715Z</time></trkpt><trkpt lat="45.1841635" lon="10.7242935"><ele>19.333333333333332</ele><time>2026-04-05T17:12:44.716Z</time></trkpt><trkpt lat="45.1842399" lon="10.7243197"><ele>19.666666666666664</ele><time>2026-04-05T17:12:46.716Z</time></trkpt><trkpt lat="45.1843173" lon="10.724351"><ele>20.0</ele><time>2026-04-05T17:12:48.716Z</time></trkpt><trkpt lat="45.1843954" lon="10.7243784"><ele>20.333333333333332</ele><time>2026-04-05T17:12:50.717Z</time></trkpt><trkpt lat="45.184473" lon="10.7244018"><ele>20.666666666666668</ele><time>2026-04-05T17:12:52.716Z</time></trkpt><trkpt lat="45.1845534" lon="10.7244292"><ele>21.0</ele><time>2026-04-05T17:12:54.717Z</time></trkpt><trkpt lat="45.1846328" lon="10.7244598"><ele>21.0</ele><time>2026-04-05T17:12:56.716Z</time></trkpt><trkpt lat="45.1847106" lon="10.7244951"><ele>21.0</ele><time>2026-04-05T17:12:58.715Z</time></trkpt><trkpt lat="45.1847875" lon="10.7245303"><ele>21.0</ele><time>2026-04-05T17:13:00.715Z</time></trkpt><trkpt lat="45.1848632" lon="10.7245652"><ele>21.0</ele><time>2026-04-05T17:13:02.716Z</time></trkpt><trkpt lat="45.1849424" lon="10.7245709"><ele>21.0</ele><time>2026-04-05T17:13:04.717Z</time></trkpt><trkpt lat="45.1850189" lon="10.7245673"><ele>21.0</ele><time>2026-04-05T17:13:06.715Z</time></trkpt><trkpt lat="45.1850975" lon="10.724583"><ele>21.0</ele><time>2026-04-05T17:13:08.715Z</time></trkpt><trkpt lat="45.1851743" lon="10.7246147"><ele>21.0</ele><time>2026-04-05T17:13:10.714Z</time></trkpt><trkpt lat="45.1852529" lon="10.7246458"><ele>21.0</ele><time>2026-04-05T17:13:12.715Z</time></trkpt><trkpt lat="45.1853288" lon="10.7246701"><ele>21.0</ele><time>2026-04-05T17:13:14.715Z</time></trkpt><trkpt lat="45.1854043" lon="10.7246981"><ele>21.0</ele><time>2026-04-05T17:13:16.716Z</time></trkpt><trkpt lat="45.18548" lon="10.7247232"><ele>21.0</ele><time>2026-04-05T17:13:18.716Z</time></trkpt><trkpt lat="45.1855565" lon="10.7247482"><ele>21.0</ele><time>2026-04-05T17:13:20.717Z</time></trkpt><trkpt lat="45.1856339" lon="10.7247832"><ele>21.0</ele><time>2026-04-05T17:13:22.716Z</time></trkpt><trkpt lat="45.1857089" lon="10.7248261"><ele>21.0</ele><time>2026-04-05T17:13:24.716Z</time></trkpt><trkpt lat="45.1857845" lon="10.724873"><ele>21.0</ele><time>2026-04-05T17:13:26.715Z</time></trkpt><trkpt lat="45.1858618" lon="10.7249161"><ele>21.0</ele><time>2026-04-05T17:13:28.716Z</time></trkpt><trkpt lat="45.1859363" lon="10.7249619"><ele>21.0</ele><time>2026-04-05T17:13:30.715Z</time></trkpt><trkpt lat="45.1860112" lon="10.725005"><ele>21.0</ele><time>2026-04-05T17:13:32.716Z</time></trkpt><trkpt lat="45.1860857" lon="10.7250481"><ele>21.0</ele><time>2026-04-05T17:13:34.714Z</time></trkpt><trkpt lat="45.186158" lon="10.7250943"><ele>21.0</ele><time>2026-04-05T17:13:36.715Z</time></trkpt><trkpt lat="45.1862223" lon="10.7251559"><ele>21.0</ele><time>2026-04-05T17:13:38.717Z</time></trkpt><trkpt lat="45.1862768" lon="10.7252396"><ele>21.0</ele><time>2026-04-05T17:13:40.715Z</time></trkpt><trkpt lat="45.1863095" lon="10.7253445"><ele>21.0</ele><time>2026-04-05T17:13:42.715Z</time></trkpt><trkpt lat="45.186313" lon="10.7254627"><ele>20.833333333333332</ele><time>2026-04-05T17:13:44.715Z</time></trkpt><trkpt lat="45.1863001" lon="10.7255816"><ele>20.666666666666668</ele><time>2026-04-05T17:13:46.714Z</time></trkpt><trkpt lat="45.186289" lon="10.7257021"><ele>20.5</ele><time>2026-04-05T17:13:48.716Z</time></trkpt><trkpt lat="45.1862899" lon="10.7258291"><ele>20.333333333333336</ele><time>2026-04-05T17:13:50.717Z</time></trkpt><trkpt lat="45.1863004" lon="10.7259572"><ele>20.166666666666668</ele><time>2026-04-05T17:13:52.715Z</time></trkpt><trkpt lat="45.1863173" lon="10.726071"><ele>20.0</ele><time>2026-04-05T17:13:54.716Z</time></trkpt><trkpt lat="45.1863341" lon="10.7261889"><ele>20.0</ele><time>2026-04-05T17:13:56.716Z</time></trkpt><trkpt lat="45.1863604" lon="10.7263037"><ele>20.0</ele><time>2026-04-05T17:13:58.716Z</time></trkpt><trkpt lat="45.1863889" lon="10.7264176"><ele>20.0</ele><time>2026-04-05T17:14:00.715Z</time></trkpt><trkpt lat="45.1864172" lon="10.7265275"><ele>20.0</ele><time>2026-04-05T17:14:02.715Z</time></trkpt><trkpt lat="45.1864598" lon="10.7266161"><ele>20.0</ele><time>2026-04-05T17:14:04.716Z</time></trkpt><trkpt lat="45.1865442" lon="10.7266457"><ele>20.0</ele><time>2026-04-05T17:14:06.716Z</time></trkpt><trkpt lat="45.1866396" lon="10.7266358"><ele>20.0</ele><time>2026-04-05T17:14:08.716Z</time></trkpt><trkpt lat="45.1867386" lon="10.7266074"><ele>20.0</ele><time>2026-04-05T17:14:10.715Z</time></trkpt><trkpt lat="45.1868432" lon="10.7265766"><ele>20.0</ele><time>2026-04-05T17:14:12.716Z</time></trkpt><trkpt lat="45.1869517" lon="10.72656"><ele>20.0</ele><time>2026-04-05T17:14:14.714Z</time></trkpt><trkpt lat="45.1870565" lon="10.7265242"><ele>20.0</ele><time>2026-04-05T17:14:16.714Z</time></trkpt><trkpt lat="45.1871736" lon="10.7264921"><ele>20.0</ele><time>2026-04-05T17:14:18.715Z</time></trkpt><trkpt lat="45.1872876" lon="10.726466"><ele>20.0</ele><time>2026-04-05T17:14:20.716Z</time></trkpt><trkpt lat="45.1874093" lon="10.7264333"><ele>20.0</ele><time>2026-04-05T17:14:22.716Z</time></trkpt><trkpt lat="45.1875325" lon="10.7264038"><ele>20.0</ele><time>2026-04-05T17:14:24.716Z</time></trkpt><trkpt lat="45.1875952" lon="10.7263831"><ele>20.0</ele><time>2026-04-05T17:14:25.714Z</time></trkpt><trkpt lat="45.1877155" lon="10.7263643"><ele>20.2</ele><time>2026-04-05T17:14:27.715Z</time></trkpt><trkpt lat="45.1877793" lon="10.7263513"><ele>20.4</ele><time>2026-04-05T17:14:28.715Z</time></trkpt><trkpt lat="45.1878951" lon="10.7263182"><ele>20.6</ele><time>2026-04-05T17:14:30.717Z</time></trkpt><trkpt lat="45.1880053" lon="10.7262944"><ele>20.8</ele><time>2026-04-05T17:14:32.715Z</time></trkpt><trkpt lat="45.1881187" lon="10.7262741"><ele>21.0</ele><time>2026-04-05T17:14:34.714Z</time></trkpt><trkpt lat="45.1882366" lon="10.7262512"><ele>21.0</ele><time>2026-04-05T17:14:36.717Z</time></trkpt><trkpt lat="45.1883501" lon="10.7262353"><ele>21.0</ele><time>2026-04-05T17:14:38.716Z</time></trkpt><trkpt lat="45.1884621" lon="10.7262112"><ele>21.0</ele><time>2026-04-05T17:14:40.715Z</time></trkpt><trkpt lat="45.1885755" lon="10.7261946"><ele>21.0</ele><time>2026-04-05T17:14:42.715Z</time></trkpt><trkpt lat="45.1886835" lon="10.7261733"><ele>21.0</ele><time>2026-04-05T17:14:44.716Z</time></trkpt><trkpt lat="45.1887946" lon="10.7261746"><ele>21.0</ele><time>2026-04-05T17:14:46.715Z</time></trkpt><trkpt lat="45.1889025" lon="10.7261697"><ele>21.0</ele><time>2026-04-05T17:14:48.716Z</time></trkpt><trkpt lat="45.1890114" lon="10.7261673"><ele>21.0</ele><time>2026-04-05T17:14:50.714Z</time></trkpt><trkpt lat="45.1891148" lon="10.7261644"><ele>21.0</ele><time>2026-04-05T17:14:52.715Z</time></trkpt><trkpt lat="45.1892148" lon="10.7261585"><ele>21.0</ele><time>2026-04-05T17:14:54.716Z</time></trkpt><trkpt lat="45.1893239" lon="10.7261476"><ele>21.0</ele><time>2026-04-05T17:14:56.716Z</time></trkpt><trkpt lat="45.1894298" lon="10.7261362"><ele>21.0</ele><time>2026-04-05T17:14:58.717Z</time></trkpt><trkpt lat="45.1895404" lon="10.7261275"><ele>21.0</ele><time>2026-04-05T17:15:00.715Z</time></trkpt><trkpt lat="45.1896469" lon="10.7261155"><ele>21.0</ele><time>2026-04-05T17:15:02.714Z</time></trkpt><trkpt lat="45.189753" lon="10.7261117"><ele>21.0</ele><time>2026-04-05T17:15:04.715Z</time></trkpt><trkpt lat="45.1898561" lon="10.7261077"><ele>21.0</ele><time>2026-04-05T17:15:06.716Z</time></trkpt><trkpt lat="45.1899545" lon="10.7260962"><ele>21.0</ele><time>2026-04-05T17:15:08.714Z</time></trkpt><trkpt lat="45.1900533" lon="10.7260697"><ele>21.0</ele><time>2026-04-05T17:15:10.715Z</time></trkpt><trkpt lat="45.1901596" lon="10.7260468"><ele>21.0</ele><time>2026-04-05T17:15:12.714Z</time></trkpt><trkpt lat="45.1902641" lon="10.726038"><ele>21.0</ele><time>2026-04-05T17:15:14.715Z</time></trkpt><trkpt lat="45.1903616" lon="10.7260399"><ele>21.0</ele><time>2026-04-05T17:15:16.716Z</time></trkpt><trkpt lat="45.1904578" lon="10.7260589"><ele>21.0</ele><time>2026-04-05T17:15:18.716Z</time></trkpt><trkpt lat="45.1905446" lon="10.7260747"><ele>21.0</ele><time>2026-04-05T17:15:20.716Z</time></trkpt><trkpt lat="45.1906131" lon="10.7261066"><ele>21.0</ele><time>2026-04-05T17:15:22.714Z</time></trkpt><trkpt lat="45.1906808" lon="10.7261143"><ele>21.0</ele><time>2026-04-05T17:15:24.715Z</time></trkpt><trkpt lat="45.190767" lon="10.7261267"><ele>21.166666666666668</ele><time>2026-04-05T17:15:27.716Z</time></trkpt><trkpt lat="45.1908582" lon="10.7261445"><ele>21.333333333333332</ele><time>2026-04-05T17:15:30.716Z</time></trkpt><trkpt lat="45.1909496" lon="10.726165"><ele>21.5</ele><time>2026-04-05T17:15:33.716Z</time></trkpt><trkpt lat="45.1910497" lon="10.7261746"><ele>21.666666666666664</ele><time>2026-04-05T17:15:36.715Z</time></trkpt><trkpt lat="45.1911215" lon="10.726191"><ele>21.833333333333332</ele><time>2026-04-05T17:15:38.714Z</time></trkpt><trkpt lat="45.1912055" lon="10.7261995"><ele>22.0</ele><time>2026-04-05T17:15:41.714Z</time></trkpt><trkpt lat="45.1912716" lon="10.7261036"><ele>22.0</ele><time>2026-04-05T17:15:44.716Z</time></trkpt><trkpt lat="45.1913099" lon="10.7260118"><ele>22.0</ele><time>2026-04-05T17:15:46.716Z</time></trkpt><trkpt lat="45.1913551" lon="10.7259069"><ele>22.0</ele><time>2026-04-05T17:15:48.715Z</time></trkpt><trkpt lat="45.1914027" lon="10.725784"><ele>22.0</ele><time>2026-04-05T17:15:50.715Z</time></trkpt><trkpt lat="45.1914456" lon="10.7256634"><ele>22.0</ele><time>2026-04-05T17:15:52.715Z</time></trkpt><trkpt lat="45.191514" lon="10.7254918"><ele>22.0</ele><time>2026-04-05T17:15:55.716Z</time></trkpt><trkpt lat="45.1915608" lon="10.7253883"><ele>22.0</ele><time>2026-04-05T17:15:57.716Z</time></trkpt><trkpt lat="45.191604" lon="10.7252892"><ele>22.0</ele><time>2026-04-05T17:15:59.715Z</time></trkpt><trkpt lat="45.1916409" lon="10.725159"><ele>22.0</ele><time>2026-04-05T17:16:01.715Z</time></trkpt><trkpt lat="45.191682" lon="10.7250553"><ele>22.0</ele><time>2026-04-05T17:16:03.715Z</time></trkpt><trkpt lat="45.1917209" lon="10.7249422"><ele>22.0</ele><time>2026-04-05T17:16:05.714Z</time></trkpt><trkpt lat="45.1917652" lon="10.7248304"><ele>21.833333333333332</ele><time>2026-04-05T17:16:07.715Z</time></trkpt><trkpt lat="45.1918202" lon="10.7247203"><ele>21.666666666666664</ele><time>2026-04-05T17:16:09.716Z</time></trkpt><trkpt lat="45.191865" lon="10.7246049"><ele>21.5</ele><time>2026-04-05T17:16:11.716Z</time></trkpt><trkpt lat="45.1919068" lon="10.7245031"><ele>21.333333333333332</ele><time>2026-04-05T17:16:13.715Z</time></trkpt><trkpt lat="45.1919413" lon="10.7243905"><ele>21.166666666666668</ele><time>2026-04-05T17:16:15.715Z</time></trkpt><trkpt lat="45.1919932" lon="10.7242935"><ele>21.0</ele><time>2026-04-05T17:16:17.715Z</time></trkpt><trkpt lat="45.1920403" lon="10.7241928"><ele>21.0</ele><time>2026-04-05T17:16:19.715Z</time></trkpt><trkpt lat="45.1920791" lon="10.7240858"><ele>21.0</ele><time>2026-04-05T17:16:21.716Z</time></trkpt><trkpt lat="45.1921156" lon="10.7239799"><ele>21.0</ele><time>2026-04-05T17:16:23.716Z</time></trkpt><trkpt lat="45.1921645" lon="10.7238769"><ele>21.0</ele><time>2026-04-05T17:16:25.716Z</time></trkpt><trkpt lat="45.1922095" lon="10.7237647"><ele>21.0</ele><time>2026-04-05T17:16:27.715Z</time></trkpt><trkpt lat="45.1922415" lon="10.7236507"><ele>21.0</ele><time>2026-04-05T17:16:29.716Z</time></trkpt><trkpt lat="45.1922893" lon="10.7235495"><ele>20.833333333333332</ele><time>2026-04-05T17:16:31.715Z</time></trkpt><trkpt lat="45.1923297" lon="10.7234247"><ele>20.666666666666668</ele><time>2026-04-05T17:16:33.716Z</time></trkpt><trkpt lat="45.1923762" lon="10.7233131"><ele>20.5</ele><time>2026-04-05T17:16:35.715Z</time></trkpt><trkpt lat="45.1924178" lon="10.7232112"><ele>20.333333333333336</ele><time>2026-04-05T17:16:37.715Z</time></trkpt><trkpt lat="45.1924656" lon="10.7231105"><ele>20.166666666666668</ele><time>2026-04-05T17:16:39.714Z</time></trkpt><trkpt lat="45.1925011" lon="10.7230045"><ele>20.0</ele><time>2026-04-05T17:16:41.714Z</time></trkpt><trkpt lat="45.192552" lon="10.7228802"><ele>20.2</ele><time>2026-04-05T17:16:43.715Z</time></trkpt><trkpt lat="45.1926075" lon="10.7227515"><ele>20.4</ele><time>2026-04-05T17:16:45.715Z</time></trkpt><trkpt lat="45.1926628" lon="10.7226211"><ele>20.6</ele><time>2026-04-05T17:16:47.714Z</time></trkpt><trkpt lat="45.192717" lon="10.7224896"><ele>20.8</ele><time>2026-04-05T17:16:49.715Z</time></trkpt><trkpt lat="45.1927644" lon="10.722357"><ele>21.0</ele><time>2026-04-05T17:16:51.715Z</time></trkpt><trkpt lat="45.1928183" lon="10.7222445"><ele>21.0</ele><time>2026-04-05T17:16:53.715Z</time></trkpt><trkpt lat="45.1928742" lon="10.7221029"><ele>21.0</ele><time>2026-04-05T17:16:55.714Z</time></trkpt><trkpt lat="45.1929299" lon="10.7219652"><ele>21.0</ele><time>2026-04-05T17:16:57.713Z</time></trkpt><trkpt lat="45.1929817" lon="10.7218293"><ele>21.0</ele><time>2026-04-05T17:16:59.715Z</time></trkpt><trkpt lat="45.1930415" lon="10.7216904"><ele>20.8</ele><time>2026-04-05T17:17:01.714Z</time></trkpt><trkpt lat="45.1930706" lon="10.7216063"><ele>20.6</ele><time>2026-04-05T17:17:02.715Z</time></trkpt><trkpt lat="45.1931234" lon="10.7214513"><ele>20.4</ele><time>2026-04-05T17:17:04.715Z</time></trkpt><trkpt lat="45.1931875" lon="10.7213032"><ele>20.2</ele><time>2026-04-05T17:17:06.715Z</time></trkpt><trkpt lat="45.1932156" lon="10.7212225"><ele>20.0</ele><time>2026-04-05T17:17:07.714Z</time></trkpt><trkpt lat="45.1932762" lon="10.7210694"><ele>20.0</ele><time>2026-04-05T17:17:09.714Z</time></trkpt><trkpt lat="45.193338" lon="10.7209113"><ele>20.0</ele><time>2026-04-05T17:17:11.715Z</time></trkpt><trkpt lat="45.1933719" lon="10.720823"><ele>20.0</ele><time>2026-04-05T17:17:12.715Z</time></trkpt><trkpt lat="45.1934335" lon="10.7206639"><ele>20.0</ele><time>2026-04-05T17:17:14.715Z</time></trkpt><trkpt lat="45.1934629" lon="10.7205844"><ele>20.0</ele><time>2026-04-05T17:17:15.715Z</time></trkpt><trkpt lat="45.1935227" lon="10.7204341"><ele>20.0</ele><time>2026-04-05T17:17:17.716Z</time></trkpt><trkpt lat="45.193576" lon="10.720284"><ele>20.0</ele><time>2026-04-05T17:17:19.715Z</time></trkpt><trkpt lat="45.1936357" lon="10.7201379"><ele>20.0</ele><time>2026-04-05T17:17:21.714Z</time></trkpt><trkpt lat="45.1936943" lon="10.7199939"><ele>20.0</ele><time>2026-04-05T17:17:23.714Z</time></trkpt><trkpt lat="45.1937607" lon="10.719844"><ele>20.0</ele><time>2026-04-05T17:17:25.715Z</time></trkpt><trkpt lat="45.1938196" lon="10.7196936"><ele>20.0</ele><time>2026-04-05T17:17:27.714Z</time></trkpt><trkpt lat="45.1938572" lon="10.7196202"><ele>20.0</ele><time>2026-04-05T17:17:28.716Z</time></trkpt><trkpt lat="45.1938905" lon="10.7195415"><ele>20.0</ele><time>2026-04-05T17:17:29.713Z</time></trkpt><trkpt lat="45.1939468" lon="10.7193968"><ele>20.0</ele><time>2026-04-05T17:17:31.714Z</time></trkpt><trkpt lat="45.1940079" lon="10.7192446"><ele>20.4</ele><time>2026-04-05T17:17:33.716Z</time></trkpt><trkpt lat="45.1940652" lon="10.7190958"><ele>20.8</ele><time>2026-04-05T17:17:35.715Z</time></trkpt><trkpt lat="45.1941267" lon="10.7189508"><ele>21.200000000000003</ele><time>2026-04-05T17:17:37.716Z</time></trkpt><trkpt lat="45.1941874" lon="10.7188023"><ele>21.6</ele><time>2026-04-05T17:17:39.714Z</time></trkpt><trkpt lat="45.1942144" lon="10.7187215"><ele>22.0</ele><time>2026-04-05T17:17:40.713Z</time></trkpt><trkpt lat="45.194269" lon="10.7185726"><ele>22.0</ele><time>2026-04-05T17:17:42.715Z</time></trkpt><trkpt lat="45.1943196" lon="10.7184264"><ele>22.0</ele><time>2026-04-05T17:17:44.716Z</time></trkpt><trkpt lat="45.1943724" lon="10.7182712"><ele>22.0</ele><time>2026-04-05T17:17:46.714Z</time></trkpt><trkpt lat="45.1944196" lon="10.7181324"><ele>22.0</ele><time>2026-04-05T17:17:48.715Z</time></trkpt><trkpt lat="45.1944505" lon="10.718043"><ele>22.0</ele><time>2026-04-05T17:17:50.714Z</time></trkpt><trkpt lat="45.1944894" lon="10.7179595"><ele>22.0</ele><time>2026-04-05T17:17:53.716Z</time></trkpt><trkpt lat="45.194525" lon="10.7178797"><ele>22.0</ele><time>2026-04-05T17:17:55.714Z</time></trkpt><trkpt lat="45.1945784" lon="10.7177757"><ele>22.0</ele><time>2026-04-05T17:17:57.713Z</time></trkpt><trkpt lat="45.1946351" lon="10.7176494"><ele>22.0</ele><time>2026-04-05T17:17:59.715Z</time></trkpt><trkpt lat="45.1946999" lon="10.7175288"><ele>22.0</ele><time>2026-04-05T17:18:01.714Z</time></trkpt><trkpt lat="45.1947567" lon="10.717379"><ele>21.8</ele><time>2026-04-05T17:18:03.714Z</time></trkpt><trkpt lat="45.1948117" lon="10.7172379"><ele>21.6</ele><time>2026-04-05T17:18:05.715Z</time></trkpt><trkpt lat="45.1948666" lon="10.7171031"><ele>21.400000000000002</ele><time>2026-04-05T17:18:07.716Z</time></trkpt><trkpt lat="45.1949209" lon="10.7169657"><ele>21.200000000000003</ele><time>2026-04-05T17:18:09.716Z</time></trkpt><trkpt lat="45.1949754" lon="10.7168271"><ele>21.0</ele><time>2026-04-05T17:18:11.715Z</time></trkpt><trkpt lat="45.1950321" lon="10.7166807"><ele>20.0</ele><time>2026-04-05T17:18:13.714Z</time></trkpt><trkpt lat="45.1950947" lon="10.7165461"><ele>19.0</ele><time>2026-04-05T17:18:15.716Z</time></trkpt><trkpt lat="45.1951571" lon="10.7163974"><ele>18.0</ele><time>2026-04-05T17:18:17.714Z</time></trkpt><trkpt lat="45.1952147" lon="10.7162468"><ele>17.0</ele><time>2026-04-05T17:18:19.714Z</time></trkpt><trkpt lat="45.1952775" lon="10.7161013"><ele>17.25</ele><time>2026-04-05T17:18:21.713Z</time></trkpt><trkpt lat="45.1953353" lon="10.7159461"><ele>17.5</ele><time>2026-04-05T17:18:23.714Z</time></trkpt><trkpt lat="45.1953923" lon="10.7157949"><ele>17.75</ele><time>2026-04-05T17:18:25.716Z</time></trkpt><trkpt lat="45.1954407" lon="10.7156555"><ele>18.0</ele><time>2026-04-05T17:18:27.715Z</time></trkpt><trkpt lat="45.1954963" lon="10.715518"><ele>18.0</ele><time>2026-04-05T17:18:29.715Z</time></trkpt><trkpt lat="45.1955577" lon="10.7153733"><ele>18.0</ele><time>2026-04-05T17:18:31.715Z</time></trkpt><trkpt lat="45.1956181" lon="10.7152272"><ele>18.0</ele><time>2026-04-05T17:18:33.714Z</time></trkpt><trkpt lat="45.1956773" lon="10.7150786"><ele>18.0</ele><time>2026-04-05T17:18:35.714Z</time></trkpt><trkpt lat="45.1957123" lon="10.7150026"><ele>18.0</ele><time>2026-04-05T17:18:36.713Z</time></trkpt><trkpt lat="45.1957807" lon="10.7148587"><ele>18.2</ele><time>2026-04-05T17:18:38.715Z</time></trkpt><trkpt lat="45.195849" lon="10.7147171"><ele>18.4</ele><time>2026-04-05T17:18:40.714Z</time></trkpt><trkpt lat="45.1959195" lon="10.7145824"><ele>18.599999999999998</ele><time>2026-04-05T17:18:42.714Z</time></trkpt><trkpt lat="45.195997" lon="10.7144491"><ele>18.8</ele><time>2026-04-05T17:18:44.713Z</time></trkpt><trkpt lat="45.1960329" lon="10.7143724"><ele>19.0</ele><time>2026-04-05T17:18:45.713Z</time></trkpt><trkpt lat="45.1961124" lon="10.7142382"><ele>19.2</ele><time>2026-04-05T17:18:47.715Z</time></trkpt><trkpt lat="45.1961561" lon="10.7141727"><ele>19.4</ele><time>2026-04-05T17:18:48.716Z</time></trkpt><trkpt lat="45.1962457" lon="10.7140552"><ele>19.6</ele><time>2026-04-05T17:18:50.713Z</time></trkpt><trkpt lat="45.1963446" lon="10.7139648"><ele>19.8</ele><time>2026-04-05T17:18:52.714Z</time></trkpt><trkpt lat="45.1964424" lon="10.7138607"><ele>20.0</ele><time>2026-04-05T17:18:54.714Z</time></trkpt><trkpt lat="45.1965433" lon="10.7137658"><ele>20.0</ele><time>2026-04-05T17:18:56.715Z</time></trkpt><trkpt lat="45.1966431" lon="10.7136645"><ele>20.0</ele><time>2026-04-05T17:18:58.716Z</time></trkpt><trkpt lat="45.1966964" lon="10.7136101"><ele>20.0</ele><time>2026-04-05T17:18:59.714Z</time></trkpt><trkpt lat="45.1967495" lon="10.7135591"><ele>20.0</ele><time>2026-04-05T17:19:00.714Z</time></trkpt><trkpt lat="45.1968467" lon="10.7134683"><ele>20.0</ele><time>2026-04-05T17:19:02.714Z</time></trkpt><trkpt lat="45.1969531" lon="10.7133775"><ele>20.0</ele><time>2026-04-05T17:19:04.714Z</time></trkpt><trkpt lat="45.1970052" lon="10.7133252"><ele>20.0</ele><time>2026-04-05T17:19:05.714Z</time></trkpt><trkpt lat="45.19706" lon="10.7132791"><ele>20.0</ele><time>2026-04-05T17:19:06.716Z</time></trkpt><trkpt lat="45.19716" lon="10.7131831"><ele>20.0</ele><time>2026-04-05T17:19:08.715Z</time></trkpt><trkpt lat="45.1972626" lon="10.7130804"><ele>20.0</ele><time>2026-04-05T17:19:10.714Z</time></trkpt><trkpt lat="45.1973685" lon="10.7129941"><ele>20.166666666666668</ele><time>2026-04-05T17:19:12.716Z</time></trkpt><trkpt lat="45.1974203" lon="10.7129388"><ele>20.333333333333336</ele><time>2026-04-05T17:19:13.714Z</time></trkpt><trkpt lat="45.1974748" lon="10.7128901"><ele>20.5</ele><time>2026-04-05T17:19:14.714Z</time></trkpt><trkpt lat="45.1975274" lon="10.7128397"><ele>20.666666666666668</ele><time>2026-04-05T17:19:15.714Z</time></trkpt><trkpt lat="45.1976294" lon="10.7127364"><ele>20.833333333333332</ele><time>2026-04-05T17:19:17.715Z</time></trkpt><trkpt lat="45.1977312" lon="10.7126509"><ele>21.0</ele><time>2026-04-05T17:19:19.713Z</time></trkpt><trkpt lat="45.1978401" lon="10.712554"><ele>21.200000000000003</ele><time>2026-04-05T17:19:21.715Z</time></trkpt><trkpt lat="45.19794" lon="10.7124521"><ele>21.400000000000002</ele><time>2026-04-05T17:19:23.714Z</time></trkpt><trkpt lat="45.1980488" lon="10.7123607"><ele>21.6</ele><time>2026-04-05T17:19:25.714Z</time></trkpt><trkpt lat="45.1981038" lon="10.7123098"><ele>21.8</ele><time>2026-04-05T17:19:26.714Z</time></trkpt><trkpt lat="45.198161" lon="10.7122553"><ele>22.0</ele><time>2026-04-05T17:19:27.715Z</time></trkpt><trkpt lat="45.198218" lon="10.7122057"><ele>22.0</ele><time>2026-04-05T17:19:28.715Z</time></trkpt><trkpt lat="45.1982751" lon="10.712155"><ele>22.0</ele><time>2026-04-05T17:19:29.715Z</time></trkpt><trkpt lat="45.1983295" lon="10.7121042"><ele>22.0</ele><time>2026-04-05T17:19:30.715Z</time></trkpt><trkpt lat="45.1983819" lon="10.7120494"><ele>22.0</ele><time>2026-04-05T17:19:31.713Z</time></trkpt><trkpt lat="45.1984414" lon="10.7119993"><ele>22.0</ele><time>2026-04-05T17:19:32.714Z</time></trkpt><trkpt lat="45.1984963" lon="10.7119473"><ele>22.0</ele><time>2026-04-05T17:19:33.714Z</time></trkpt><trkpt lat="45.1985523" lon="10.711894"><ele>22.0</ele><time>2026-04-05T17:19:34.715Z</time></trkpt><trkpt lat="45.1986044" lon="10.7118398"><ele>21.833333333333332</ele><time>2026-04-05T17:19:35.715Z</time></trkpt><trkpt lat="45.1986601" lon="10.7117891"><ele>21.666666666666664</ele><time>2026-04-05T17:19:36.714Z</time></trkpt><trkpt lat="45.1987137" lon="10.7117337"><ele>21.5</ele><time>2026-04-05T17:19:37.713Z</time></trkpt><trkpt lat="45.1987705" lon="10.7116883"><ele>21.333333333333332</ele><time>2026-04-05T17:19:38.713Z</time></trkpt><trkpt lat="45.1988224" lon="10.7116363"><ele>21.166666666666668</ele><time>2026-04-05T17:19:39.713Z</time></trkpt><trkpt lat="45.1988769" lon="10.7115904"><ele>21.0</ele><time>2026-04-05T17:19:40.713Z</time></trkpt><trkpt lat="45.1989822" lon="10.7114921"><ele>20.6</ele><time>2026-04-05T17:19:42.716Z</time></trkpt><trkpt lat="45.1990357" lon="10.7114355"><ele>20.200000000000003</ele><time>2026-04-05T17:19:43.715Z</time></trkpt><trkpt lat="45.1991335" lon="10.7113326"><ele>19.799999999999997</ele><time>2026-04-05T17:19:45.713Z</time></trkpt><trkpt lat="45.1992379" lon="10.7112343"><ele>19.4</ele><time>2026-04-05T17:19:47.714Z</time></trkpt><trkpt lat="45.1993439" lon="10.7111462"><ele>19.0</ele><time>2026-04-05T17:19:49.714Z</time></trkpt><trkpt lat="45.1994015" lon="10.7110922"><ele>19.333333333333332</ele><time>2026-04-05T17:19:50.714Z</time></trkpt><trkpt lat="45.1994535" lon="10.7110375"><ele>19.666666666666664</ele><time>2026-04-05T17:19:51.714Z</time></trkpt><trkpt lat="45.1995596" lon="10.7109354"><ele>20.0</ele><time>2026-04-05T17:19:53.714Z</time></trkpt><trkpt lat="45.1996139" lon="10.7108877"><ele>20.333333333333332</ele><time>2026-04-05T17:19:54.715Z</time></trkpt><trkpt lat="45.1996693" lon="10.710835"><ele>20.666666666666668</ele><time>2026-04-05T17:19:55.715Z</time></trkpt><trkpt lat="45.1997238" lon="10.7107866"><ele>21.0</ele><time>2026-04-05T17:19:56.713Z</time></trkpt><trkpt lat="45.1997793" lon="10.7107423"><ele>21.4</ele><time>2026-04-05T17:19:57.716Z</time></trkpt><trkpt lat="45.1998834" lon="10.7106386"><ele>21.8</ele><time>2026-04-05T17:19:59.714Z</time></trkpt><trkpt lat="45.1999959" lon="10.7105451"><ele>22.2</ele><time>2026-04-05T17:20:01.713Z</time></trkpt><trkpt lat="45.2000516" lon="10.7104902"><ele>22.599999999999998</ele><time>2026-04-05T17:20:02.714Z</time></trkpt><trkpt lat="45.2001078" lon="10.7104389"><ele>23.0</ele><time>2026-04-05T17:20:03.714Z</time></trkpt><trkpt lat="45.2001625" lon="10.7103889"><ele>23.0</ele><time>2026-04-05T17:20:04.714Z</time></trkpt><trkpt lat="45.2002178" lon="10.7103341"><ele>23.0</ele><time>2026-04-05T17:20:05.714Z</time></trkpt><trkpt lat="45.2002735" lon="10.7102851"><ele>23.0</ele><time>2026-04-05T17:20:06.715Z</time></trkpt><trkpt lat="45.2003275" lon="10.7102347"><ele>23.0</ele><time>2026-04-05T17:20:07.714Z</time></trkpt><trkpt lat="45.2003812" lon="10.7101856"><ele>23.0</ele><time>2026-04-05T17:20:08.714Z</time></trkpt><trkpt lat="45.2004381" lon="10.7101324"><ele>23.0</ele><time>2026-04-05T17:20:09.715Z</time></trkpt><trkpt lat="45.2004924" lon="10.710076"><ele>23.0</ele><time>2026-04-05T17:20:10.714Z</time></trkpt><trkpt lat="45.2005484" lon="10.7100298"><ele>22.857142857142858</ele><time>2026-04-05T17:20:11.713Z</time></trkpt><trkpt lat="45.2006047" lon="10.7099796"><ele>22.71428571428571</ele><time>2026-04-05T17:20:12.715Z</time></trkpt><trkpt lat="45.2006598" lon="10.7099237"><ele>22.57142857142857</ele><time>2026-04-05T17:20:13.715Z</time></trkpt><trkpt lat="45.2007186" lon="10.7098795"><ele>22.42857142857143</ele><time>2026-04-05T17:20:14.714Z</time></trkpt><trkpt lat="45.2007749" lon="10.7098285"><ele>22.285714285714285</ele><time>2026-04-05T17:20:15.715Z</time></trkpt><trkpt lat="45.20083" lon="10.7097735"><ele>22.142857142857142</ele><time>2026-04-05T17:20:16.714Z</time></trkpt><trkpt lat="45.2008833" lon="10.7097236"><ele>22.0</ele><time>2026-04-05T17:20:17.714Z</time></trkpt><trkpt lat="45.200943" lon="10.709677"><ele>22.0</ele><time>2026-04-05T17:20:18.715Z</time></trkpt><trkpt lat="45.200996" lon="10.7096273"><ele>22.0</ele><time>2026-04-05T17:20:19.713Z</time></trkpt><trkpt lat="45.2010542" lon="10.7095755"><ele>22.0</ele><time>2026-04-05T17:20:20.714Z</time></trkpt><trkpt lat="45.2011094" lon="10.7095203"><ele>22.0</ele><time>2026-04-05T17:20:21.713Z</time></trkpt><trkpt lat="45.2011645" lon="10.7094663"><ele>22.0</ele><time>2026-04-05T17:20:22.714Z</time></trkpt><trkpt lat="45.201222" lon="10.709417"><ele>22.0</ele><time>2026-04-05T17:20:23.713Z</time></trkpt><trkpt lat="45.2013296" lon="10.7093181"><ele>22.0</ele><time>2026-04-05T17:20:25.714Z</time></trkpt><trkpt lat="45.2013816" lon="10.7092636"><ele>22.0</ele><time>2026-04-05T17:20:26.713Z</time></trkpt><trkpt lat="45.2014376" lon="10.709209"><ele>22.0</ele><time>2026-04-05T17:20:27.714Z</time></trkpt><trkpt lat="45.2014926" lon="10.709162"><ele>22.0</ele><time>2026-04-05T17:20:28.714Z</time></trkpt><trkpt lat="45.2015488" lon="10.7091124"><ele>22.0</ele><time>2026-04-05T17:20:29.715Z</time></trkpt><trkpt lat="45.201602" lon="10.709059"><ele>22.0</ele><time>2026-04-05T17:20:30.714Z</time></trkpt><trkpt lat="45.2016539" lon="10.7090019"><ele>22.0</ele><time>2026-04-05T17:20:31.714Z</time></trkpt><trkpt lat="45.2017063" lon="10.7089516"><ele>22.0</ele><time>2026-04-05T17:20:32.714Z</time></trkpt><trkpt lat="45.201761" lon="10.7089004"><ele>22.0</ele><time>2026-04-05T17:20:33.714Z</time></trkpt><trkpt lat="45.2018148" lon="10.7088465"><ele>22.0</ele><time>2026-04-05T17:20:34.715Z</time></trkpt><trkpt lat="45.2019216" lon="10.7087495"><ele>22.0</ele><time>2026-04-05T17:20:36.715Z</time></trkpt><trkpt lat="45.2020288" lon="10.7086501"><ele>22.0</ele><time>2026-04-05T17:20:38.714Z</time></trkpt><trkpt lat="45.2021347" lon="10.7085556"><ele>22.0</ele><time>2026-04-05T17:20:40.714Z</time></trkpt><trkpt lat="45.2021888" lon="10.7085036"><ele>22.0</ele><time>2026-04-05T17:20:41.715Z</time></trkpt><trkpt lat="45.2022451" lon="10.70846"><ele>22.0</ele><time>2026-04-05T17:20:42.714Z</time></trkpt><trkpt lat="45.2023039" lon="10.708414"><ele>22.0</ele><time>2026-04-05T17:20:43.714Z</time></trkpt><trkpt lat="45.2023555" lon="10.708361"><ele>22.0</ele><time>2026-04-05T17:20:44.714Z</time></trkpt><trkpt lat="45.2024085" lon="10.7083099"><ele>22.0</ele><time>2026-04-05T17:20:45.714Z</time></trkpt><trkpt lat="45.2024628" lon="10.7082586"><ele>22.0</ele><time>2026-04-05T17:20:46.714Z</time></trkpt><trkpt lat="45.2025634" lon="10.7081565"><ele>22.0</ele><time>2026-04-05T17:20:48.713Z</time></trkpt><trkpt lat="45.2026147" lon="10.7081032"><ele>22.0</ele><time>2026-04-05T17:20:49.714Z</time></trkpt><trkpt lat="45.2026648" lon="10.7080487"><ele>22.0</ele><time>2026-04-05T17:20:50.713Z</time></trkpt><trkpt lat="45.2027696" lon="10.7079513"><ele>22.0</ele><time>2026-04-05T17:20:52.713Z</time></trkpt><trkpt lat="45.2028714" lon="10.7078598"><ele>22.0</ele><time>2026-04-05T17:20:54.714Z</time></trkpt><trkpt lat="45.2029702" lon="10.7077555"><ele>22.0</ele><time>2026-04-05T17:20:56.714Z</time></trkpt><trkpt lat="45.2030718" lon="10.707658"><ele>22.0</ele><time>2026-04-05T17:20:58.713Z</time></trkpt><trkpt lat="45.2031782" lon="10.7075662"><ele>22.0</ele><time>2026-04-05T17:21:00.714Z</time></trkpt><trkpt lat="45.2032796" lon="10.7074693"><ele>22.0</ele><time>2026-04-05T17:21:02.714Z</time></trkpt><trkpt lat="45.2033348" lon="10.7074175"><ele>22.0</ele><time>2026-04-05T17:21:03.713Z</time></trkpt><trkpt lat="45.2033894" lon="10.7073653"><ele>22.0</ele><time>2026-04-05T17:21:04.713Z</time></trkpt><trkpt lat="45.2034453" lon="10.7073189"><ele>22.0</ele><time>2026-04-05T17:21:05.715Z</time></trkpt><trkpt lat="45.2034983" lon="10.7072665"><ele>22.0</ele><time>2026-04-05T17:21:06.714Z</time></trkpt><trkpt lat="45.2035498" lon="10.7072129"><ele>22.0</ele><time>2026-04-05T17:21:07.713Z</time></trkpt><trkpt lat="45.2036062" lon="10.7071622"><ele>22.0</ele><time>2026-04-05T17:21:08.712Z</time></trkpt><trkpt lat="45.2036605" lon="10.7071098"><ele>22.0</ele><time>2026-04-05T17:21:09.713Z</time></trkpt><trkpt lat="45.2037147" lon="10.7070572"><ele>22.0</ele><time>2026-04-05T17:21:10.714Z</time></trkpt><trkpt lat="45.2037691" lon="10.7070035"><ele>22.0</ele><time>2026-04-05T17:21:11.713Z</time></trkpt><trkpt lat="45.203826" lon="10.7069559"><ele>22.0</ele><time>2026-04-05T17:21:12.715Z</time></trkpt><trkpt lat="45.2039277" lon="10.7068572"><ele>22.0</ele><time>2026-04-05T17:21:14.712Z</time></trkpt><trkpt lat="45.2039828" lon="10.7067997"><ele>22.0</ele><time>2026-04-05T17:21:15.714Z</time></trkpt><trkpt lat="45.2040443" lon="10.7067504"><ele>22.0</ele><time>2026-04-05T17:21:16.713Z</time></trkpt><trkpt lat="45.2040993" lon="10.7067019"><ele>22.0</ele><time>2026-04-05T17:21:17.715Z</time></trkpt><trkpt lat="45.2041569" lon="10.706656"><ele>21.857142857142858</ele><time>2026-04-05T17:21:18.714Z</time></trkpt><trkpt lat="45.2042152" lon="10.7065974"><ele>21.714285714285715</ele><time>2026-04-05T17:21:19.715Z</time></trkpt><trkpt lat="45.2042707" lon="10.7065476"><ele>21.57142857142857</ele><time>2026-04-05T17:21:20.714Z</time></trkpt><trkpt lat="45.2043262" lon="10.7065023"><ele>21.42857142857143</ele><time>2026-04-05T17:21:21.715Z</time></trkpt><trkpt lat="45.2043807" lon="10.7064566"><ele>21.285714285714285</ele><time>2026-04-05T17:21:22.713Z</time></trkpt><trkpt lat="45.2044351" lon="10.7064071"><ele>21.142857142857142</ele><time>2026-04-05T17:21:23.714Z</time></trkpt><trkpt lat="45.2044877" lon="10.7063564"><ele>21.0</ele><time>2026-04-05T17:21:24.714Z</time></trkpt><trkpt lat="45.2045423" lon="10.7063031"><ele>21.0</ele><time>2026-04-05T17:21:25.713Z</time></trkpt><trkpt lat="45.2045961" lon="10.7062499"><ele>21.0</ele><time>2026-04-05T17:21:26.713Z</time></trkpt><trkpt lat="45.2046487" lon="10.7061961"><ele>21.0</ele><time>2026-04-05T17:21:27.713Z</time></trkpt><trkpt lat="45.2047063" lon="10.7061471"><ele>21.0</ele><time>2026-04-05T17:21:28.713Z</time></trkpt><trkpt lat="45.2047568" lon="10.7060929"><ele>21.0</ele><time>2026-04-05T17:21:29.712Z</time></trkpt><trkpt lat="45.2048124" lon="10.7060409"><ele>21.0</ele><time>2026-04-05T17:21:30.714Z</time></trkpt><trkpt lat="45.2048687" lon="10.7059922"><ele>21.0</ele><time>2026-04-05T17:21:31.714Z</time></trkpt><trkpt lat="45.2049204" lon="10.7059339"><ele>20.857142857142858</ele><time>2026-04-05T17:21:32.713Z</time></trkpt><trkpt lat="45.2049821" lon="10.7058933"><ele>20.714285714285715</ele><time>2026-04-05T17:21:33.715Z</time></trkpt><trkpt lat="45.2050428" lon="10.7058391"><ele>20.57142857142857</ele><time>2026-04-05T17:21:34.714Z</time></trkpt><trkpt lat="45.2050999" lon="10.7057868"><ele>20.42857142857143</ele><time>2026-04-05T17:21:35.714Z</time></trkpt><trkpt lat="45.2051571" lon="10.7057329"><ele>20.285714285714285</ele><time>2026-04-05T17:21:36.712Z</time></trkpt><trkpt lat="45.2052104" lon="10.7056811"><ele>20.142857142857142</ele><time>2026-04-05T17:21:37.714Z</time></trkpt><trkpt lat="45.2052642" lon="10.7056258"><ele>20.0</ele><time>2026-04-05T17:21:38.712Z</time></trkpt><trkpt lat="45.2053214" lon="10.7055747"><ele>20.0</ele><time>2026-04-05T17:21:39.713Z</time></trkpt><trkpt lat="45.2053777" lon="10.7055185"><ele>20.0</ele><time>2026-04-05T17:21:40.714Z</time></trkpt><trkpt lat="45.2054311" lon="10.7054631"><ele>20.0</ele><time>2026-04-05T17:21:41.715Z</time></trkpt><trkpt lat="45.205487" lon="10.7054083"><ele>20.0</ele><time>2026-04-05T17:21:42.714Z</time></trkpt><trkpt lat="45.2055409" lon="10.7053521"><ele>20.0</ele><time>2026-04-05T17:21:43.712Z</time></trkpt><trkpt lat="45.2055877" lon="10.7052887"><ele>20.0</ele><time>2026-04-05T17:21:44.713Z</time></trkpt><trkpt lat="45.2056434" lon="10.7052351"><ele>20.0</ele><time>2026-04-05T17:21:45.713Z</time></trkpt><trkpt lat="45.2056947" lon="10.7051819"><ele>20.333333333333336</ele><time>2026-04-05T17:21:46.714Z</time></trkpt><trkpt lat="45.2058062" lon="10.7051037"><ele>20.666666666666668</ele><time>2026-04-05T17:21:48.714Z</time></trkpt><trkpt lat="45.2059066" lon="10.7049988"><ele>21.0</ele><time>2026-04-05T17:21:50.713Z</time></trkpt><trkpt lat="45.2059589" lon="10.704944"><ele>21.333333333333332</ele><time>2026-04-05T17:21:51.713Z</time></trkpt><trkpt lat="45.2060115" lon="10.7048882"><ele>21.666666666666664</ele><time>2026-04-05T17:21:52.715Z</time></trkpt><trkpt lat="45.2060663" lon="10.704832"><ele>22.0</ele><time>2026-04-05T17:21:53.713Z</time></trkpt><trkpt lat="45.2061221" lon="10.7047854"><ele>22.0</ele><time>2026-04-05T17:21:54.713Z</time></trkpt><trkpt lat="45.2062332" lon="10.7046975"><ele>22.0</ele><time>2026-04-05T17:21:56.713Z</time></trkpt><trkpt lat="45.2062877" lon="10.7046466"><ele>22.0</ele><time>2026-04-05T17:21:57.714Z</time></trkpt><trkpt lat="45.2063782" lon="10.7045336"><ele>22.0</ele><time>2026-04-05T17:21:59.714Z</time></trkpt><trkpt lat="45.2064866" lon="10.7044344"><ele>22.0</ele><time>2026-04-05T17:22:01.714Z</time></trkpt><trkpt lat="45.2065427" lon="10.7043835"><ele>22.333333333333332</ele><time>2026-04-05T17:22:02.714Z</time></trkpt><trkpt lat="45.2065974" lon="10.704329"><ele>22.666666666666664</ele><time>2026-04-05T17:22:03.714Z</time></trkpt><trkpt lat="45.2066557" lon="10.7042726"><ele>23.0</ele><time>2026-04-05T17:22:04.714Z</time></trkpt><trkpt lat="45.2067126" lon="10.7042204"><ele>23.333333333333332</ele><time>2026-04-05T17:22:05.713Z</time></trkpt><trkpt lat="45.2067689" lon="10.7041694"><ele>23.666666666666668</ele><time>2026-04-05T17:22:06.714Z</time></trkpt><trkpt lat="45.2068761" lon="10.7040625"><ele>24.0</ele><time>2026-04-05T17:22:08.713Z</time></trkpt><trkpt lat="45.2069361" lon="10.7040103"><ele>23.999999999999996</ele><time>2026-04-05T17:22:09.713Z</time></trkpt><trkpt lat="45.2069911" lon="10.7039575"><ele>24.0</ele><time>2026-04-05T17:22:10.714Z</time></trkpt><trkpt lat="45.2070439" lon="10.7039084"><ele>24.0</ele><time>2026-04-05T17:22:11.712Z</time></trkpt><trkpt lat="45.2071002" lon="10.7038539"><ele>24.0</ele><time>2026-04-05T17:22:12.714Z</time></trkpt><trkpt lat="45.2071522" lon="10.7037944"><ele>24.0</ele><time>2026-04-05T17:22:13.714Z</time></trkpt><trkpt lat="45.2072107" lon="10.7037433"><ele>23.999999999999996</ele><time>2026-04-05T17:22:14.713Z</time></trkpt><trkpt lat="45.2072641" lon="10.7036909"><ele>24.0</ele><time>2026-04-05T17:22:15.712Z</time></trkpt><trkpt lat="45.2073173" lon="10.7036388"><ele>23.999999999999996</ele><time>2026-04-05T17:22:16.714Z</time></trkpt><trkpt lat="45.2073737" lon="10.7035889"><ele>24.0</ele><time>2026-04-05T17:22:17.713Z</time></trkpt><trkpt lat="45.2074291" lon="10.7035366"><ele>24.0</ele><time>2026-04-05T17:22:18.714Z</time></trkpt><trkpt lat="45.2074832" lon="10.7034836"><ele>24.0</ele><time>2026-04-05T17:22:19.712Z</time></trkpt><trkpt lat="45.2075368" lon="10.7034272"><ele>24.0</ele><time>2026-04-05T17:22:20.712Z</time></trkpt><trkpt lat="45.2075907" lon="10.7033739"><ele>23.999999999999996</ele><time>2026-04-05T17:22:21.714Z</time></trkpt><trkpt lat="45.2076427" lon="10.7033207"><ele>24.0</ele><time>2026-04-05T17:22:22.714Z</time></trkpt><trkpt lat="45.2076964" lon="10.7032718"><ele>23.5</ele><time>2026-04-05T17:22:23.714Z</time></trkpt><trkpt lat="45.207804" lon="10.70317"><ele>23.0</ele><time>2026-04-05T17:22:25.715Z</time></trkpt><trkpt lat="45.2078572" lon="10.7031188"><ele>22.5</ele><time>2026-04-05T17:22:26.713Z</time></trkpt><trkpt lat="45.207913" lon="10.7030673"><ele>22.0</ele><time>2026-04-05T17:22:27.713Z</time></trkpt><trkpt lat="45.2079651" lon="10.7030121"><ele>21.5</ele><time>2026-04-05T17:22:28.715Z</time></trkpt><trkpt lat="45.2080149" lon="10.7029551"><ele>21.0</ele><time>2026-04-05T17:22:29.714Z</time></trkpt><trkpt lat="45.2080671" lon="10.7029026"><ele>21.0</ele><time>2026-04-05T17:22:30.713Z</time></trkpt><trkpt lat="45.2081213" lon="10.7028435"><ele>21.0</ele><time>2026-04-05T17:22:31.713Z</time></trkpt><trkpt lat="45.2081733" lon="10.702787"><ele>21.0</ele><time>2026-04-05T17:22:32.714Z</time></trkpt><trkpt lat="45.2082271" lon="10.7027336"><ele>21.0</ele><time>2026-04-05T17:22:33.714Z</time></trkpt><trkpt lat="45.2082841" lon="10.7026802"><ele>21.0</ele><time>2026-04-05T17:22:34.714Z</time></trkpt><trkpt lat="45.2083902" lon="10.7025769"><ele>21.0</ele><time>2026-04-05T17:22:36.713Z</time></trkpt><trkpt lat="45.2084453" lon="10.7025288"><ele>21.166666666666668</ele><time>2026-04-05T17:22:37.714Z</time></trkpt><trkpt lat="45.2085009" lon="10.702474"><ele>21.333333333333332</ele><time>2026-04-05T17:22:38.713Z</time></trkpt><trkpt lat="45.2086015" lon="10.7023709"><ele>21.5</ele><time>2026-04-05T17:22:40.714Z</time></trkpt><trkpt lat="45.2086565" lon="10.7023187"><ele>21.666666666666664</ele><time>2026-04-05T17:22:41.714Z</time></trkpt><trkpt lat="45.2087107" lon="10.702268"><ele>21.833333333333332</ele><time>2026-04-05T17:22:42.712Z</time></trkpt><trkpt lat="45.2087653" lon="10.7022137"><ele>22.0</ele><time>2026-04-05T17:22:43.714Z</time></trkpt><trkpt lat="45.2088162" lon="10.7021603"><ele>22.0</ele><time>2026-04-05T17:22:44.714Z</time></trkpt><trkpt lat="45.2088685" lon="10.7021063"><ele>22.0</ele><time>2026-04-05T17:22:45.713Z</time></trkpt><trkpt lat="45.2089698" lon="10.7020015"><ele>22.0</ele><time>2026-04-05T17:22:47.713Z</time></trkpt><trkpt lat="45.2090698" lon="10.7019027"><ele>22.0</ele><time>2026-04-05T17:22:49.715Z</time></trkpt><trkpt lat="45.2091696" lon="10.7018025"><ele>22.0</ele><time>2026-04-05T17:22:51.715Z</time></trkpt><trkpt lat="45.2092715" lon="10.7017073"><ele>22.0</ele><time>2026-04-05T17:22:53.714Z</time></trkpt><trkpt lat="45.2093602" lon="10.7016261"><ele>22.0</ele><time>2026-04-05T17:22:55.714Z</time></trkpt><trkpt lat="45.2094443" lon="10.7015573"><ele>22.0</ele><time>2026-04-05T17:22:57.714Z</time></trkpt><trkpt lat="45.2095336" lon="10.7014781"><ele>22.0</ele><time>2026-04-05T17:22:59.713Z</time></trkpt><trkpt lat="45.2096416" lon="10.7013948"><ele>22.0</ele><time>2026-04-05T17:23:01.714Z</time></trkpt><trkpt lat="45.2096965" lon="10.7013428"><ele>22.0</ele><time>2026-04-05T17:23:02.713Z</time></trkpt><trkpt lat="45.2098023" lon="10.7012349"><ele>22.0</ele><time>2026-04-05T17:23:04.714Z</time></trkpt><trkpt lat="45.2098569" lon="10.7011847"><ele>22.0</ele><time>2026-04-05T17:23:05.714Z</time></trkpt><trkpt lat="45.2099114" lon="10.7011336"><ele>22.0</ele><time>2026-04-05T17:23:06.714Z</time></trkpt><trkpt lat="45.2100134" lon="10.70103"><ele>22.0</ele><time>2026-04-05T17:23:08.713Z</time></trkpt><trkpt lat="45.2100664" lon="10.7009796"><ele>21.833333333333332</ele><time>2026-04-05T17:23:09.713Z</time></trkpt><trkpt lat="45.2101686" lon="10.7008765"><ele>21.666666666666664</ele><time>2026-04-05T17:23:11.714Z</time></trkpt><trkpt lat="45.2102227" lon="10.7008192"><ele>21.5</ele><time>2026-04-05T17:23:12.715Z</time></trkpt><trkpt lat="45.210275" lon="10.7007661"><ele>21.333333333333332</ele><time>2026-04-05T17:23:13.713Z</time></trkpt><trkpt lat="45.2103276" lon="10.7007159"><ele>21.166666666666668</ele><time>2026-04-05T17:23:14.714Z</time></trkpt><trkpt lat="45.2104361" lon="10.7006225"><ele>21.0</ele><time>2026-04-05T17:23:16.714Z</time></trkpt><trkpt lat="45.2105321" lon="10.700515"><ele>21.0</ele><time>2026-04-05T17:23:18.714Z</time></trkpt><trkpt lat="45.2106268" lon="10.7004174"><ele>21.0</ele><time>2026-04-05T17:23:20.713Z</time></trkpt><trkpt lat="45.2107253" lon="10.7003177"><ele>21.0</ele><time>2026-04-05T17:23:22.713Z</time></trkpt><trkpt lat="45.2108274" lon="10.7002115"><ele>21.0</ele><time>2026-04-05T17:23:24.713Z</time></trkpt><trkpt lat="45.2109284" lon="10.7001118"><ele>20.8</ele><time>2026-04-05T17:23:26.713Z</time></trkpt><trkpt lat="45.2110281" lon="10.7000127"><ele>20.6</ele><time>2026-04-05T17:23:28.714Z</time></trkpt><trkpt lat="45.2111267" lon="10.6999285"><ele>20.4</ele><time>2026-04-05T17:23:30.714Z</time></trkpt><trkpt lat="45.2111814" lon="10.6998758"><ele>20.2</ele><time>2026-04-05T17:23:31.713Z</time></trkpt><trkpt lat="45.2112796" lon="10.6997839"><ele>20.0</ele><time>2026-04-05T17:23:33.712Z</time></trkpt><trkpt lat="45.2113782" lon="10.6996815"><ele>20.0</ele><time>2026-04-05T17:23:35.715Z</time></trkpt><trkpt lat="45.2114763" lon="10.6995861"><ele>20.0</ele><time>2026-04-05T17:23:37.714Z</time></trkpt><trkpt lat="45.2115809" lon="10.6994826"><ele>20.0</ele><time>2026-04-05T17:23:39.714Z</time></trkpt><trkpt lat="45.2116776" lon="10.6993815"><ele>20.0</ele><time>2026-04-05T17:23:41.713Z</time></trkpt><trkpt lat="45.2117795" lon="10.6992782"><ele>20.5</ele><time>2026-04-05T17:23:43.713Z</time></trkpt><trkpt lat="45.2118311" lon="10.6992225"><ele>21.0</ele><time>2026-04-05T17:23:44.713Z</time></trkpt><trkpt lat="45.2119303" lon="10.6991201"><ele>21.5</ele><time>2026-04-05T17:23:46.713Z</time></trkpt><trkpt lat="45.2119857" lon="10.6990642"><ele>22.0</ele><time>2026-04-05T17:23:47.715Z</time></trkpt><trkpt lat="45.2120363" lon="10.6990074"><ele>22.5</ele><time>2026-04-05T17:23:48.714Z</time></trkpt><trkpt lat="45.2120912" lon="10.698954"><ele>23.0</ele><time>2026-04-05T17:23:49.714Z</time></trkpt><trkpt lat="45.2121934" lon="10.6988546"><ele>23.0</ele><time>2026-04-05T17:23:51.712Z</time></trkpt><trkpt lat="45.2122929" lon="10.6987553"><ele>23.0</ele><time>2026-04-05T17:23:53.714Z</time></trkpt><trkpt lat="45.2123977" lon="10.6986619"><ele>23.0</ele><time>2026-04-05T17:23:55.713Z</time></trkpt><trkpt lat="45.2125013" lon="10.6985553"><ele>23.0</ele><time>2026-04-05T17:23:57.712Z</time></trkpt><trkpt lat="45.2126022" lon="10.6984573"><ele>23.0</ele><time>2026-04-05T17:23:59.713Z</time></trkpt><trkpt lat="45.2127045" lon="10.6983565"><ele>23.0</ele><time>2026-04-05T17:24:01.713Z</time></trkpt><trkpt lat="45.212758" lon="10.6983083"><ele>23.0</ele><time>2026-04-05T17:24:02.713Z</time></trkpt><trkpt lat="45.2128113" lon="10.6982592"><ele>23.0</ele><time>2026-04-05T17:24:03.714Z</time></trkpt><trkpt lat="45.2128634" lon="10.6982065"><ele>23.0</ele><time>2026-04-05T17:24:04.714Z</time></trkpt><trkpt lat="45.2129559" lon="10.6980944"><ele>23.0</ele><time>2026-04-05T17:24:06.713Z</time></trkpt><trkpt lat="45.2130107" lon="10.6980376"><ele>23.0</ele><time>2026-04-05T17:24:07.713Z</time></trkpt><trkpt lat="45.2130683" lon="10.6979852"><ele>23.0</ele><time>2026-04-05T17:24:08.712Z</time></trkpt><trkpt lat="45.2131212" lon="10.6979317"><ele>23.0</ele><time>2026-04-05T17:24:09.714Z</time></trkpt><trkpt lat="45.2131773" lon="10.6978748"><ele>23.0</ele><time>2026-04-05T17:24:10.713Z</time></trkpt><trkpt lat="45.2132323" lon="10.6978191"><ele>23.0</ele><time>2026-04-05T17:24:11.712Z</time></trkpt><trkpt lat="45.2132913" lon="10.6977598"><ele>23.0</ele><time>2026-04-05T17:24:12.713Z</time></trkpt><trkpt lat="45.2133515" lon="10.6976974"><ele>23.0</ele><time>2026-04-05T17:24:13.715Z</time></trkpt><trkpt lat="45.2134066" lon="10.6976401"><ele>23.0</ele><time>2026-04-05T17:24:14.715Z</time></trkpt><trkpt lat="45.2134632" lon="10.6975852"><ele>23.0</ele><time>2026-04-05T17:24:15.714Z</time></trkpt><trkpt lat="45.2135169" lon="10.6975288"><ele>23.0</ele><time>2026-04-05T17:24:16.713Z</time></trkpt><trkpt lat="45.2135736" lon="10.6974724"><ele>23.0</ele><time>2026-04-05T17:24:17.714Z</time></trkpt><trkpt lat="45.2136269" lon="10.697414"><ele>23.0</ele><time>2026-04-05T17:24:18.713Z</time></trkpt><trkpt lat="45.213674" lon="10.6973502"><ele>23.0</ele><time>2026-04-05T17:24:19.713Z</time></trkpt><trkpt lat="45.2137738" lon="10.6972443"><ele>23.0</ele><time>2026-04-05T17:24:21.714Z</time></trkpt><trkpt lat="45.2138764" lon="10.6971562"><ele>23.0</ele><time>2026-04-05T17:24:23.713Z</time></trkpt><trkpt lat="45.2139858" lon="10.697072"><ele>23.0</ele><time>2026-04-05T17:24:25.713Z</time></trkpt><trkpt lat="45.2140415" lon="10.6970277"><ele>23.0</ele><time>2026-04-05T17:24:26.713Z</time></trkpt><trkpt lat="45.2140971" lon="10.6969809"><ele>23.0</ele><time>2026-04-05T17:24:27.714Z</time></trkpt><trkpt lat="45.214158" lon="10.6969307"><ele>23.0</ele><time>2026-04-05T17:24:28.713Z</time></trkpt><trkpt lat="45.2142133" lon="10.6968728"><ele>22.571428571428573</ele><time>2026-04-05T17:24:29.714Z</time></trkpt><trkpt lat="45.2142679" lon="10.6968105"><ele>22.142857142857142</ele><time>2026-04-05T17:24:30.713Z</time></trkpt><trkpt lat="45.2143281" lon="10.6967545"><ele>21.714285714285715</ele><time>2026-04-05T17:24:31.715Z</time></trkpt><trkpt lat="45.2143909" lon="10.6966916"><ele>21.285714285714285</ele><time>2026-04-05T17:24:32.712Z</time></trkpt><trkpt lat="45.2144481" lon="10.6966348"><ele>20.857142857142858</ele><time>2026-04-05T17:24:33.714Z</time></trkpt><trkpt lat="45.2145099" lon="10.6965766"><ele>20.428571428571427</ele><time>2026-04-05T17:24:34.715Z</time></trkpt><trkpt lat="45.2145702" lon="10.6965142"><ele>20.0</ele><time>2026-04-05T17:24:35.714Z</time></trkpt><trkpt lat="45.2146289" lon="10.6964612"><ele>20.0</ele><time>2026-04-05T17:24:36.714Z</time></trkpt><trkpt lat="45.2146866" lon="10.6964066"><ele>20.0</ele><time>2026-04-05T17:24:37.714Z</time></trkpt><trkpt lat="45.2147487" lon="10.6963506"><ele>20.0</ele><time>2026-04-05T17:24:38.713Z</time></trkpt><trkpt lat="45.2148035" lon="10.696296"><ele>20.0</ele><time>2026-04-05T17:24:39.713Z</time></trkpt><trkpt lat="45.2148637" lon="10.6962422"><ele>20.0</ele><time>2026-04-05T17:24:40.712Z</time></trkpt><trkpt lat="45.2149217" lon="10.6961843"><ele>20.0</ele><time>2026-04-05T17:24:41.713Z</time></trkpt><trkpt lat="45.2149779" lon="10.6961269"><ele>20.0</ele><time>2026-04-05T17:24:42.712Z</time></trkpt><trkpt lat="45.2150364" lon="10.6960672"><ele>20.0</ele><time>2026-04-05T17:24:43.714Z</time></trkpt><trkpt lat="45.2150893" lon="10.6960048"><ele>20.0</ele><time>2026-04-05T17:24:44.713Z</time></trkpt><trkpt lat="45.2151407" lon="10.6959436"><ele>20.0</ele><time>2026-04-05T17:24:45.713Z</time></trkpt><trkpt lat="45.2151916" lon="10.6958864"><ele>20.0</ele><time>2026-04-05T17:24:46.713Z</time></trkpt><trkpt lat="45.2152473" lon="10.6958301"><ele>20.0</ele><time>2026-04-05T17:24:47.712Z</time></trkpt><trkpt lat="45.2153048" lon="10.6957778"><ele>20.0</ele><time>2026-04-05T17:24:48.713Z</time></trkpt><trkpt lat="45.2153647" lon="10.6957138"><ele>20.0</ele><time>2026-04-05T17:24:49.714Z</time></trkpt><trkpt lat="45.2154214" lon="10.6956476"><ele>20.0</ele><time>2026-04-05T17:24:50.714Z</time></trkpt><trkpt lat="45.2154816" lon="10.6955966"><ele>20.0</ele><time>2026-04-05T17:24:51.713Z</time></trkpt><trkpt lat="45.215541" lon="10.695538"><ele>20.0</ele><time>2026-04-05T17:24:52.714Z</time></trkpt><trkpt lat="45.2156022" lon="10.6954774"><ele>20.0</ele><time>2026-04-05T17:24:53.713Z</time></trkpt><trkpt lat="45.2156654" lon="10.6954221"><ele>20.0</ele><time>2026-04-05T17:24:54.713Z</time></trkpt><trkpt lat="45.2157267" lon="10.6953666"><ele>20.0</ele><time>2026-04-05T17:24:55.714Z</time></trkpt><trkpt lat="45.2157848" lon="10.6953069"><ele>20.0</ele><time>2026-04-05T17:24:56.713Z</time></trkpt><trkpt lat="45.2158425" lon="10.6952579"><ele>20.0</ele><time>2026-04-05T17:24:57.715Z</time></trkpt><trkpt lat="45.2158991" lon="10.6952015"><ele>20.0</ele><time>2026-04-05T17:24:58.713Z</time></trkpt><trkpt lat="45.2160057" lon="10.6950954"><ele>20.0</ele><time>2026-04-05T17:25:00.713Z</time></trkpt><trkpt lat="45.2160585" lon="10.6950388"><ele>20.0</ele><time>2026-04-05T17:25:01.713Z</time></trkpt><trkpt lat="45.2161121" lon="10.6949898"><ele>20.0</ele><time>2026-04-05T17:25:02.713Z</time></trkpt><trkpt lat="45.2161662" lon="10.694941"><ele>20.0</ele><time>2026-04-05T17:25:03.714Z</time></trkpt><trkpt lat="45.2162191" lon="10.6948878"><ele>20.0</ele><time>2026-04-05T17:25:04.715Z</time></trkpt><trkpt lat="45.216275" lon="10.6948395"><ele>20.0</ele><time>2026-04-05T17:25:05.713Z</time></trkpt><trkpt lat="45.2163759" lon="10.6947416"><ele>20.0</ele><time>2026-04-05T17:25:07.712Z</time></trkpt><trkpt lat="45.2164736" lon="10.6946418"><ele>20.0</ele><time>2026-04-05T17:25:09.713Z</time></trkpt><trkpt lat="45.2165242" lon="10.6945866"><ele>20.0</ele><time>2026-04-05T17:25:10.714Z</time></trkpt><trkpt lat="45.2166188" lon="10.6944826"><ele>20.8</ele><time>2026-04-05T17:25:12.713Z</time></trkpt><trkpt lat="45.2166693" lon="10.6944279"><ele>21.6</ele><time>2026-04-05T17:25:13.714Z</time></trkpt><trkpt lat="45.2167641" lon="10.6943333"><ele>22.4</ele><time>2026-04-05T17:25:15.713Z</time></trkpt><trkpt lat="45.2168534" lon="10.6942281"><ele>23.2</ele><time>2026-04-05T17:25:17.712Z</time></trkpt><trkpt lat="45.2169313" lon="10.6941281"><ele>24.0</ele><time>2026-04-05T17:25:19.713Z</time></trkpt><trkpt lat="45.2170003" lon="10.6940474"><ele>24.0</ele><time>2026-04-05T17:25:21.713Z</time></trkpt><trkpt lat="45.2170611" lon="10.6939856"><ele>24.0</ele><time>2026-04-05T17:25:23.714Z</time></trkpt><trkpt lat="45.217126" lon="10.6939327"><ele>24.0</ele><time>2026-04-05T17:25:25.713Z</time></trkpt><trkpt lat="45.2171977" lon="10.6938704"><ele>24.0</ele><time>2026-04-05T17:25:27.713Z</time></trkpt><trkpt lat="45.2172829" lon="10.693803"><ele>24.0</ele><time>2026-04-05T17:25:29.712Z</time></trkpt><trkpt lat="45.2173681" lon="10.693735"><ele>24.0</ele><time>2026-04-05T17:25:31.712Z</time></trkpt><trkpt lat="45.2174484" lon="10.6936525"><ele>23.4</ele><time>2026-04-05T17:25:33.713Z</time></trkpt><trkpt lat="45.2175331" lon="10.6935787"><ele>22.799999999999997</ele><time>2026-04-05T17:25:35.713Z</time></trkpt><trkpt lat="45.2176118" lon="10.6935056"><ele>22.200000000000003</ele><time>2026-04-05T17:25:37.712Z</time></trkpt><trkpt lat="45.2176936" lon="10.6934209"><ele>21.6</ele><time>2026-04-05T17:25:39.714Z</time></trkpt><trkpt lat="45.2177789" lon="10.6933294"><ele>21.0</ele><time>2026-04-05T17:25:41.713Z</time></trkpt><trkpt lat="45.2178616" lon="10.6932483"><ele>21.0</ele><time>2026-04-05T17:25:43.713Z</time></trkpt><trkpt lat="45.2179487" lon="10.6931724"><ele>21.0</ele><time>2026-04-05T17:25:45.713Z</time></trkpt><trkpt lat="45.2180413" lon="10.6930789"><ele>21.0</ele><time>2026-04-05T17:25:47.713Z</time></trkpt><trkpt lat="45.2181332" lon="10.6929916"><ele>21.0</ele><time>2026-04-05T17:25:49.714Z</time></trkpt><trkpt lat="45.2182233" lon="10.6928945"><ele>21.0</ele><time>2026-04-05T17:25:51.713Z</time></trkpt><trkpt lat="45.2183133" lon="10.6928045"><ele>20.8</ele><time>2026-04-05T17:25:53.712Z</time></trkpt><trkpt lat="45.2183949" lon="10.6927207"><ele>20.6</ele><time>2026-04-05T17:25:55.713Z</time></trkpt><trkpt lat="45.2184834" lon="10.6926265"><ele>20.4</ele><time>2026-04-05T17:25:57.713Z</time></trkpt><trkpt lat="45.2185796" lon="10.6925383"><ele>20.2</ele><time>2026-04-05T17:25:59.713Z</time></trkpt><trkpt lat="45.2186667" lon="10.6924535"><ele>20.0</ele><time>2026-04-05T17:26:01.713Z</time></trkpt><trkpt lat="45.2187552" lon="10.6923648"><ele>20.0</ele><time>2026-04-05T17:26:03.713Z</time></trkpt><trkpt lat="45.218843" lon="10.6922806"><ele>20.0</ele><time>2026-04-05T17:26:05.713Z</time></trkpt><trkpt lat="45.2189264" lon="10.6921797"><ele>20.0</ele><time>2026-04-05T17:26:07.713Z</time></trkpt><trkpt lat="45.2190045" lon="10.6920781"><ele>20.0</ele><time>2026-04-05T17:26:09.712Z</time></trkpt><trkpt lat="45.2190741" lon="10.6919743"><ele>20.0</ele><time>2026-04-05T17:26:11.713Z</time></trkpt><trkpt lat="45.219135" lon="10.6918708"><ele>20.166666666666668</ele><time>2026-04-05T17:26:13.713Z</time></trkpt><trkpt lat="45.2191942" lon="10.6917867"><ele>20.333333333333336</ele><time>2026-04-05T17:26:15.713Z</time></trkpt><trkpt lat="45.219261" lon="10.6916902"><ele>20.5</ele><time>2026-04-05T17:26:17.713Z</time></trkpt><trkpt lat="45.2193163" lon="10.6916007"><ele>20.666666666666668</ele><time>2026-04-05T17:26:19.712Z</time></trkpt><trkpt lat="45.2193749" lon="10.6914966"><ele>20.833333333333332</ele><time>2026-04-05T17:26:21.712Z</time></trkpt><trkpt lat="45.2194266" lon="10.6914044"><ele>21.0</ele><time>2026-04-05T17:26:23.713Z</time></trkpt><trkpt lat="45.2194728" lon="10.6913049"><ele>21.0</ele><time>2026-04-05T17:26:25.714Z</time></trkpt><trkpt lat="45.2195129" lon="10.6912057"><ele>21.0</ele><time>2026-04-05T17:26:27.713Z</time></trkpt><trkpt lat="45.2195588" lon="10.6911159"><ele>21.0</ele><time>2026-04-05T17:26:29.712Z</time></trkpt><trkpt lat="45.2196053" lon="10.6910306"><ele>21.0</ele><time>2026-04-05T17:26:31.713Z</time></trkpt><trkpt lat="45.2196463" lon="10.6909408"><ele>21.0</ele><time>2026-04-05T17:26:33.712Z</time></trkpt><trkpt lat="45.2196903" lon="10.6908484"><ele>21.0</ele><time>2026-04-05T17:26:35.713Z</time></trkpt><trkpt lat="45.2197303" lon="10.6907536"><ele>21.0</ele><time>2026-04-05T17:26:37.713Z</time></trkpt><trkpt lat="45.219766" lon="10.6906591"><ele>21.0</ele><time>2026-04-05T17:26:39.712Z</time></trkpt><trkpt lat="45.2198021" lon="10.6905597"><ele>21.0</ele><time>2026-04-05T17:26:41.713Z</time></trkpt><trkpt lat="45.2198347" lon="10.6904624"><ele>21.0</ele><time>2026-04-05T17:26:43.714Z</time></trkpt><trkpt lat="45.2198645" lon="10.6903678"><ele>21.0</ele><time>2026-04-05T17:26:45.714Z</time></trkpt><trkpt lat="45.2198923" lon="10.6902701"><ele>21.0</ele><time>2026-04-05T17:26:47.712Z</time></trkpt><trkpt lat="45.2199163" lon="10.6901673"><ele>21.200000000000003</ele><time>2026-04-05T17:26:49.712Z</time></trkpt><trkpt lat="45.219942" lon="10.6900647"><ele>21.400000000000002</ele><time>2026-04-05T17:26:51.714Z</time></trkpt><trkpt lat="45.2199695" lon="10.6899463"><ele>21.6</ele><time>2026-04-05T17:26:53.712Z</time></trkpt><trkpt lat="45.2200011" lon="10.6898006"><ele>21.8</ele><time>2026-04-05T17:26:55.713Z</time></trkpt><trkpt lat="45.2200364" lon="10.6896481"><ele>22.0</ele><time>2026-04-05T17:26:57.713Z</time></trkpt><trkpt lat="45.2200709" lon="10.6894897"><ele>22.0</ele><time>2026-04-05T17:26:59.713Z</time></trkpt><trkpt lat="45.220106" lon="10.6893323"><ele>22.0</ele><time>2026-04-05T17:27:01.713Z</time></trkpt><trkpt lat="45.2201465" lon="10.6891699"><ele>22.0</ele><time>2026-04-05T17:27:03.712Z</time></trkpt><trkpt lat="45.2201835" lon="10.6890149"><ele>22.0</ele><time>2026-04-05T17:27:05.713Z</time></trkpt><trkpt lat="45.2202218" lon="10.688856"><ele>22.0</ele><time>2026-04-05T17:27:07.714Z</time></trkpt><trkpt lat="45.2202578" lon="10.6886966"><ele>22.0</ele><time>2026-04-05T17:27:09.713Z</time></trkpt><trkpt lat="45.2202939" lon="10.6885379"><ele>22.0</ele><time>2026-04-05T17:27:11.711Z</time></trkpt><trkpt lat="45.2203297" lon="10.6883804"><ele>22.0</ele><time>2026-04-05T17:27:13.712Z</time></trkpt><trkpt lat="45.2203676" lon="10.6882234"><ele>21.75</ele><time>2026-04-05T17:27:15.713Z</time></trkpt><trkpt lat="45.2204046" lon="10.6880705"><ele>21.5</ele><time>2026-04-05T17:27:17.712Z</time></trkpt><trkpt lat="45.2204375" lon="10.6879086"><ele>21.25</ele><time>2026-04-05T17:27:19.712Z</time></trkpt><trkpt lat="45.2204771" lon="10.6877492"><ele>21.0</ele><time>2026-04-05T17:27:21.714Z</time></trkpt><trkpt lat="45.2205143" lon="10.6875872"><ele>20.5</ele><time>2026-04-05T17:27:23.714Z</time></trkpt><trkpt lat="45.2205439" lon="10.6874312"><ele>20.0</ele><time>2026-04-05T17:27:25.712Z</time></trkpt><trkpt lat="45.2205801" lon="10.6872754"><ele>19.5</ele><time>2026-04-05T17:27:27.711Z</time></trkpt><trkpt lat="45.2206134" lon="10.6871199"><ele>19.0</ele><time>2026-04-05T17:27:29.712Z</time></trkpt><trkpt lat="45.2206415" lon="10.6869726"><ele>19.6</ele><time>2026-04-05T17:27:31.714Z</time></trkpt><trkpt lat="45.2206681" lon="10.686822"><ele>20.2</ele><time>2026-04-05T17:27:33.711Z</time></trkpt><trkpt lat="45.2206921" lon="10.6866759"><ele>20.8</ele><time>2026-04-05T17:27:35.713Z</time></trkpt><trkpt lat="45.2207204" lon="10.6865429"><ele>21.400000000000002</ele><time>2026-04-05T17:27:37.714Z</time></trkpt><trkpt lat="45.220754" lon="10.6864181"><ele>22.0</ele><time>2026-04-05T17:27:39.712Z</time></trkpt><trkpt lat="45.2208032" lon="10.6862755"><ele>22.0</ele><time>2026-04-05T17:27:41.713Z</time></trkpt><trkpt lat="45.2208504" lon="10.6861156"><ele>22.0</ele><time>2026-04-05T17:27:43.712Z</time></trkpt><trkpt lat="45.2208723" lon="10.6860295"><ele>22.0</ele><time>2026-04-05T17:27:44.713Z</time></trkpt><trkpt lat="45.220906" lon="10.68586"><ele>22.0</ele><time>2026-04-05T17:27:46.713Z</time></trkpt><trkpt lat="45.2209465" lon="10.6856964"><ele>22.0</ele><time>2026-04-05T17:27:48.713Z</time></trkpt><trkpt lat="45.2209857" lon="10.6855286"><ele>21.25</ele><time>2026-04-05T17:27:50.713Z</time></trkpt><trkpt lat="45.2210225" lon="10.6853677"><ele>20.5</ele><time>2026-04-05T17:27:52.713Z</time></trkpt><trkpt lat="45.2210566" lon="10.6852115"><ele>19.75</ele><time>2026-04-05T17:27:54.712Z</time></trkpt><trkpt lat="45.2210897" lon="10.6850594"><ele>19.0</ele><time>2026-04-05T17:27:56.712Z</time></trkpt><trkpt lat="45.2211232" lon="10.6849057"><ele>19.0</ele><time>2026-04-05T17:27:58.713Z</time></trkpt><trkpt lat="45.2211566" lon="10.6847459"><ele>19.0</ele><time>2026-04-05T17:28:00.713Z</time></trkpt><trkpt lat="45.2211915" lon="10.6845832"><ele>19.0</ele><time>2026-04-05T17:28:02.713Z</time></trkpt><trkpt lat="45.2212253" lon="10.6844226"><ele>19.0</ele><time>2026-04-05T17:28:04.713Z</time></trkpt><trkpt lat="45.2212615" lon="10.6842691"><ele>19.0</ele><time>2026-04-05T17:28:06.713Z</time></trkpt><trkpt lat="45.2212885" lon="10.6841191"><ele>19.0</ele><time>2026-04-05T17:28:08.713Z</time></trkpt><trkpt lat="45.2213242" lon="10.6839725"><ele>19.0</ele><time>2026-04-05T17:28:10.714Z</time></trkpt><trkpt lat="45.2213548" lon="10.6838285"><ele>19.0</ele><time>2026-04-05T17:28:12.714Z</time></trkpt><trkpt lat="45.2213856" lon="10.6836774"><ele>19.0</ele><time>2026-04-05T17:28:14.712Z</time></trkpt><trkpt lat="45.2214221" lon="10.6835186"><ele>19.0</ele><time>2026-04-05T17:28:16.712Z</time></trkpt><trkpt lat="45.2214578" lon="10.6833693"><ele>19.0</ele><time>2026-04-05T17:28:18.711Z</time></trkpt><trkpt lat="45.2214955" lon="10.6832203"><ele>19.0</ele><time>2026-04-05T17:28:20.713Z</time></trkpt><trkpt lat="45.2215322" lon="10.6830828"><ele>19.0</ele><time>2026-04-05T17:28:22.712Z</time></trkpt><trkpt lat="45.2215621" lon="10.6829426"><ele>19.0</ele><time>2026-04-05T17:28:24.714Z</time></trkpt><trkpt lat="45.2216061" lon="10.682796"><ele>19.2</ele><time>2026-04-05T17:28:26.712Z</time></trkpt><trkpt lat="45.22164" lon="10.6826443"><ele>19.4</ele><time>2026-04-05T17:28:28.713Z</time></trkpt><trkpt lat="45.2216729" lon="10.6824931"><ele>19.6</ele><time>2026-04-05T17:28:30.713Z</time></trkpt><trkpt lat="45.2217073" lon="10.6823448"><ele>19.8</ele><time>2026-04-05T17:28:32.714Z</time></trkpt><trkpt lat="45.22174" lon="10.6822043"><ele>20.0</ele><time>2026-04-05T17:28:34.712Z</time></trkpt><trkpt lat="45.2217766" lon="10.6820508"><ele>20.0</ele><time>2026-04-05T17:28:36.712Z</time></trkpt><trkpt lat="45.2218122" lon="10.6818971"><ele>20.0</ele><time>2026-04-05T17:28:38.714Z</time></trkpt><trkpt lat="45.2218489" lon="10.6817467"><ele>20.0</ele><time>2026-04-05T17:28:40.713Z</time></trkpt><trkpt lat="45.2218895" lon="10.6815919"><ele>20.0</ele><time>2026-04-05T17:28:42.712Z</time></trkpt><trkpt lat="45.2219249" lon="10.6814421"><ele>20.0</ele><time>2026-04-05T17:28:44.712Z</time></trkpt><trkpt lat="45.221965" lon="10.6812862"><ele>20.0</ele><time>2026-04-05T17:28:46.712Z</time></trkpt><trkpt lat="45.2219961" lon="10.6811292"><ele>20.0</ele><time>2026-04-05T17:28:48.713Z</time></trkpt><trkpt lat="45.2220337" lon="10.6809719"><ele>20.0</ele><time>2026-04-05T17:28:50.713Z</time></trkpt><trkpt lat="45.2220698" lon="10.68083"><ele>20.2</ele><time>2026-04-05T17:28:52.713Z</time></trkpt><trkpt lat="45.2221115" lon="10.6806792"><ele>20.4</ele><time>2026-04-05T17:28:54.713Z</time></trkpt><trkpt lat="45.2221561" lon="10.6805297"><ele>20.6</ele><time>2026-04-05T17:28:56.711Z</time></trkpt><trkpt lat="45.2221961" lon="10.6803954"><ele>20.8</ele><time>2026-04-05T17:28:58.713Z</time></trkpt><trkpt lat="45.2222416" lon="10.680254"><ele>21.0</ele><time>2026-04-05T17:29:00.712Z</time></trkpt><trkpt lat="45.222283" lon="10.6801159"><ele>21.200000000000003</ele><time>2026-04-05T17:29:02.712Z</time></trkpt><trkpt lat="45.2223268" lon="10.679989"><ele>21.400000000000002</ele><time>2026-04-05T17:29:04.713Z</time></trkpt><trkpt lat="45.222376" lon="10.6798689"><ele>21.6</ele><time>2026-04-05T17:29:06.711Z</time></trkpt><trkpt lat="45.2224271" lon="10.6797596"><ele>21.8</ele><time>2026-04-05T17:29:08.712Z</time></trkpt><trkpt lat="45.2224839" lon="10.6796375"><ele>22.0</ele><time>2026-04-05T17:29:10.713Z</time></trkpt><trkpt lat="45.2225474" lon="10.6795368"><ele>22.0</ele><time>2026-04-05T17:29:12.712Z</time></trkpt><trkpt lat="45.2226113" lon="10.6794326"><ele>22.0</ele><time>2026-04-05T17:29:14.712Z</time></trkpt><trkpt lat="45.2226719" lon="10.6793195"><ele>22.0</ele><time>2026-04-05T17:29:16.713Z</time></trkpt><trkpt lat="45.2227352" lon="10.6792091"><ele>22.0</ele><time>2026-04-05T17:29:18.712Z</time></trkpt><trkpt lat="45.2228013" lon="10.6790956"><ele>22.0</ele><time>2026-04-05T17:29:20.712Z</time></trkpt><trkpt lat="45.2228638" lon="10.678989"><ele>22.0</ele><time>2026-04-05T17:29:22.712Z</time></trkpt><trkpt lat="45.2229181" lon="10.678883"><ele>22.0</ele><time>2026-04-05T17:29:24.712Z</time></trkpt><trkpt lat="45.222977" lon="10.6787826"><ele>22.0</ele><time>2026-04-05T17:29:26.712Z</time></trkpt><trkpt lat="45.2230496" lon="10.6787015"><ele>22.0</ele><time>2026-04-05T17:29:28.714Z</time></trkpt><trkpt lat="45.2231177" lon="10.6786067"><ele>22.0</ele><time>2026-04-05T17:29:30.712Z</time></trkpt><trkpt lat="45.2231862" lon="10.6785198"><ele>22.0</ele><time>2026-04-05T17:29:32.713Z</time></trkpt><trkpt lat="45.2232587" lon="10.6784419"><ele>22.0</ele><time>2026-04-05T17:29:34.713Z</time></trkpt><trkpt lat="45.223324" lon="10.6783472"><ele>22.0</ele><time>2026-04-05T17:29:36.713Z</time></trkpt><trkpt lat="45.2233952" lon="10.6782692"><ele>22.0</ele><time>2026-04-05T17:29:38.713Z</time></trkpt><trkpt lat="45.2234501" lon="10.6781879"><ele>22.0</ele><time>2026-04-05T17:29:40.713Z</time></trkpt><trkpt lat="45.2235065" lon="10.6781141"><ele>22.0</ele><time>2026-04-05T17:29:42.711Z</time></trkpt><trkpt lat="45.2235589" lon="10.6780507"><ele>22.0</ele><time>2026-04-05T17:29:44.712Z</time></trkpt><trkpt lat="45.2236017" lon="10.6779848"><ele>22.0</ele><time>2026-04-05T17:29:46.712Z</time></trkpt><trkpt lat="45.2236432" lon="10.6779114"><ele>22.0</ele><time>2026-04-05T17:29:48.712Z</time></trkpt><trkpt lat="45.2236903" lon="10.6778469"><ele>22.0</ele><time>2026-04-05T17:29:50.714Z</time></trkpt><trkpt lat="45.2237318" lon="10.6777793"><ele>22.0</ele><time>2026-04-05T17:29:52.713Z</time></trkpt><trkpt lat="45.2237696" lon="10.6777045"><ele>22.0</ele><time>2026-04-05T17:29:54.711Z</time></trkpt><trkpt lat="45.2238265" lon="10.6776027"><ele>22.0</ele><time>2026-04-05T17:29:57.713Z</time></trkpt><trkpt lat="45.2238593" lon="10.6775236"><ele>22.0</ele><time>2026-04-05T17:29:59.712Z</time></trkpt><trkpt lat="45.2238851" lon="10.6774339"><ele>22.0</ele><time>2026-04-05T17:30:01.713Z</time></trkpt><trkpt lat="45.2239045" lon="10.6773295"><ele>22.0</ele><time>2026-04-05T17:30:03.713Z</time></trkpt><trkpt lat="45.223928" lon="10.6772244"><ele>22.0</ele><time>2026-04-05T17:30:05.712Z</time></trkpt><trkpt lat="45.2239531" lon="10.6771205"><ele>22.0</ele><time>2026-04-05T17:30:07.711Z</time></trkpt><trkpt lat="45.2239839" lon="10.6770205"><ele>22.0</ele><time>2026-04-05T17:30:09.713Z</time></trkpt><trkpt lat="45.2240258" lon="10.6769267"><ele>21.833333333333332</ele><time>2026-04-05T17:30:11.714Z</time></trkpt><trkpt lat="45.2241024" lon="10.6768778"><ele>21.666666666666664</ele><time>2026-04-05T17:30:14.713Z</time></trkpt><trkpt lat="45.2241949" lon="10.6768959"><ele>21.5</ele><time>2026-04-05T17:30:17.712Z</time></trkpt><trkpt lat="45.2242703" lon="10.676884"><ele>21.333333333333332</ele><time>2026-04-05T17:30:19.711Z</time></trkpt><trkpt lat="45.2243511" lon="10.676847"><ele>21.166666666666668</ele><time>2026-04-05T17:30:21.713Z</time></trkpt><trkpt lat="45.2244374" lon="10.6767927"><ele>21.0</ele><time>2026-04-05T17:30:23.713Z</time></trkpt><trkpt lat="45.2245118" lon="10.6767281"><ele>21.0</ele><time>2026-04-05T17:30:25.713Z</time></trkpt><trkpt lat="45.2245859" lon="10.6766606"><ele>21.0</ele><time>2026-04-05T17:30:27.712Z</time></trkpt><trkpt lat="45.2246577" lon="10.6766032"><ele>21.0</ele><time>2026-04-05T17:30:29.714Z</time></trkpt><trkpt lat="45.2247289" lon="10.6765553"><ele>21.0</ele><time>2026-04-05T17:30:31.712Z</time></trkpt><trkpt lat="45.2248058" lon="10.6765043"><ele>21.0</ele><time>2026-04-05T17:30:33.714Z</time></trkpt><trkpt lat="45.2248854" lon="10.6764343"><ele>21.0</ele><time>2026-04-05T17:30:35.714Z</time></trkpt><trkpt lat="45.2249644" lon="10.6763673"><ele>21.0</ele><time>2026-04-05T17:30:37.713Z</time></trkpt><trkpt lat="45.2250401" lon="10.6762909"><ele>21.0</ele><time>2026-04-05T17:30:39.713Z</time></trkpt><trkpt lat="45.2251089" lon="10.6761978"><ele>21.0</ele><time>2026-04-05T17:30:41.711Z</time></trkpt><trkpt lat="45.2251658" lon="10.6761039"><ele>21.0</ele><time>2026-04-05T17:30:43.711Z</time></trkpt><trkpt lat="45.225225" lon="10.6760079"><ele>21.0</ele><time>2026-04-05T17:30:45.712Z</time></trkpt><trkpt lat="45.2252951" lon="10.6759215"><ele>21.0</ele><time>2026-04-05T17:30:47.713Z</time></trkpt><trkpt lat="45.2253501" lon="10.6758423"><ele>21.0</ele><time>2026-04-05T17:30:49.864Z</time></trkpt><trkpt lat="45.2254359" lon="10.6757557"><ele>21.0</ele><time>2026-04-05T17:30:51.711Z</time></trkpt><trkpt lat="45.2255079" lon="10.6756717"><ele>21.0</ele><time>2026-04-05T17:30:53.712Z</time></trkpt><trkpt lat="45.2255884" lon="10.6755943"><ele>21.0</ele><time>2026-04-05T17:30:55.711Z</time></trkpt><trkpt lat="45.2256679" lon="10.675508"><ele>21.0</ele><time>2026-04-05T17:30:57.713Z</time></trkpt><trkpt lat="45.2257485" lon="10.6754225"><ele>21.0</ele><time>2026-04-05T17:30:59.712Z</time></trkpt><trkpt lat="45.2258284" lon="10.675336"><ele>21.0</ele><time>2026-04-05T17:31:01.712Z</time></trkpt><trkpt lat="45.2259083" lon="10.6752531"><ele>21.0</ele><time>2026-04-05T17:31:03.712Z</time></trkpt><trkpt lat="45.2259853" lon="10.6751617"><ele>21.0</ele><time>2026-04-05T17:31:05.712Z</time></trkpt><trkpt lat="45.2260568" lon="10.6750649"><ele>21.0</ele><time>2026-04-05T17:31:07.713Z</time></trkpt><trkpt lat="45.2261272" lon="10.6749716"><ele>21.0</ele><time>2026-04-05T17:31:09.712Z</time></trkpt><trkpt lat="45.2262082" lon="10.6748865"><ele>21.0</ele><time>2026-04-05T17:31:11.712Z</time></trkpt><trkpt lat="45.2262914" lon="10.6747983"><ele>21.0</ele><time>2026-04-05T17:31:13.712Z</time></trkpt><trkpt lat="45.2263721" lon="10.6747207"><ele>21.0</ele><time>2026-04-05T17:31:15.712Z</time></trkpt><trkpt lat="45.2264568" lon="10.6746508"><ele>21.166666666666668</ele><time>2026-04-05T17:31:17.713Z</time></trkpt><trkpt lat="45.2265375" lon="10.6745797"><ele>21.333333333333332</ele><time>2026-04-05T17:31:19.713Z</time></trkpt><trkpt lat="45.2266111" lon="10.6745074"><ele>21.5</ele><time>2026-04-05T17:31:21.712Z</time></trkpt><trkpt lat="45.2266859" lon="10.6744486"><ele>21.666666666666664</ele><time>2026-04-05T17:31:23.712Z</time></trkpt><trkpt lat="45.2267561" lon="10.6743783"><ele>21.833333333333332</ele><time>2026-04-05T17:31:26.712Z</time></trkpt><trkpt lat="45.2268145" lon="10.6743408"><ele>22.0</ele><time>2026-04-05T17:31:29.712Z</time></trkpt><trkpt lat="45.2268767" lon="10.6743003"><ele>22.0</ele><time>2026-04-05T17:31:32.711Z</time></trkpt><trkpt lat="45.2269422" lon="10.6742568"><ele>22.0</ele><time>2026-04-05T17:31:35.712Z</time></trkpt><trkpt lat="45.2270049" lon="10.674221"><ele>22.0</ele><time>2026-04-05T17:31:38.713Z</time></trkpt><trkpt lat="45.2269305" lon="10.6741985"><ele>22.0</ele><time>2026-04-05T17:32:01.713Z</time></trkpt><trkpt lat="45.226876" lon="10.6742512"><ele>22.0</ele><time>2026-04-05T17:32:04.711Z</time></trkpt><trkpt lat="45.2268221" lon="10.674309"><ele>22.0</ele><time>2026-04-05T17:32:07.712Z</time></trkpt><trkpt lat="45.226767" lon="10.6743579"><ele>22.0</ele><time>2026-04-05T17:32:10.711Z</time></trkpt><trkpt lat="45.2266974" lon="10.6744193"><ele>22.166666666666664</ele><time>2026-04-05T17:32:14.713Z</time></trkpt><trkpt lat="45.2266348" lon="10.674488"><ele>22.333333333333332</ele><time>2026-04-05T17:32:17.713Z</time></trkpt><trkpt lat="45.2265605" lon="10.6745415"><ele>22.5</ele><time>2026-04-05T17:32:20.713Z</time></trkpt><trkpt lat="45.2264973" lon="10.6746093"><ele>22.666666666666668</ele><time>2026-04-05T17:32:23.712Z</time></trkpt><trkpt lat="45.2264268" lon="10.6746654"><ele>22.833333333333336</ele><time>2026-04-05T17:32:26.711Z</time></trkpt><trkpt lat="45.2263588" lon="10.674728"><ele>23.0</ele><time>2026-04-05T17:32:29.713Z</time></trkpt><trkpt lat="45.2262965" lon="10.6748009"><ele>23.0</ele><time>2026-04-05T17:32:32.713Z</time></trkpt><trkpt lat="45.2262276" lon="10.6748565"><ele>23.0</ele><time>2026-04-05T17:32:35.713Z</time></trkpt><trkpt lat="45.2262834" lon="10.6747978"><ele>23.0</ele><time>2026-04-05T17:32:44.712Z</time></trkpt><trkpt lat="45.2263455" lon="10.6747319"><ele>23.0</ele><time>2026-04-05T17:32:47.711Z</time></trkpt><trkpt lat="45.2264046" lon="10.6746742"><ele>23.0</ele><time>2026-04-05T17:32:50.712Z</time></trkpt><trkpt lat="45.2264755" lon="10.6746135"><ele>23.0</ele><time>2026-04-05T17:32:53.713Z</time></trkpt><trkpt lat="45.2265588" lon="10.6745697"><ele>23.0</ele><time>2026-04-05T17:32:56.712Z</time></trkpt><trkpt lat="45.2266086" lon="10.674511"><ele>23.0</ele><time>2026-04-05T17:32:58.713Z</time></trkpt><trkpt lat="45.2266898" lon="10.6744409"><ele>23.0</ele><time>2026-04-05T17:33:01.711Z</time></trkpt><trkpt lat="45.2267491" lon="10.6743984"><ele>23.0</ele><time>2026-04-05T17:33:03.712Z</time></trkpt><trkpt lat="45.2268047" lon="10.6743484"><ele>23.0</ele><time>2026-04-05T17:33:05.712Z</time></trkpt><trkpt lat="45.2268622" lon="10.6743056"><ele>23.0</ele><time>2026-04-05T17:33:07.712Z</time></trkpt><trkpt lat="45.2269201" lon="10.6742593"><ele>23.0</ele><time>2026-04-05T17:33:09.71Z</time></trkpt><trkpt lat="45.2269834" lon="10.6742189"><ele>23.0</ele><time>2026-04-05T17:33:11.711Z</time></trkpt><trkpt lat="45.2270465" lon="10.6741738"><ele>23.0</ele><time>2026-04-05T17:33:13.711Z</time></trkpt><trkpt lat="45.2271026" lon="10.6741322"><ele>23.0</ele><time>2026-04-05T17:33:15.713Z</time></trkpt><trkpt lat="45.2271608" lon="10.6740851"><ele>23.0</ele><time>2026-04-05T17:33:17.71Z</time></trkpt><trkpt lat="45.2272284" lon="10.6740578"><ele>23.0</ele><time>2026-04-05T17:33:19.711Z</time></trkpt><trkpt lat="45.2272927" lon="10.6740215"><ele>23.0</ele><time>2026-04-05T17:33:21.711Z</time></trkpt><trkpt lat="45.2273515" lon="10.6739863"><ele>23.0</ele><time>2026-04-05T17:33:23.712Z</time></trkpt><trkpt lat="45.2274267" lon="10.6739438"><ele>23.0</ele><time>2026-04-05T17:33:26.711Z</time></trkpt><trkpt lat="45.2274872" lon="10.6739153"><ele>23.0</ele><time>2026-04-05T17:33:29.712Z</time></trkpt><trkpt lat="45.2274151" lon="10.6739048"><ele>23.0</ele><time>2026-04-05T17:33:33.712Z</time></trkpt><trkpt lat="45.2273285" lon="10.6739586"><ele>23.0</ele><time>2026-04-05T17:33:36.711Z</time></trkpt><trkpt lat="45.2272682" lon="10.6739964"><ele>23.0</ele><time>2026-04-05T17:33:38.712Z</time></trkpt><trkpt lat="45.2272033" lon="10.6740385"><ele>23.0</ele><time>2026-04-05T17:33:40.712Z</time></trkpt><trkpt lat="45.2271421" lon="10.6740794"><ele>23.0</ele><time>2026-04-05T17:33:42.711Z</time></trkpt><trkpt lat="45.2270811" lon="10.6741221"><ele>22.0</ele><time>2026-04-05T17:33:44.712Z</time></trkpt><trkpt lat="45.2270211" lon="10.6741631"><ele>22.0</ele><time>2026-04-05T17:33:46.711Z</time></trkpt><trkpt lat="45.226962" lon="10.6742112"><ele>22.0</ele><time>2026-04-05T17:33:48.712Z</time></trkpt></trkseg></trk></gpx>